GFSCGP_925_spd_000.txt.gz
Wind_Speed
9 9 12 13 13 4 6 4 7 4 4 2 7 8 15 8 5 4 5 4 4 7 4 15 21 23 23 23 23 24 25 21 10 4 4 5 8 9 9 9 10 10 10 10
8 16 14 7 7 4 3 3 5 6 1 3 7 10 12 7 6 4 8 6 4 5 6 10 19 23 24 26 29 29 28 25 20 13 10 7 10 16 18 17 19 20 19 19
11 4 15 13 6 10 3 5 4 5 7 4 6 7 6 2 2 6 6 4 3 6 7 5 11 19 24 28 29 30 30 28 26 20 15 17 17 21 23 24 22 20 19 20
6 4 13 16 11 6 9 6 3 3 4 3 5 6 6 5 4 6 7 6 6 6 2 5 8 16 21 23 25 27 28 28 26 25 27 27 25 22 18 17 17 18 19 20
7 14 11 15 17 9 4 5 6 2 3 3 1 2 7 2 5 6 7 6 5 6 6 6 8 16 18 21 24 26 27 28 27 26 25 25 23 18 18 19 20 21 22 22
3 5 9 7 4 11 6 5 2 3 2 2 6 7 6 4 6 4 4 6 7 6 6 5 12 17 19 20 22 23 26 25 24 24 24 23 23 22 23 24 25 25 26 26
1 4 3 6 6 3 4 7 2 1 1 6 1 2 8 4 5 9 12 10 8 6 6 6 7 12 17 18 19 21 22 23 21 22 23 22 21 22 23 24 25 27 28 29
7 5 8 6 6 6 7 8 5 6 4 4 2 6 5 3 6 7 9 10 8 7 6 7 8 13 18 18 18 19 20 20 19 19 20 19 20 20 20 20 20 20 21 21
8 5 2 5 5 12 6 8 4 5 1 1 3 7 8 4 6 3 10 11 9 8 7 7 8 15 17 17 15 16 18 18 17 17 17 18 19 19 18 18 20 21 22 22
7 5 0 2 6 3 7 8 2 2 3 4 4 5 5 5 2 3 8 10 8 6 7 7 8 15 16 15 14 15 16 17 15 15 15 16 17 18 19 20 21 21 22 23
6 4 2 6 6 8 2 4 4 4 3 4 1 6 5 5 4 8 7 6 8 8 7 7 8 14 15 13 13 14 15 14 14 13 14 17 18 18 18 20 20 21 21 23
4 6 6 3 1 5 4 7 6 5 4 1 3 6 2 5 4 7 6 6 7 7 7 7 11 15 12 12 12 13 13 13 13 12 13 15 16 18 20 21 21 22 24 25
8 2 5 2 1 2 4 4 4 5 3 6 6 5 3 6 6 6 8 8 7 6 7 7 8 9 11 10 11 12 11 11 10 10 12 15 17 19 20 21 22 22 24 25
7 3 6 9 4 6 5 5 5 6 4 5 6 5 3 3 5 4 4 3 6 7 8 6 6 8 10 10 10 9 9 9 9 12 14 15 17 17 19 19 22 23 24 26
4 4 3 3 4 4 6 9 11 9 9 7 5 8 3 2 4 4 3 2 5 6 7 8 7 6 10 9 8 7 7 8 9 10 12 14 16 17 19 21 23 24 26 27
3 2 3 2 3 3 2 4 8 4 4 2 5 4 2 2 3 3 2 2 4 6 7 7 7 9 9 8 7 5 5 6 7 9 12 15 17 19 21 23 25 27 27 29
5 5 3 3 2 2 4 8 8 5 4 7 7 6 4 3 5 3 3 2 4 5 7 8 7 9 11 8 5 4 3 4 6 9 13 15 18 20 22 24 25 27 29 31
5 5 3 3 1 1 3 1 6 7 2 5 6 6 5 5 3 2 3 3 6 2 6 7 11 13 11 7 4 3 1 4 10 12 12 14 18 21 23 25 25 28 29 30
3 5 3 5 4 3 0 4 7 6 3 1 7 5 3 3 3 3 3 3 4 5 8 14 16 14 10 6 4 1 4 8 9 11 13 16 18 20 23 26 27 27 30 32
5 6 4 2 4 7 1 2 5 4 2 6 6 6 5 4 2 4 4 2 3 7 15 17 14 12 9 6 2 2 5 7 9 13 15 16 18 21 25 24 25 27 30 30
3 3 4 2 2 5 3 3 2 5 3 4 6 6 5 4 4 1 3 2 6 9 13 14 12 10 7 4 2 4 6 8 11 13 16 18 21 22 22 24 25 29 31 28
6 6 4 3 2 6 2 4 6 3 3 6 5 4 4 4 2 4 6 6 7 9 11 10 10 7 4 2 2 3 6 9 12 14 17 20 22 23 24 24 27 29 28 26
1 4 4 6 4 1 1 2 4 4 6 5 4 5 4 3 1 2 2 6 6 10 9 7 7 6 4 1 2 6 8 11 14 17 20 23 25 24 23 24 28 24 24 23
1 2 3 3 2 3 4 4 4 4 5 4 2 3 3 2 2 1 2 4 5 9 8 7 7 6 3 2 4 7 10 13 16 19 22 25 25 25 26 25 26 24 22 22
3 4 4 1 2 2 1 2 6 5 5 5 4 3 2 1 1 1 3 5 8 10 9 8 6 3 2 4 7 10 12 14 17 20 23 24 26 26 28 25 23 23 22 23
4 6 5 5 6 4 4 4 4 6 5 5 3 2 2 0 2 3 3 7 10 11 9 7 4 2 4 8 10 12 13 15 17 21 21 23 22 25 24 24 24 19 21 24

GFSCGP_925_spd_003.txt.gz
Wind_Speed
14 11 15 17 12 5 7 7 11 2 2 1 4 6 13 5 4 4 5 6 6 6 4 8 16 18 22 25 25 26 26 21 18 18 18 19 19 21 23 24 23 22 21 20
11 14 12 9 8 7 5 5 5 3 1 3 5 13 12 3 4 4 10 8 7 6 6 8 14 20 24 24 27 30 29 24 24 23 20 20 21 25 25 23 22 21 20 19
17 7 15 12 7 9 4 6 4 4 3 1 5 6 4 2 2 4 6 7 7 9 8 6 13 15 19 24 28 29 30 30 26 24 25 26 24 21 20 21 21 20 18 19
11 6 16 14 12 9 9 4 2 2 4 2 3 5 5 4 1 4 6 8 9 9 6 6 10 13 16 22 26 29 29 30 28 25 26 25 21 16 14 16 16 18 19 20
6 14 18 16 15 9 4 5 3 0 3 1 2 2 6 2 3 6 8 6 8 8 8 7 9 11 16 21 24 26 27 27 25 24 23 23 20 16 15 16 17 18 19 20
3 3 9 8 8 9 9 7 5 3 3 3 5 5 5 3 4 5 4 7 9 9 8 7 9 13 16 19 22 24 25 24 22 22 21 21 19 16 16 18 18 16 16 17
3 3 4 5 9 3 4 6 2 1 4 4 2 2 8 3 4 9 15 13 11 11 10 9 8 10 13 17 18 19 21 21 20 21 21 19 18 18 18 17 17 18 18 19
5 5 8 6 6 6 5 6 4 5 4 2 3 5 5 3 3 3 7 11 11 11 9 9 10 11 13 15 16 18 18 19 18 19 18 17 16 17 16 16 16 16 16 15
12 3 2 9 4 9 4 5 4 4 2 1 3 5 7 1 3 2 10 13 13 11 10 10 10 12 13 13 14 15 17 18 16 16 15 16 15 16 15 15 15 15 15 15
4 5 4 4 5 4 6 6 3 1 4 3 3 4 4 5 4 3 8 14 9 8 10 9 10 12 12 13 14 13 14 16 15 14 13 14 14 14 13 14 15 16 16 16
6 4 1 6 5 9 4 3 1 3 2 3 1 4 5 4 3 6 9 10 11 10 11 10 12 11 13 13 12 12 12 13 13 12 12 12 12 13 14 15 14 14 14 16
7 5 4 3 1 3 5 8 11 4 3 1 2 5 1 5 5 6 9 8 8 7 9 10 14 13 12 11 11 11 11 11 10 9 9 10 11 13 14 13 14 14 16 17
6 2 6 4 2 4 5 4 4 4 3 6 5 4 1 3 4 4 9 6 6 7 10 10 12 12 11 10 10 10 9 9 8 7 8 10 12 12 12 13 14 15 17 19
4 3 5 8 5 6 5 4 4 6 4 5 6 5 3 1 5 5 5 6 7 7 10 10 9 11 10 10 10 9 8 6 5 5 7 8 10 10 11 14 15 17 19 20
2 3 3 1 2 6 8 10 12 10 11 10 7 9 6 4 6 6 3 4 5 7 10 11 10 10 11 10 10 9 7 5 4 5 7 9 9 10 12 14 16 18 20 22
3 3 2 2 2 4 4 6 11 10 3 8 5 7 5 3 5 5 4 5 5 6 9 10 10 13 12 11 10 8 5 4 4 5 6 7 10 12 14 17 19 21 22 24
4 5 3 2 2 4 3 9 10 7 5 10 11 9 7 4 7 6 5 5 5 5 8 11 11 12 13 13 10 8 5 3 3 4 6 9 11 13 16 20 21 23 24 27
5 5 1 3 2 1 4 1 5 6 3 5 3 6 7 7 5 5 3 3 3 2 6 8 11 14 14 12 9 6 3 1 2 4 8 9 12 16 19 22 23 25 23 24
5 7 2 4 4 4 1 4 6 7 5 6 9 7 7 5 4 3 3 3 2 1 4 10 18 17 14 11 8 5 1 1 4 7 9 11 14 17 21 23 24 24 24 27
4 4 4 1 5 6 1 2 4 4 4 8 7 7 7 5 3 2 2 2 5 6 9 15 16 15 13 10 7 3 0 3 5 8 10 12 15 18 21 22 24 25 28 26
3 3 5 4 2 5 4 3 4 4 3 5 6 6 6 4 2 3 3 4 6 7 11 14 15 14 11 8 5 2 1 4 6 9 12 14 16 19 21 24 26 28 29 24
6 6 4 3 2 7 5 4 7 3 4 6 5 4 5 5 5 3 3 4 6 9 12 13 14 12 9 7 4 1 2 5 8 11 13 16 19 22 24 25 28 26 24 23
2 4 4 6 4 1 2 1 3 4 6 5 6 4 5 6 4 6 4 5 6 11 12 13 13 11 8 5 2 1 4 7 9 12 16 19 22 24 24 26 23 22 21 21
2 2 3 3 1 2 4 4 4 4 5 6 5 5 5 4 5 5 5 5 7 13 14 14 13 11 8 5 1 3 5 7 10 15 18 22 24 23 25 26 23 20 21 22
3 5 5 2 2 4 3 3 6 6 7 8 5 4 4 4 3 3 4 5 9 13 14 14 11 8 6 3 2 4 5 9 12 16 19 22 25 26 24 21 20 19 20 20
4 6 4 4 8 4 6 6 6 7 6 5 5 4 2 2 3 3 4 6 10 12 12 11 9 7 5 4 3 4 6 9 12 16 17 21 18 20 20 20 22 17 19 22

GFSCGP_925_spd_006.txt.gz
Wind_Speed
19 12 19 28 17 16 18 18 14 13 7 6 13 16 14 16 9 9 8 9 8 8 7 8 10 11 13 15 17 17 17 14 13 14 15 15 15 16 16 16 16 15 14 14
16 23 24 15 19 19 20 16 16 12 6 6 13 16 16 15 11 8 10 12 12 10 9 10 12 14 15 17 18 19 19 19 16 14 14 14 15 15 15 14 15 15 14 14
23 17 18 18 22 22 15 17 15 9 5 6 9 18 11 5 4 3 8 11 12 13 12 11 12 13 15 16 16 20 20 19 18 17 16 15 14 13 12 12 12 13 12 13
19 20 23 18 21 23 18 11 9 8 1 5 3 5 8 9 5 7 12 13 13 13 11 11 13 14 15 15 16 19 19 19 17 15 16 15 13 11 10 10 9 9 11 12
14 13 17 20 24 26 11 12 9 3 5 6 8 6 4 3 7 10 14 14 13 12 12 12 13 14 13 13 15 16 18 18 17 15 14 14 13 10 8 7 8 8 9 11
12 6 20 18 24 20 15 14 8 4 1 7 11 9 5 4 1 11 15 14 14 13 13 12 14 14 13 12 14 15 16 16 15 15 15 14 12 10 7 8 8 8 8 10
10 15 5 15 16 3 16 15 3 5 4 6 3 6 10 3 3 10 18 17 16 15 13 13 13 13 13 12 12 12 13 15 13 13 13 12 11 9 9 9 9 10 11 11
8 5 11 13 20 9 16 14 5 5 6 5 4 6 2 5 2 6 15 17 16 15 13 13 13 14 13 11 11 12 12 12 11 11 11 10 9 8 8 9 9 9 9 9
9 4 7 12 5 11 4 6 2 3 1 3 5 4 4 2 2 6 13 18 17 16 14 13 14 14 13 12 10 10 11 10 9 9 9 9 8 9 7 7 7 7 8 8
12 4 6 6 7 4 10 10 4 2 5 5 4 3 2 3 1 6 14 19 18 15 14 13 13 14 12 11 10 9 9 9 8 7 7 7 7 7 6 6 7 7 8 9
3 7 2 13 6 12 10 6 4 2 3 3 3 4 3 2 3 5 12 18 17 16 15 13 13 14 13 11 10 9 9 8 7 6 6 6 6 5 6 6 7 8 9 10
8 3 6 3 3 9 10 11 12 6 5 1 3 3 4 3 4 4 10 16 15 16 14 13 15 15 14 12 11 9 8 7 6 5 4 5 4 5 5 6 8 9 10 11
11 7 8 5 2 3 7 11 17 10 1 10 8 3 2 2 2 4 11 15 15 15 14 13 14 15 15 13 11 9 8 7 5 4 4 3 4 5 6 7 8 9 11 11
3 5 13 11 9 12 14 19 19 17 10 9 11 6 6 5 5 7 11 14 14 13 14 13 12 14 15 13 12 10 8 6 4 3 2 3 4 6 7 8 9 10 11 12
5 4 9 3 2 15 17 19 19 20 19 13 14 18 16 9 10 11 11 12 13 12 13 14 14 12 15 14 11 9 8 6 4 2 1 2 4 6 7 8 10 11 12 13
11 3 2 3 4 10 14 19 22 23 21 23 17 17 5 4 9 11 11 10 11 11 12 13 14 15 15 14 12 10 8 6 4 1 1 3 5 7 8 10 12 13 14 15
12 5 3 3 4 5 9 18 20 18 20 21 19 19 10 8 11 12 10 9 8 8 10 12 13 14 14 14 12 11 8 6 3 1 2 4 6 8 10 11 13 14 16 17
13 4 1 3 2 5 1 3 16 21 18 20 17 4 13 11 10 9 7 8 7 5 6 8 11 14 14 13 12 10 7 4 2 1 2 5 7 9 11 13 14 16 17 19
10 3 3 4 7 6 4 5 7 11 13 15 16 9 11 14 13 7 5 5 5 3 3 8 12 14 14 13 11 8 5 3 1 2 3 5 8 11 13 15 17 19 20 21
5 7 3 1 4 4 3 3 5 5 7 11 12 15 17 13 10 6 5 5 6 6 7 11 14 14 13 11 10 7 4 2 1 3 5 7 9 12 15 16 19 19 20 22
4 5 12 9 2 7 2 6 5 6 1 9 13 15 14 9 3 10 8 7 7 8 11 12 13 12 11 10 8 5 3 0 2 4 6 8 10 13 15 17 19 21 22 23
12 9 5 5 3 9 6 5 6 4 9 13 13 12 10 11 8 8 7 7 7 10 12 11 12 11 9 8 6 3 1 2 3 5 8 10 13 14 16 17 19 20 21 23
5 3 5 7 3 2 1 2 2 8 14 9 11 9 11 10 6 7 6 6 7 9 10 9 9 10 8 6 4 3 2 3 5 7 10 12 14 15 16 17 19 20 20 21
2 2 2 3 2 1 2 5 6 10 11 9 11 10 8 8 7 6 5 5 5 8 9 9 10 8 7 6 4 3 3 4 6 9 12 14 15 17 17 18 17 19 20 21
1 8 7 2 2 6 3 5 10 11 11 11 8 7 7 7 6 5 4 4 5 8 9 9 9 9 8 7 5 4 3 5 7 10 13 14 15 17 18 18 18 18 18 18
6 6 5 3 13 2 13 11 12 13 11 10 10 6 4 3 3 2 1 2 6 9 10 11 9 8 8 7 5 3 4 6 9 12 12 14 16 18 18 20 21 17 17 20

GFSCGP_925_spd_009.txt.gz
Wind_Speed
21 12 18 28 27 20 23 18 24 19 22 22 17 20 19 17 15 12 11 11 10 9 7 8 10 11 13 15 16 16 15 14 14 14 14 14 15 14 14 15 13 13 13 12
16 19 27 28 22 27 23 22 23 13 14 11 14 18 19 15 18 15 13 12 12 12 11 10 12 13 15 16 17 17 16 15 14 14 15 15 15 15 14 12 12 12 13 14
23 20 27 27 22 26 26 20 19 14 13 11 12 17 20 19 15 7 12 13 14 14 14 13 13 14 15 16 16 17 18 18 17 17 17 17 15 13 12 10 10 12 13 13
17 20 23 29 28 22 27 19 17 13 12 9 14 7 16 14 13 10 12 14 15 15 14 12 14 15 15 15 16 17 17 17 15 14 14 13 13 12 9 8 8 8 10 11
13 13 24 29 25 21 16 25 16 14 11 2 12 6 15 12 15 11 14 16 16 15 15 14 13 16 15 14 15 16 17 16 15 15 14 14 13 11 8 7 7 7 7 10
21 17 25 23 20 22 9 17 10 12 5 7 13 12 10 12 13 16 15 17 17 16 15 14 16 16 15 14 14 15 16 16 15 15 14 14 12 10 8 8 7 7 7 8
11 17 3 9 14 21 15 16 6 5 5 7 7 10 13 9 5 9 16 18 18 17 16 15 14 15 15 14 14 14 14 14 13 13 13 12 11 9 9 7 7 8 8 9
7 7 9 9 11 9 18 16 7 7 9 13 7 7 5 7 2 8 16 18 18 17 15 15 14 15 15 14 13 13 13 13 11 11 11 10 8 8 8 8 7 7 8 9
6 6 2 16 13 16 9 19 2 4 5 10 8 9 7 5 7 9 15 19 19 18 16 16 14 16 15 14 13 13 12 11 9 9 8 8 8 8 7 7 7 7 7 8
5 4 1 5 12 3 6 11 6 3 7 6 8 8 6 10 8 11 14 20 19 17 16 15 12 16 15 14 13 12 10 10 8 7 7 7 6 6 6 6 7 7 7 8
10 1 3 11 5 11 3 7 5 3 3 4 7 5 10 6 5 9 14 18 19 18 16 15 13 16 15 14 13 12 10 9 8 6 6 5 5 5 5 6 7 7 8 9
9 5 2 8 4 14 12 9 12 6 5 4 4 5 7 4 4 6 12 16 18 17 16 15 14 16 15 14 13 11 10 9 7 6 4 4 4 4 5 6 7 8 9 10
13 3 3 5 8 3 2 11 17 11 3 11 7 5 5 5 6 5 10 15 16 16 16 14 14 13 15 14 13 11 10 9 7 5 4 3 4 5 6 7 8 9 10 11
4 8 6 4 7 12 11 15 17 15 9 10 11 7 10 7 7 8 11 13 16 16 16 14 13 12 15 14 13 12 10 9 7 5 3 3 4 5 6 7 8 9 11 13
4 6 6 2 4 14 14 19 18 18 17 11 12 14 9 10 8 9 12 15 16 16 16 14 13 12 15 14 13 11 10 9 7 5 2 2 4 5 6 7 9 11 12 14
13 4 4 4 2 6 13 16 20 22 22 21 17 15 2 1 8 9 12 15 16 15 14 13 13 12 14 14 13 12 11 9 6 4 2 2 4 5 7 8 11 13 15 17
9 6 3 2 6 5 9 18 19 20 21 20 20 18 11 7 8 10 10 11 12 11 12 12 12 11 13 13 13 12 11 8 6 3 0 2 4 6 8 10 12 14 17 20
13 9 3 2 5 6 2 3 17 21 19 20 20 14 5 8 7 6 4 8 8 7 8 8 9 12 12 12 12 12 10 8 5 2 1 3 5 7 9 11 14 16 19 21
9 7 2 3 4 9 8 4 6 16 17 19 18 17 7 10 13 8 6 7 8 7 6 8 10 13 14 14 13 12 9 7 4 1 2 4 5 8 10 13 16 18 20 22
6 8 4 1 3 4 4 2 0 6 10 4 16 13 14 15 8 7 9 9 9 10 10 12 13 14 14 13 12 10 8 5 2 0 2 4 6 9 12 15 17 19 21 23
3 2 4 3 4 7 5 6 5 6 2 2 5 11 16 12 4 16 13 10 10 11 13 13 13 13 12 12 11 8 6 4 2 1 3 6 8 10 13 15 17 20 22 24
7 7 4 3 5 8 8 5 4 3 5 7 10 11 12 13 13 12 12 10 10 10 12 11 12 12 11 10 8 8 5 3 1 2 5 8 10 12 14 17 19 20 22 23
8 8 7 9 5 4 5 3 3 5 10 9 12 11 13 13 12 11 10 9 8 11 11 10 11 12 10 8 7 7 5 2 1 4 7 10 12 13 15 18 19 21 21 22
3 2 3 4 4 3 6 3 3 9 10 11 12 12 11 12 10 10 9 8 7 9 10 10 11 11 10 8 6 5 3 1 3 6 9 10 13 15 17 17 18 19 20 20
1 9 7 2 2 4 4 5 9 11 11 12 10 9 10 10 8 7 6 6 6 8 9 10 10 9 10 8 6 3 1 1 5 7 9 12 13 16 18 18 19 20 20 20
6 5 5 3 11 3 9 12 13 13 12 11 12 11 9 7 7 5 4 4 5 7 9 9 9 9 9 7 4 3 2 3 5 8 10 12 15 17 18 19 21 19 21 21

GFSCGP_925_spd_012.txt.gz
Wind_Speed
11 9 17 23 22 18 15 17 16 17 17 21 20 19 15 13 11 10 8 6 10 10 9 8 11 12 14 16 18 19 21 20 20 21 23 22 22 20 19 17 14 13 14 14
10 21 25 14 17 18 21 18 17 15 20 20 19 17 16 10 14 13 9 9 10 11 8 7 13 15 16 16 18 18 20 22 23 23 23 23 21 18 17 16 14 13 14 14
19 20 16 18 18 20 22 23 16 15 15 9 8 12 10 12 15 9 11 9 15 15 10 8 9 15 16 17 18 18 20 22 23 25 24 23 21 18 15 13 12 12 13 14
15 18 20 19 23 19 22 23 22 19 17 11 11 4 15 21 16 10 8 6 15 14 11 8 9 15 16 17 18 19 20 20 20 19 21 19 18 17 13 12 10 9 11 12
10 11 18 22 21 20 20 17 22 27 11 4 6 5 9 10 19 9 9 10 14 14 12 10 9 18 16 16 18 19 20 21 20 20 20 20 19 15 13 11 9 7 7 8
13 9 12 16 21 20 22 15 20 18 11 8 13 9 6 6 13 13 9 10 14 14 12 10 19 19 17 16 18 19 20 20 20 20 19 18 17 14 12 10 9 9 7 7
7 19 8 4 12 20 22 14 8 7 6 4 16 8 6 4 8 14 14 13 14 13 12 12 10 13 17 16 17 18 20 20 19 19 17 16 15 13 12 10 9 7 6 8
9 8 14 14 11 15 24 22 3 5 5 6 15 6 5 7 8 11 13 15 14 13 11 11 9 16 19 18 17 19 19 19 17 17 15 14 13 11 11 9 8 8 7 9
3 9 5 10 15 16 10 9 17 6 10 6 4 4 4 8 6 10 13 16 15 14 13 12 11 19 21 18 18 19 19 18 16 15 14 12 11 10 9 7 7 7 7 8
3 6 6 12 8 9 7 8 10 4 7 7 6 8 5 10 9 8 13 15 14 13 14 11 10 19 21 19 19 18 17 17 16 14 12 11 10 9 7 6 8 8 8 9
5 3 1 1 8 13 8 6 9 4 5 5 5 1 10 9 12 11 11 15 16 14 14 12 9 21 22 20 19 18 18 17 15 13 12 9 8 8 6 6 7 8 8 9
9 4 4 6 4 12 10 8 11 3 2 1 4 2 6 9 8 9 9 16 15 13 12 11 10 20 23 20 18 18 17 16 14 12 10 9 8 5 5 5 6 7 8 10
12 5 2 5 8 1 4 7 5 5 3 3 3 3 7 8 8 5 9 12 13 13 11 10 10 11 18 20 19 18 17 16 13 11 10 9 6 4 4 5 6 8 10 12
7 6 6 5 6 11 6 7 6 5 1 2 2 6 6 7 9 7 8 10 13 13 12 10 10 7 19 21 20 18 17 16 13 11 10 8 4 3 3 5 7 9 11 14
4 4 13 10 18 17 14 9 8 9 7 1 3 7 9 10 10 9 8 9 13 12 12 11 10 9 17 21 20 18 17 15 12 11 9 5 4 2 4 6 8 11 13 15
12 6 12 10 6 12 13 13 12 10 7 7 9 5 7 8 9 9 9 9 11 12 12 10 9 9 14 21 21 19 18 15 12 10 7 5 2 3 4 7 9 12 15 18
6 4 5 4 4 5 4 8 14 9 8 8 10 7 4 6 7 9 10 10 9 9 10 9 9 9 18 23 23 20 18 15 12 9 6 3 2 3 5 8 11 14 17 20
7 3 3 2 2 1 2 1 5 11 8 10 9 5 4 8 6 10 6 8 8 8 8 8 8 15 21 23 22 20 18 14 11 8 5 2 1 4 7 10 12 16 19 21
9 2 1 1 3 6 1 1 1 6 9 8 8 9 8 10 7 8 10 11 10 9 7 11 20 24 24 22 23 21 16 13 10 7 4 1 3 5 8 11 15 19 21 24
6 6 3 4 1 3 2 2 6 3 2 6 6 8 14 7 5 4 7 10 10 12 17 18 24 24 23 21 20 19 16 12 9 5 3 1 4 6 9 13 17 20 22 23
4 3 5 4 2 6 2 3 4 4 3 6 6 9 11 5 1 12 11 10 11 14 19 22 22 20 21 19 18 17 14 10 7 4 2 2 4 8 10 15 18 20 21 23
6 5 3 3 2 6 6 4 2 2 2 4 8 9 17 14 13 13 11 10 10 9 15 19 20 20 18 16 16 15 12 8 5 2 0 3 7 10 13 15 19 19 21 23
7 6 5 7 5 1 3 3 1 3 4 5 10 11 15 14 12 11 9 9 8 11 15 19 20 19 15 12 13 14 10 7 4 1 2 6 10 13 13 16 17 20 21 22
4 7 2 5 4 4 5 3 1 5 8 9 9 11 11 14 10 10 9 8 7 11 12 19 19 17 15 12 12 11 9 6 3 3 6 9 11 12 15 18 18 21 23 22
2 7 6 2 2 3 1 4 7 10 11 11 9 9 11 12 9 9 8 7 8 13 14 16 17 17 16 12 11 9 7 4 4 5 7 9 10 15 17 19 19 21 22 21
4 6 5 4 10 4 6 8 9 13 11 10 14 10 8 9 9 8 7 9 13 13 14 12 13 19 15 13 11 7 4 3 4 6 7 10 12 17 19 21 24 20 19 22

GFSCGP_925_spd_015.txt.gz
Wind_Speed
6 7 12 13 14 6 8 10 12 8 10 11 20 16 17 14 11 9 9 6 9 9 8 14 12 9 13 13 14 19 28 31 31 31 30 28 26 23 19 17 14 13 13 12
7 17 14 9 11 10 12 13 20 14 15 11 14 22 20 15 14 11 10 8 11 9 8 9 14 14 15 14 16 20 23 25 27 27 25 26 25 21 19 17 15 13 12 12
17 4 17 14 13 13 16 16 16 16 16 17 10 15 22 12 18 13 9 8 16 19 14 9 10 16 18 20 22 24 27 28 27 26 26 27 25 22 19 15 14 12 11 11
14 19 12 14 17 13 16 16 16 16 11 11 4 9 16 18 14 13 11 12 16 13 10 11 11 14 18 18 21 24 27 29 28 27 29 30 27 22 16 14 11 10 9 11
8 9 16 19 21 14 15 10 12 12 16 14 19 7 8 11 19 15 12 15 18 17 18 16 14 20 19 21 22 23 23 25 26 27 25 24 22 19 17 14 11 8 7 9
17 2 4 11 15 14 2 4 9 9 11 12 18 11 5 9 17 21 8 15 17 16 14 13 21 25 22 22 24 26 27 25 25 25 24 23 22 20 18 14 12 8 5 6
4 11 3 2 3 4 6 5 5 5 8 13 15 9 16 7 12 18 18 20 19 17 17 16 16 15 22 24 24 24 26 25 25 24 22 20 18 17 15 12 9 7 5 7
5 5 12 9 15 7 11 13 6 8 7 8 10 10 10 15 9 10 17 22 20 17 16 16 15 18 22 25 24 24 25 24 23 22 20 18 16 15 13 10 8 7 7 6
6 6 3 5 8 17 7 10 21 6 4 2 6 9 3 2 8 16 18 19 19 17 17 16 14 21 24 25 26 26 25 23 21 20 18 17 15 13 12 9 7 6 6 6
2 5 3 12 12 12 11 10 9 4 5 7 7 5 5 5 12 15 19 19 17 16 15 15 14 20 25 25 26 25 23 22 20 19 17 16 14 11 9 7 7 6 5 6
7 5 3 2 8 17 9 10 8 5 6 2 5 5 6 11 14 17 17 18 18 18 16 15 14 22 26 27 28 26 23 22 20 18 16 15 13 10 7 6 5 5 6 8
10 4 5 14 11 10 15 11 9 5 6 10 4 4 2 10 10 14 16 17 16 16 15 14 14 20 23 27 28 27 25 21 19 18 15 14 12 8 6 4 4 6 7 9
8 4 4 4 6 5 16 15 14 15 11 8 4 3 3 8 8 9 14 13 14 15 15 14 13 13 20 23 27 26 24 21 19 17 15 13 10 7 4 3 4 6 8 11
13 6 7 3 2 5 8 19 12 10 5 3 2 6 3 5 8 8 12 15 16 17 17 14 13 12 19 23 27 25 24 22 19 17 15 11 8 5 2 3 5 7 10 12
4 5 5 13 17 12 11 13 17 22 12 4 4 6 8 9 9 9 11 14 15 15 16 16 16 13 17 22 26 25 25 22 19 17 13 9 6 3 2 4 6 8 11 14
9 4 8 7 8 14 11 13 17 10 5 3 5 3 4 4 6 7 13 17 17 15 15 13 14 14 17 22 25 28 25 21 18 15 11 8 5 2 2 5 7 10 13 15
6 3 5 3 11 7 1 18 9 5 1 4 3 5 4 5 9 9 9 14 15 13 13 14 15 14 19 24 31 29 25 21 17 14 10 7 4 2 3 6 8 11 14 17
6 1 3 4 4 1 4 2 6 8 4 6 3 5 2 8 5 7 2 10 12 13 13 13 11 16 22 28 30 29 25 21 17 13 9 6 3 1 4 7 9 12 16 18
5 3 2 1 2 5 3 2 4 7 7 7 9 5 11 7 7 9 8 5 6 8 8 10 19 25 28 31 31 28 22 19 15 12 9 5 1 3 5 8 12 14 18 20
6 4 3 3 1 3 3 3 2 1 3 3 2 9 13 6 5 4 3 10 12 12 17 20 25 28 31 29 29 26 22 18 14 10 7 3 1 4 7 10 13 16 18 21
4 2 4 1 2 7 5 3 3 3 4 4 3 7 10 5 2 9 8 11 12 16 20 25 24 24 28 27 25 23 19 15 11 8 5 2 2 5 8 11 14 18 21 22
4 5 3 3 2 6 4 2 3 3 2 4 6 8 15 15 15 13 12 11 12 13 17 23 22 23 23 22 23 21 16 13 9 6 3 1 3 6 8 11 17 20 20 21
4 6 5 7 5 2 3 2 1 3 4 3 9 9 17 16 13 12 10 10 9 13 16 20 22 22 17 20 20 18 15 11 8 5 2 1 4 6 9 15 17 19 20 23
3 3 3 3 4 3 3 2 3 4 6 8 11 12 14 16 12 12 10 9 8 13 15 19 22 19 18 17 15 15 13 9 7 4 1 2 5 9 13 16 16 18 22 24
4 8 6 2 2 2 0 2 6 8 10 12 9 11 13 15 11 11 10 8 8 13 17 21 20 19 18 17 16 13 10 8 6 3 1 4 8 12 15 15 17 19 18 19
4 6 5 5 8 5 4 8 9 12 10 11 15 10 7 11 11 10 8 9 12 14 18 18 19 19 17 16 14 11 9 7 4 2 4 7 10 13 13 18 22 20 16 18

GFSCGP_925_spd_018.txt.gz
Wind_Speed
1 3 10 13 13 7 5 6 7 4 4 7 13 18 17 13 12 10 12 8 8 9 6 13 12 11 13 11 12 16 22 29 34 33 30 30 27 24 21 17 16 14 11 9
4 12 12 8 10 9 11 12 15 8 9 10 10 16 16 16 18 14 16 9 9 6 6 7 11 13 14 15 15 22 28 31 33 32 28 28 28 22 21 19 16 13 11 10
17 6 13 13 12 10 15 17 11 9 10 18 13 21 14 16 17 13 14 8 10 17 13 8 8 15 17 18 21 27 29 30 31 30 30 29 26 25 23 18 17 13 10 10
13 15 8 12 15 11 16 10 13 11 7 7 2 11 9 12 18 14 18 9 13 13 7 6 8 13 22 22 23 27 29 30 29 30 31 32 28 25 21 18 16 13 10 8
8 8 19 20 17 14 9 8 9 8 8 8 18 10 10 12 13 18 23 12 15 18 17 15 12 19 25 25 27 30 31 31 29 28 29 28 28 23 21 18 15 11 8 7
8 1 8 9 14 14 3 7 5 3 4 9 19 12 13 13 15 12 13 13 15 17 12 9 12 21 25 27 28 29 30 28 26 27 27 27 26 25 22 17 14 9 6 5
5 16 5 3 5 11 11 4 3 3 6 10 6 12 20 9 11 15 18 14 14 17 16 15 15 14 21 29 30 29 30 29 28 27 26 25 24 22 19 16 13 9 4 3
8 4 16 9 11 5 15 14 4 6 3 5 8 10 6 16 26 17 11 15 18 18 16 17 15 18 21 28 31 30 30 29 29 28 26 23 22 20 17 14 11 7 4 3
5 4 4 7 9 12 4 9 20 6 5 5 6 4 8 13 10 9 15 18 21 20 19 17 14 19 22 28 30 33 32 30 29 28 26 23 21 18 16 12 9 5 3 3
6 3 5 5 6 7 8 5 5 4 6 5 4 5 10 13 13 8 15 19 18 17 17 14 14 18 21 28 31 30 30 30 27 26 24 22 19 16 13 10 7 4 3 3
6 5 2 4 9 12 6 11 7 7 7 3 4 6 9 13 10 14 14 18 20 19 17 16 13 18 22 29 30 29 28 27 25 24 22 21 18 15 12 8 6 3 2 4
11 4 8 18 4 10 19 20 19 6 7 9 6 7 3 9 13 16 16 16 15 16 16 14 14 19 22 25 29 29 27 27 24 22 21 19 17 13 10 6 4 2 3 5
10 5 4 4 8 12 12 19 20 15 5 6 4 6 7 6 8 10 15 13 14 14 14 13 12 13 19 21 27 29 27 26 24 22 20 18 15 11 7 5 2 3 5 7
12 3 6 9 3 9 8 23 22 21 10 8 9 17 22 6 10 8 9 13 15 15 16 13 12 12 18 22 26 29 26 25 24 21 19 16 12 9 6 3 2 4 6 8
8 6 9 15 18 12 17 24 22 22 6 8 9 14 15 9 11 12 11 12 14 14 15 15 14 12 16 20 25 28 27 26 24 21 17 14 11 7 5 2 3 4 6 9
4 5 4 6 10 16 16 20 17 14 5 5 21 27 5 4 7 8 13 15 15 15 15 14 14 13 16 22 23 28 28 25 23 20 16 13 9 6 3 1 3 6 9 12
4 3 4 5 5 8 6 18 20 14 12 15 14 23 5 4 6 8 10 15 17 16 16 16 16 14 19 22 30 30 29 26 22 18 15 12 8 5 2 2 5 8 11 15
6 6 4 1 1 3 3 19 24 22 21 24 23 1 3 5 5 6 4 9 11 14 14 13 12 16 20 26 29 32 28 25 21 18 14 10 7 4 1 3 6 9 13 15
8 3 3 2 2 5 2 5 8 15 10 7 7 4 5 6 4 6 6 1 5 7 9 12 20 23 27 30 32 31 27 23 20 17 13 9 5 2 2 5 8 11 14 16
2 3 2 3 2 2 3 1 1 3 3 3 6 9 9 6 4 3 4 3 10 10 15 19 24 28 30 28 33 30 26 22 18 15 11 7 4 2 3 7 10 12 14 16
3 2 4 2 3 7 5 3 1 3 4 2 1 7 9 6 2 8 7 9 9 14 21 24 24 24 28 33 30 26 23 19 16 13 9 6 3 2 5 7 11 13 15 17
5 5 3 2 1 6 3 4 2 3 2 2 1 3 8 12 13 11 10 11 13 14 18 22 24 23 28 28 26 24 21 17 14 11 8 5 3 3 5 9 12 13 15 19
3 5 5 7 5 2 3 2 2 1 3 2 5 9 17 15 12 11 10 11 10 13 17 20 24 25 23 21 23 23 18 15 13 10 7 4 3 4 7 9 12 15 18 19
3 2 3 1 1 2 2 1 2 3 4 7 9 11 13 18 12 11 10 10 10 13 16 21 23 19 19 19 18 20 17 13 11 9 6 3 3 5 7 8 12 15 16 18
4 6 5 5 3 1 4 2 5 7 10 11 9 9 14 17 12 12 10 9 9 13 17 21 20 20 20 19 19 16 14 12 10 7 4 3 3 6 9 12 13 14 15 16
5 6 5 6 7 5 3 8 8 11 9 9 14 10 7 11 13 10 8 9 13 15 20 20 21 23 20 19 17 14 11 9 7 6 3 2 5 8 10 14 18 18 13 15

GFSCGP_925_spd_021.txt.gz
Wind_Speed
2 5 9 13 8 5 5 6 7 4 7 5 9 15 13 9 11 16 10 10 10 9 6 11 14 13 13 14 16 16 23 28 33 33 32 30 30 24 21 18 16 14 12 10
2 12 8 6 7 9 12 16 16 7 8 8 11 21 16 14 15 13 15 14 14 6 6 7 11 13 15 16 16 19 23 31 34 35 32 33 33 25 23 20 18 16 13 10
12 3 10 8 9 10 11 14 14 13 7 11 11 28 21 17 16 17 19 15 14 12 10 8 9 17 16 17 18 22 27 32 33 34 32 32 26 27 24 20 19 16 12 10
11 13 13 11 12 10 18 9 13 11 5 6 3 10 8 5 15 18 18 15 12 11 8 7 7 12 21 19 21 24 28 31 32 34 36 35 31 24 22 21 19 15 11 9
7 5 12 18 13 10 9 6 8 8 7 7 13 8 5 10 18 17 9 13 12 11 14 12 13 19 24 23 25 27 30 31 32 32 35 31 30 25 26 22 19 15 11 8
8 4 6 8 15 13 2 7 6 4 5 12 11 11 16 11 15 10 8 14 13 11 12 9 10 18 22 24 28 30 32 31 30 29 29 29 31 32 28 23 19 14 10 7
3 13 3 4 6 9 13 6 3 5 7 8 4 11 20 8 8 13 15 15 13 12 12 14 14 12 20 27 30 32 33 29 26 25 25 28 31 30 27 22 18 13 9 6
6 6 14 10 9 6 18 14 4 6 5 4 14 12 10 15 22 19 16 9 7 13 16 18 17 16 20 26 30 29 32 29 27 27 26 26 26 25 21 18 15 11 7 5
2 5 5 10 6 11 5 12 17 5 3 4 5 8 8 10 12 13 16 11 12 15 16 18 16 18 21 26 29 33 32 30 29 28 27 25 24 22 20 17 13 10 7 4
5 5 4 5 7 10 8 5 5 6 4 6 6 6 11 5 13 16 10 13 11 14 15 15 14 19 20 26 29 30 31 32 30 29 27 25 23 20 17 15 12 8 6 3
6 4 2 4 11 13 11 10 4 2 4 4 4 6 6 12 12 10 10 9 16 18 18 16 14 19 22 28 29 30 31 32 30 29 27 25 22 19 16 12 9 6 4 2
9 3 7 15 4 12 16 15 16 5 6 6 5 9 5 8 11 8 7 9 10 12 13 15 14 19 22 24 28 30 31 31 29 27 26 23 20 17 14 10 8 5 4 3
10 5 4 3 7 14 8 13 15 16 4 12 7 11 6 15 19 6 11 12 12 13 14 13 13 13 17 21 26 29 30 29 27 27 25 22 18 15 12 9 7 4 3 3
12 4 8 9 3 4 10 16 20 17 11 13 15 21 22 18 18 7 2 12 14 13 14 13 12 11 16 20 25 29 29 29 27 25 23 20 16 13 10 8 5 4 4 5
8 6 10 17 20 13 7 19 20 23 27 17 15 14 11 17 15 7 3 10 14 14 13 13 14 12 15 19 23 28 29 28 27 24 21 18 15 12 10 7 5 4 4 7
5 4 3 17 21 20 12 17 20 23 21 22 14 16 13 21 8 2 8 12 14 13 13 13 13 13 13 20 23 28 30 29 26 24 20 17 14 11 8 6 4 3 5 8
4 3 3 5 4 8 7 18 23 21 20 18 12 12 12 24 16 11 11 13 15 15 15 15 15 14 19 22 29 29 32 29 25 22 19 16 13 11 7 4 3 5 6 9
6 4 2 4 3 2 4 5 14 18 12 8 5 10 14 15 15 5 4 9 11 13 13 12 12 16 21 27 29 31 30 28 24 21 18 15 12 9 6 4 3 4 8 11
7 2 3 3 3 2 4 6 9 11 13 12 14 17 19 9 1 7 3 3 6 8 9 11 19 22 27 29 32 32 29 26 23 20 17 14 11 8 5 3 4 6 9 11
4 6 2 3 4 3 2 5 8 8 6 18 23 22 21 6 7 4 3 3 7 10 16 19 23 26 28 28 33 32 28 25 22 19 16 12 9 7 5 4 4 7 9 12
3 2 3 2 3 7 3 2 9 6 5 2 13 18 16 14 2 5 7 9 7 11 18 24 23 22 26 31 33 28 26 22 20 17 14 11 8 6 4 3 5 8 11 14
5 4 3 3 1 5 3 1 3 2 0 2 3 7 7 8 8 9 10 10 11 13 16 21 23 22 26 30 31 26 23 21 19 16 13 10 8 5 3 5 7 9 12 14
3 5 3 6 5 4 3 2 2 2 1 0 3 5 14 12 9 10 10 11 11 12 17 20 25 25 26 26 27 27 23 20 18 15 12 9 6 4 4 7 10 13 13 14
4 3 2 1 2 4 2 2 2 4 3 5 7 9 10 15 10 11 11 10 11 13 17 23 25 21 21 21 23 25 21 18 16 14 11 8 5 3 5 7 9 11 13 15
4 5 4 4 5 4 4 2 5 6 8 10 9 6 12 16 11 11 11 10 10 15 18 21 21 20 22 22 23 20 18 16 14 12 9 5 3 4 6 8 9 11 12 13
5 6 4 5 3 1 2 6 6 7 7 7 13 11 8 10 13 12 10 10 13 15 20 21 23 26 23 23 20 17 14 12 12 10 6 4 4 5 7 10 13 11 10 13

GFSCGP_925_spd_024.txt.gz
Wind_Speed
2 5 7 10 7 3 1 5 11 6 8 8 13 18 17 11 10 12 14 14 10 10 12 17 16 15 16 16 13 13 20 26 33 34 32 29 31 28 25 22 19 17 16 14
1 10 7 5 5 7 8 10 13 13 13 11 12 24 18 16 18 16 14 16 12 10 6 8 10 14 18 18 17 17 23 30 34 35 32 31 33 28 26 22 19 18 17 15
7 3 7 10 5 7 9 10 8 12 8 13 14 28 19 21 23 22 20 20 17 13 12 8 8 19 19 18 20 21 25 32 33 34 33 34 27 29 27 24 22 18 16 14
9 11 7 5 6 8 14 8 13 13 6 7 3 10 8 9 16 12 17 15 15 13 9 8 8 11 23 23 19 21 26 31 32 36 39 43 33 26 22 29 24 20 15 13
6 5 7 15 16 7 5 6 9 10 8 8 9 6 5 5 8 8 9 11 13 14 15 12 12 21 25 22 22 22 26 30 33 37 40 38 30 21 32 28 25 19 16 12
11 4 4 6 8 11 3 5 4 3 7 10 13 10 15 8 13 8 16 14 14 14 13 12 12 19 22 21 23 25 28 30 33 35 36 36 35 35 33 27 24 20 16 12
4 15 4 3 4 7 10 2 2 5 6 8 7 11 23 5 8 9 13 12 11 10 9 10 12 12 20 26 28 29 31 31 32 32 33 29 30 35 34 30 25 20 15 12
4 5 12 11 14 7 15 11 5 4 4 4 6 8 8 11 19 21 18 11 7 7 8 12 14 14 22 25 30 29 32 33 29 29 27 28 31 32 29 24 20 16 13 10
3 4 2 7 8 8 5 10 13 6 4 4 5 8 9 11 9 11 13 14 14 8 8 11 12 16 23 25 28 33 33 32 28 27 27 28 29 29 26 21 17 16 12 10
2 6 6 4 8 9 7 1 3 5 4 4 6 7 11 10 11 12 13 10 10 8 10 10 10 12 17 24 30 32 33 32 29 28 30 30 29 26 23 20 17 14 12 9
5 4 1 5 10 12 8 5 6 2 4 4 4 6 5 7 3 14 19 13 10 13 14 13 12 14 19 23 29 32 32 33 31 31 30 30 27 25 22 19 16 13 10 7
9 3 6 14 5 14 14 10 15 6 5 4 4 13 5 2 7 14 19 10 5 8 10 11 12 17 22 23 26 29 32 34 32 31 30 28 26 23 21 18 15 11 9 7
10 5 4 4 1 6 10 16 18 15 1 10 5 8 9 2 12 11 11 6 5 7 8 11 12 12 15 20 24 26 31 34 32 32 30 27 25 22 19 16 13 10 8 5
12 4 9 12 13 4 7 16 17 16 9 19 21 15 19 13 12 11 12 2 3 6 8 9 11 12 17 19 23 26 30 34 33 31 29 26 23 20 17 15 12 9 6 4
8 8 13 22 22 13 11 13 15 19 22 11 16 21 16 6 8 7 11 5 6 10 9 10 11 11 14 20 23 27 32 33 32 30 27 24 21 19 17 14 11 8 5 4
4 6 7 19 18 18 16 15 17 24 21 21 22 24 5 4 7 11 15 8 10 9 10 9 11 12 12 20 22 26 31 32 30 28 25 23 21 18 15 12 10 7 4 4
4 3 3 8 6 5 3 16 19 16 21 19 18 23 13 17 12 15 11 9 9 9 12 13 13 12 17 21 28 28 33 31 28 27 24 22 19 17 13 11 8 5 3 5
5 3 3 5 7 3 5 5 15 19 13 18 20 11 8 11 7 8 9 10 9 10 11 10 10 14 19 26 28 32 32 29 27 25 23 20 18 15 12 9 6 4 4 7
13 4 4 3 5 5 6 1 4 8 10 17 20 19 15 1 7 7 4 4 8 9 10 9 16 20 25 29 32 33 30 28 26 24 21 19 16 14 11 8 5 3 6 8
3 2 3 3 4 4 3 5 5 5 4 13 14 15 7 4 3 3 8 5 8 12 16 17 21 25 27 27 33 32 28 27 25 23 20 17 14 12 9 6 4 5 6 8
3 3 7 4 3 7 4 3 5 2 3 6 12 15 6 4 1 2 5 9 7 10 16 22 21 20 25 31 33 27 28 25 24 22 19 16 13 11 8 5 4 5 8 11
6 4 3 2 2 4 3 3 1 3 3 3 3 6 7 7 7 7 8 8 8 10 14 19 22 21 24 30 33 27 25 25 24 22 19 16 12 9 6 4 5 7 9 11
3 5 3 6 5 3 3 4 5 2 3 3 3 1 8 8 5 8 5 7 7 9 16 19 23 24 25 27 32 29 26 26 24 21 17 14 11 7 5 5 6 8 10 12
3 3 2 3 3 5 4 4 0 4 3 3 3 6 6 11 10 10 8 8 9 11 15 21 24 21 21 25 26 30 27 24 21 19 15 12 8 5 4 5 7 9 12 13
4 4 3 5 7 5 5 2 4 5 6 8 10 9 11 16 12 10 10 10 10 15 17 20 22 21 23 28 28 26 24 21 19 17 13 9 6 3 4 6 7 11 11 11
5 6 4 4 3 2 1 5 6 6 6 7 14 13 9 10 13 12 10 10 14 16 20 22 23 27 27 29 25 21 18 16 17 15 10 7 4 3 6 9 10 9 10 11

GFSCGP_925_spd_027.txt.gz
Wind_Speed
2 5 8 11 6 4 1 3 11 7 8 11 15 22 19 18 17 18 17 17 16 13 14 19 24 20 18 19 19 18 20 25 28 33 33 28 27 27 27 28 26 24 20 19
3 10 9 8 5 10 11 13 15 11 9 11 14 27 18 19 21 19 21 19 18 16 13 12 17 18 18 21 21 19 21 26 29 30 26 28 30 26 30 29 25 23 20 19
6 4 5 8 5 12 10 13 12 17 9 14 17 24 16 16 21 20 21 21 20 20 18 16 13 18 21 21 24 22 24 27 30 33 33 31 28 29 26 26 25 21 20 19
6 8 4 4 8 10 16 6 10 11 6 7 2 10 7 7 14 13 12 14 18 20 19 18 15 15 22 28 25 22 24 30 32 35 37 44 31 27 22 32 28 24 20 18
4 5 5 12 12 9 7 5 6 8 8 11 14 7 7 1 5 8 10 14 15 16 17 19 16 22 26 27 28 26 26 29 33 36 39 38 27 23 32 31 29 24 22 17
7 3 5 8 7 14 1 3 4 3 5 9 11 11 20 7 8 5 9 11 11 13 14 17 18 20 18 26 25 26 29 30 33 36 35 36 39 36 36 34 31 26 23 19
3 15 6 4 5 3 12 2 3 4 6 7 5 11 19 9 16 15 13 13 13 12 12 11 10 11 16 24 27 27 29 29 32 35 34 34 37 39 43 39 35 30 25 20
4 4 11 9 13 6 14 11 5 5 5 3 2 9 8 14 15 14 13 16 16 11 10 12 14 12 20 25 29 27 29 29 31 30 30 31 34 34 35 35 33 27 24 20
3 4 2 7 3 11 5 10 10 9 12 9 9 12 10 13 9 3 7 10 13 12 10 12 12 16 20 23 28 32 31 30 31 32 33 31 32 34 35 32 28 25 22 19
1 5 3 1 5 9 9 1 4 5 5 9 6 6 10 5 5 3 9 14 13 10 10 10 11 13 19 20 22 27 31 33 32 31 30 30 32 35 33 29 27 23 20 17
4 4 3 4 9 10 8 7 7 3 4 5 7 8 7 6 6 3 9 13 13 14 11 11 11 14 18 20 23 26 32 35 32 33 34 36 36 33 30 27 24 21 18 15
7 3 5 11 10 15 19 19 17 7 11 5 4 18 4 6 4 5 9 12 10 11 6 6 10 14 20 21 21 24 29 32 33 35 38 38 35 32 29 25 22 19 17 13
8 4 5 6 2 6 10 18 19 12 4 13 6 11 4 2 5 6 7 10 8 7 4 6 9 11 15 22 22 24 27 32 35 37 39 37 34 31 27 24 20 17 15 13
10 4 7 9 15 9 8 14 19 18 7 17 19 21 15 15 13 11 6 9 7 4 1 5 9 11 15 19 24 24 27 34 36 36 36 35 32 29 26 22 19 16 13 11
9 7 10 19 26 23 24 25 17 20 24 11 19 21 16 13 12 2 3 9 9 6 5 6 9 11 15 19 22 25 30 35 36 36 34 32 29 27 24 21 18 15 11 9
5 5 4 21 21 22 19 16 15 20 21 23 23 26 12 6 5 2 6 11 13 9 8 8 10 13 14 20 22 25 29 33 36 34 32 30 28 25 22 19 16 13 10 7
4 3 3 13 10 17 5 5 9 11 16 14 17 17 2 5 10 12 10 13 16 12 11 12 13 13 16 21 26 27 30 35 34 33 30 28 26 24 20 17 14 11 8 5
6 2 3 8 9 4 3 2 8 15 14 17 18 13 6 7 8 15 16 16 10 10 12 12 11 14 19 23 26 31 32 32 32 30 29 26 24 22 19 15 12 9 6 4
13 6 4 4 7 8 1 6 1 4 6 18 18 17 16 10 5 7 5 5 6 10 11 12 19 20 23 25 30 32 29 30 30 28 27 25 23 21 17 13 10 7 5 3
5 11 3 3 4 4 3 4 2 5 3 5 12 12 7 5 2 2 8 5 7 11 16 19 23 24 24 24 31 31 26 26 24 27 25 22 20 18 15 12 8 6 4 4
4 3 8 7 4 7 5 5 2 2 4 5 3 6 6 3 2 2 2 6 8 10 18 22 22 22 23 28 32 26 24 21 27 26 24 21 17 15 12 10 6 4 3 5
6 5 4 2 3 6 2 2 2 3 5 2 2 2 5 7 8 6 6 7 10 11 15 19 22 21 22 28 32 24 23 27 28 26 24 20 16 13 10 7 5 3 5 7
2 5 3 6 5 4 3 5 2 1 4 5 3 1 9 9 5 7 8 10 10 11 14 18 23 24 22 24 31 29 28 30 28 25 22 18 15 11 8 5 4 4 7 8
3 3 2 3 4 5 5 2 1 4 2 4 1 3 4 9 8 9 10 9 11 13 15 19 23 22 21 26 29 33 31 28 26 23 19 16 12 9 6 4 4 6 7 8
3 3 3 5 7 6 8 3 4 3 4 7 7 6 10 13 9 10 11 11 11 14 16 18 21 23 23 30 31 30 28 25 23 20 17 13 9 6 4 4 5 7 8 9
5 6 4 5 3 3 3 2 3 4 3 6 9 12 11 12 13 13 11 12 15 16 19 21 23 27 25 31 29 25 22 20 21 18 13 10 7 4 4 4 6 6 8 9

GFSCGP_925_spd_030.txt.gz
Wind_Speed
7 6 11 14 13 12 4 7 10 9 9 18 21 24 22 22 23 23 23 22 22 22 19 21 22 19 18 19 18 17 16 17 19 22 25 24 23 19 18 26 26 27 25 24
6 11 12 7 10 12 14 16 17 15 13 12 20 33 25 27 29 26 25 24 24 24 23 22 25 25 21 20 19 19 19 19 22 21 22 20 19 14 19 25 22 26 26 22
8 2 4 13 12 13 15 16 15 18 17 18 21 27 16 8 11 15 21 24 23 24 23 22 22 28 25 22 20 20 20 20 22 21 20 19 17 19 20 25 25 25 24 21
9 10 6 9 12 12 15 8 13 14 11 8 2 11 17 15 13 12 12 14 17 18 21 23 22 24 29 26 22 20 21 23 24 26 23 26 23 22 20 22 29 27 23 22
3 6 11 13 15 10 7 6 7 9 12 14 17 7 11 3 11 10 14 14 14 14 17 20 21 27 28 26 23 22 22 23 24 27 25 27 23 21 23 21 25 28 24 19
10 2 5 8 10 13 0 7 10 11 8 9 18 15 20 14 10 8 7 11 12 12 13 15 21 23 25 24 21 23 26 26 25 26 25 28 30 29 28 26 30 30 21 17
5 16 8 7 7 7 11 3 3 4 6 8 2 11 22 6 6 13 21 14 14 15 17 15 15 15 19 22 22 25 26 26 26 26 27 27 27 29 32 34 35 31 23 18
3 3 13 12 15 6 13 13 6 6 6 8 2 12 8 9 10 12 8 9 11 14 13 14 15 14 20 23 25 26 27 25 27 27 26 25 29 27 28 30 34 22 20 17
5 5 2 11 7 12 5 10 13 13 21 13 13 22 25 25 22 15 9 5 10 12 13 13 14 13 19 22 27 28 27 25 27 27 25 25 30 30 34 31 25 23 18 18
2 4 6 2 7 11 10 0 4 6 6 11 14 17 13 9 3 9 2 7 12 13 13 11 10 12 17 21 25 24 24 25 27 27 26 25 29 34 33 32 26 20 19 17
7 5 3 4 13 14 9 6 6 8 9 7 14 12 2 11 12 5 2 6 9 12 14 12 7 8 13 17 22 23 24 27 27 26 26 28 32 32 30 25 22 20 18 16
11 4 8 14 10 13 15 16 20 9 12 10 17 20 6 3 8 4 7 8 9 9 11 11 7 5 11 17 21 24 24 25 25 25 27 32 34 31 26 23 20 19 18 15
11 6 4 4 3 6 9 16 23 19 13 19 10 14 3 8 13 8 6 10 10 10 10 8 3 5 10 17 20 23 24 24 25 28 33 33 31 27 24 22 20 18 17 14
11 5 8 9 11 5 10 18 13 17 12 22 21 33 23 15 15 15 17 11 9 6 7 6 2 5 10 17 21 23 22 24 28 31 32 31 27 26 23 21 19 17 15 13
8 5 10 18 24 21 23 26 25 18 24 16 29 23 25 17 18 18 16 8 9 6 5 1 3 6 10 16 20 22 24 25 28 31 30 27 25 24 22 20 17 15 13 11
7 5 5 15 22 21 20 21 20 17 18 19 27 28 25 22 19 14 12 11 12 7 8 4 6 9 12 18 20 23 26 26 28 26 27 26 24 23 21 18 16 14 12 9
5 3 3 6 15 25 6 5 8 7 9 10 15 20 14 13 8 10 11 12 11 10 10 8 10 11 14 18 23 25 27 28 26 25 24 23 23 22 19 17 15 12 10 8
5 4 2 7 15 4 2 11 12 10 14 12 18 18 15 12 8 10 10 13 16 13 7 10 11 14 17 21 23 28 28 26 25 23 23 21 21 20 18 15 13 10 8 6
14 9 4 4 5 12 7 8 5 2 6 12 9 13 10 8 7 11 6 7 7 4 11 12 19 21 22 23 26 27 25 25 24 23 22 20 20 19 16 14 11 8 6 4
11 13 7 3 4 4 2 5 5 2 3 11 8 9 9 3 4 3 9 8 10 11 15 18 22 23 24 23 25 26 25 23 22 21 21 19 17 17 14 12 9 7 5 3
4 3 9 7 4 8 4 5 1 5 7 13 8 7 3 1 4 5 7 9 10 13 19 21 21 21 22 24 25 24 23 21 21 21 20 18 15 15 13 10 8 6 3 1
7 6 5 5 5 5 2 3 3 3 7 10 5 3 5 8 6 6 9 8 11 13 15 17 20 19 20 23 25 24 22 21 22 22 19 17 15 13 11 9 6 4 2 2
4 5 2 5 4 1 3 8 5 4 8 6 5 1 10 9 4 6 9 10 11 11 16 18 22 21 19 19 21 25 22 23 23 20 18 16 13 11 9 7 4 2 3 4
5 5 4 3 3 5 3 2 0 3 3 3 3 3 9 9 10 10 9 10 10 13 16 21 23 21 20 19 20 26 24 22 21 20 17 14 12 10 7 4 3 2 3 4
2 5 4 6 11 7 3 2 2 3 4 5 5 4 8 13 12 12 11 10 11 15 18 20 21 22 22 22 22 22 21 20 20 18 15 12 10 7 5 3 1 2 3 4
6 5 4 4 2 2 3 3 4 4 6 7 10 11 10 11 13 14 12 13 15 17 20 22 23 24 23 22 21 18 17 17 18 17 12 10 8 5 3 1 2 4 3 5

GFSCGP_925_spd_033.txt.gz
Wind_Speed
8 8 13 17 17 15 9 9 11 10 8 16 21 22 20 20 21 22 21 21 22 22 20 24 24 25 30 33 31 29 27 24 23 23 24 23 22 21 21 21 19 19 21 21
5 12 15 11 10 11 13 13 15 14 11 12 18 28 25 27 28 24 24 24 24 24 23 23 28 29 31 31 32 30 28 25 25 24 24 23 23 20 18 16 17 19 22 22
11 2 4 14 11 12 13 12 11 14 17 18 21 25 17 10 12 17 22 24 25 25 24 23 24 30 30 32 31 30 29 26 26 24 23 20 23 20 16 21 23 22 21 21
10 8 5 10 13 11 12 8 8 10 8 6 4 11 15 16 16 13 12 14 15 17 19 21 22 22 30 31 29 28 27 26 26 26 26 29 27 22 17 28 29 27 23 25
4 6 12 12 12 8 6 3 6 8 10 13 14 7 13 5 9 11 13 13 12 13 14 16 17 23 26 26 28 27 24 25 25 28 26 27 21 20 22 27 30 25 24 23
10 3 5 9 7 10 4 4 7 9 5 8 14 16 19 11 16 16 12 16 5 9 9 11 15 18 22 25 22 26 25 26 26 27 26 27 24 25 28 29 27 26 22 21
10 16 8 10 8 6 7 1 2 3 4 7 6 9 18 17 16 7 6 10 11 10 12 13 16 14 17 20 25 22 25 26 28 27 26 26 26 28 29 33 27 27 24 22
8 6 17 12 14 5 12 9 4 5 7 11 11 10 8 8 6 6 11 13 12 12 9 11 14 13 16 19 22 24 26 26 27 27 26 25 26 25 26 26 27 26 25 22
6 3 1 10 7 11 5 8 10 13 18 11 9 20 22 24 23 20 18 15 12 8 10 11 13 13 18 19 23 25 26 26 26 27 25 24 24 26 29 27 27 27 23 23
2 3 6 6 6 9 11 3 2 4 5 11 11 19 14 13 16 11 5 6 8 8 10 11 12 11 16 18 22 25 27 26 26 26 25 24 23 28 29 28 31 29 23 21
7 4 5 3 11 13 10 7 6 6 7 6 14 11 8 12 8 12 11 7 6 9 10 11 11 10 11 14 19 24 24 25 26 26 25 25 24 29 30 31 29 24 23 22
8 3 6 12 9 9 13 13 17 7 8 6 11 19 16 12 14 4 7 9 6 7 10 9 9 6 5 11 17 22 23 25 25 25 25 24 28 32 30 31 25 26 24 18
10 5 3 2 3 12 11 16 17 18 14 20 15 16 2 6 10 17 15 12 10 6 9 9 6 2 4 9 15 19 23 25 24 25 26 26 29 30 32 28 25 24 21 17
5 5 8 7 6 5 6 15 16 12 8 17 22 31 27 24 20 21 16 19 17 9 7 6 3 2 5 11 15 19 21 23 24 25 27 28 28 31 31 27 26 23 18 15
5 4 11 16 20 18 19 22 22 18 19 14 28 26 28 23 22 13 16 14 12 9 6 2 2 4 6 11 17 20 20 22 25 28 29 29 29 28 27 25 23 23 20 15
5 4 4 12 19 16 16 22 16 15 17 16 21 26 24 20 16 11 15 13 12 12 10 3 5 7 9 13 17 20 22 24 28 28 30 31 29 28 24 25 21 21 18 13
5 3 3 6 12 20 7 2 8 11 13 11 10 18 15 14 13 10 7 9 12 11 6 5 8 9 12 15 18 20 25 28 29 30 28 28 28 27 26 21 19 18 16 11
5 6 3 6 12 3 1 5 8 8 12 8 16 16 13 11 13 11 7 9 12 12 11 9 9 12 16 19 21 25 26 28 32 30 29 25 24 26 22 18 15 15 12 9
12 6 3 3 6 15 8 5 4 2 5 7 10 11 8 5 5 4 9 9 8 9 10 11 19 19 21 23 25 26 28 28 27 25 24 22 21 24 22 17 15 12 10 7
10 12 5 3 4 4 4 5 1 2 2 10 11 11 8 2 3 3 9 9 11 13 15 18 21 23 25 24 25 27 26 27 24 21 21 20 19 20 19 16 13 10 8 5
4 2 8 8 5 9 9 5 1 5 7 12 11 8 6 5 4 3 7 11 11 13 18 22 22 21 23 25 26 24 23 22 24 22 22 20 18 19 17 14 11 8 6 3
8 7 4 4 4 7 3 4 4 7 10 8 5 3 4 6 8 9 9 10 11 11 15 20 21 21 23 24 25 24 23 23 25 24 22 21 19 16 14 13 10 7 4 1
5 7 1 8 5 6 6 9 10 7 9 7 4 3 5 4 5 7 10 9 10 10 14 18 22 23 22 22 23 27 23 24 25 25 21 18 16 14 12 10 7 4 1 2
6 6 4 3 3 7 11 8 3 5 5 4 1 2 6 6 8 9 9 10 10 11 13 18 20 20 20 20 23 27 26 26 25 22 18 15 14 11 9 6 4 2 2 3
3 4 5 9 14 6 2 6 5 3 4 4 2 5 6 10 9 9 10 10 10 14 15 16 18 20 21 22 23 23 25 23 21 18 16 13 11 8 6 4 1 1 1 2
8 9 8 6 5 4 5 4 4 3 4 5 7 9 8 10 11 12 11 11 13 15 17 18 20 22 22 23 23 21 18 18 18 16 12 10 8 6 4 1 1 4 4 7

GFSCGP_925_spd_036.txt.gz
Wind_Speed
10 4 7 12 10 13 12 8 8 11 9 6 9 15 15 15 15 17 15 13 13 15 12 21 24 24 24 30 30 33 31 31 29 28 30 30 30 28 29 29 30 32 32 26
3 7 10 11 11 10 8 7 10 9 9 10 10 21 18 21 22 19 18 17 16 13 12 15 21 26 29 26 27 29 29 36 37 32 30 27 27 27 31 30 29 30 29 29
8 2 13 11 7 4 7 6 7 9 11 10 15 18 13 10 17 20 21 21 17 16 16 15 14 21 26 29 31 29 30 29 37 34 30 22 29 28 27 28 26 25 27 28
7 6 5 4 9 7 6 3 6 5 6 4 9 7 7 10 9 7 9 8 10 13 15 15 16 16 22 26 33 35 29 32 30 35 31 34 29 25 28 34 31 26 26 27
4 4 5 5 6 6 3 7 5 5 6 9 4 4 6 6 6 6 8 8 6 9 10 10 10 18 26 24 24 38 37 30 30 36 32 35 29 23 29 31 30 29 27 27
5 3 1 4 3 4 6 2 4 6 4 5 12 9 6 0 2 6 7 7 9 5 6 6 11 12 15 24 27 21 32 36 28 35 32 36 33 31 30 32 32 32 30 28
4 8 3 3 4 5 3 2 2 2 3 6 3 8 12 15 15 16 8 7 1 6 3 6 5 7 13 19 20 26 20 29 29 31 29 33 31 33 33 36 32 32 31 29
6 4 15 9 9 4 7 4 3 5 3 3 6 7 6 8 9 6 5 6 8 2 2 5 7 7 17 21 23 24 21 25 26 30 30 29 27 32 31 34 34 30 32 32
6 3 3 11 6 9 5 6 2 3 5 2 5 6 9 13 14 12 9 10 8 4 6 6 8 12 20 23 22 23 24 25 27 31 30 29 34 31 31 30 34 32 31 34
4 3 3 8 6 9 6 3 1 0 3 6 6 8 9 7 8 6 9 5 5 6 5 4 6 11 21 26 20 25 25 28 28 29 27 33 33 32 32 32 32 30 30 30
3 2 2 5 8 9 6 5 4 3 3 4 5 4 2 6 7 8 8 1 4 3 3 3 5 12 22 25 13 22 25 24 28 28 31 33 32 31 31 31 31 33 34 32
5 3 3 8 7 12 8 8 9 3 5 4 5 12 22 16 3 8 10 5 7 8 5 1 3 7 18 20 14 22 24 24 27 34 35 35 34 33 31 31 33 33 32 28
7 3 2 2 3 8 5 7 11 11 7 13 9 10 4 15 22 18 12 9 11 4 7 4 3 6 9 15 6 15 22 23 32 34 34 32 31 29 32 33 30 31 30 27
8 3 5 3 2 4 4 5 8 7 6 12 21 31 25 23 22 18 15 15 12 9 4 6 3 4 8 5 5 19 25 29 31 31 31 29 29 29 32 31 29 31 29 27
2 2 4 7 11 9 11 15 17 16 18 14 24 25 28 23 24 20 15 12 7 6 1 7 4 3 3 2 13 23 26 29 30 30 28 28 30 31 33 31 31 30 26 23
3 3 3 5 13 16 18 17 17 15 16 15 18 24 19 16 15 10 9 11 10 7 5 8 5 4 3 10 15 21 27 27 30 28 27 30 33 33 33 30 29 26 24 23
5 2 1 4 7 10 7 5 6 8 11 10 9 15 20 17 10 5 4 5 6 7 6 3 6 5 13 15 17 21 25 27 26 27 29 30 31 29 28 29 29 25 20 18
3 4 2 4 8 2 3 9 9 8 11 10 14 15 15 12 6 7 7 7 10 9 8 3 7 13 18 20 20 23 24 24 25 25 27 31 34 31 23 23 24 20 20 16
8 1 2 2 3 8 7 3 2 4 4 8 8 8 9 6 5 5 11 13 8 11 5 10 18 19 21 23 23 26 25 25 25 24 28 30 31 28 26 19 22 20 18 14
10 9 3 3 3 3 1 4 4 5 2 2 3 6 9 9 5 4 11 14 15 15 18 19 23 23 24 24 26 27 24 25 23 23 27 24 24 21 24 22 20 16 13 11
3 4 8 7 3 7 7 3 6 2 4 4 2 3 5 3 2 4 6 11 13 16 19 21 20 21 23 25 28 24 22 22 23 25 26 22 22 21 21 20 17 14 11 8
6 6 4 3 4 7 2 1 3 3 3 4 3 1 4 6 6 5 8 9 10 12 17 19 19 19 21 23 27 24 21 23 26 24 26 26 23 20 18 18 15 11 9 5
4 6 4 6 5 6 6 2 3 5 3 4 3 2 6 6 5 6 8 8 8 13 16 15 18 19 18 19 20 26 24 24 29 28 25 22 20 18 16 15 12 9 6 4
5 5 2 1 4 5 3 5 6 5 4 4 4 3 5 8 6 7 8 8 7 11 14 18 20 20 21 22 22 24 27 26 27 25 24 23 21 17 14 11 9 7 4 4
1 3 3 5 9 6 4 5 4 5 5 3 3 2 8 10 8 7 7 6 6 10 15 18 18 20 21 23 23 24 25 26 25 25 22 19 16 14 12 9 6 5 4 5
3 5 4 4 1 2 2 4 4 6 5 3 6 6 7 7 9 9 8 8 11 14 18 19 20 22 22 24 24 23 23 26 26 23 19 16 14 11 9 7 6 5 5 7

GFSCGP_925_spd_039.txt.gz
Wind_Speed
4 3 5 9 6 4 5 6 5 4 5 2 6 9 10 11 10 17 17 12 13 15 12 20 22 24 33 38 34 35 32 39 38 34 32 34 30 33 34 38 33 33 36 34
4 2 5 8 9 10 5 7 5 6 5 4 11 20 17 18 19 19 19 11 13 14 11 10 20 26 23 25 24 26 27 38 44 38 34 31 38 37 37 35 37 36 38 37
5 2 7 5 2 7 2 4 3 5 7 6 7 9 8 7 14 19 19 19 15 17 16 11 10 19 23 25 28 28 21 21 34 42 42 30 33 29 30 33 37 37 41 38
1 1 3 4 3 3 0 4 5 4 4 4 6 6 7 9 10 5 10 10 16 16 10 9 9 12 21 20 25 32 33 29 27 40 38 38 35 23 24 40 39 38 38 36
6 3 5 3 2 5 3 6 5 4 3 5 3 2 8 6 6 6 7 9 10 11 13 14 10 16 26 32 32 24 35 39 33 37 38 39 30 33 32 36 39 39 35 31
4 3 3 6 2 4 5 4 3 3 2 2 8 7 4 3 3 3 3 6 7 4 6 5 4 2 3 8 17 23 22 29 34 32 40 39 39 37 35 34 35 36 33 31
2 2 3 3 4 2 4 5 2 2 2 6 2 4 7 9 10 6 9 7 4 7 5 3 5 6 11 15 22 21 22 26 25 33 41 40 44 44 43 42 37 36 35 34
5 3 8 5 5 6 6 5 4 5 3 4 1 7 6 9 13 8 8 7 7 8 6 6 5 3 8 14 20 25 28 27 26 29 38 41 42 41 39 41 39 33 35 35
4 3 4 9 3 5 3 3 4 1 2 2 5 7 8 8 8 7 5 4 10 3 3 6 5 6 9 17 21 25 26 31 27 32 36 39 40 38 36 35 33 34 31 34
1 4 5 4 4 4 5 4 2 2 2 5 6 5 8 4 5 7 9 9 4 4 3 2 2 4 11 19 23 24 21 29 26 33 38 36 35 34 32 31 32 31 31 32
1 2 2 2 5 6 4 5 4 2 3 3 4 5 5 6 2 4 7 4 4 8 7 6 3 2 9 18 22 23 17 25 25 31 32 34 33 31 30 31 30 32 32 35
3 4 3 8 6 8 5 6 6 4 4 4 3 7 12 17 14 9 16 18 20 15 9 7 5 1 7 16 20 23 14 21 26 28 31 33 32 31 31 30 31 33 33 34
6 1 2 1 3 1 5 6 8 3 2 8 3 7 5 15 22 24 22 19 19 14 10 7 6 2 5 11 14 10 15 25 27 32 34 31 33 32 31 31 32 32 32 31
6 4 5 5 3 3 3 3 6 9 4 8 15 23 26 23 23 23 19 18 19 15 12 7 5 3 3 7 9 11 20 24 29 29 31 29 31 31 31 32 30 30 30 30
4 2 1 5 6 4 6 9 9 10 15 10 25 21 25 26 19 21 15 8 8 8 3 7 6 4 5 13 14 14 14 21 24 28 28 27 28 28 29 29 30 32 32 28
2 2 2 5 9 10 9 13 13 15 18 19 23 25 19 15 16 13 5 7 12 7 8 2 4 6 8 14 13 17 15 18 26 25 28 28 28 28 29 28 31 33 32 30
5 3 1 4 5 6 5 7 12 6 5 6 9 14 15 18 13 8 10 12 11 12 4 4 3 5 12 17 18 17 18 22 24 26 26 28 28 29 31 33 30 27 24 22
5 3 1 3 4 1 4 5 6 10 7 10 11 15 12 12 7 8 10 11 13 13 7 3 6 10 15 24 21 21 23 24 25 24 25 27 30 31 30 28 30 25 22 17
4 3 1 1 2 6 3 2 2 6 6 5 7 7 10 8 2 4 12 11 14 9 6 10 15 18 19 22 22 26 25 26 26 24 26 28 31 29 25 28 25 20 20 15
5 3 1 2 2 3 2 2 2 4 4 4 4 6 6 6 5 3 9 10 12 13 15 19 20 20 22 19 21 25 24 26 25 22 24 28 28 25 22 23 24 19 19 16
4 3 5 5 4 6 8 6 5 3 5 2 2 3 3 2 2 1 6 9 12 13 16 18 19 19 20 22 23 22 22 20 20 25 25 24 24 22 20 21 20 19 14 12
6 5 3 5 4 6 4 4 3 4 3 3 2 2 4 6 5 4 6 7 8 9 13 15 17 17 17 19 24 20 21 20 23 27 25 23 25 23 21 21 18 15 11 9
3 6 4 7 6 6 3 3 1 1 3 2 2 1 6 7 5 5 6 7 8 10 12 13 15 17 17 17 20 22 19 26 26 24 20 23 23 22 18 17 14 13 9 7
4 4 3 2 4 6 5 3 1 1 2 3 2 4 6 7 8 6 6 7 7 8 11 13 15 16 15 18 20 25 22 20 22 23 22 24 22 19 15 13 11 10 8 7
4 5 2 4 7 3 2 1 1 1 2 3 3 3 7 10 8 7 6 6 8 14 15 15 16 16 17 19 20 21 23 25 24 23 23 20 18 16 14 12 10 7 6 4
4 6 3 4 4 2 4 1 1 2 1 2 5 5 5 7 8 8 7 8 14 14 17 16 16 18 17 20 20 21 21 23 26 23 20 17 15 13 11 9 8 6 5 4

GFSCGP_925_spd_042.txt.gz
Wind_Speed
5 3 4 8 4 3 4 1 2 4 3 5 7 5 12 13 7 10 14 13 13 14 15 19 25 23 26 35 37 33 29 33 39 35 32 32 36 38 36 38 37 41 38 36
3 2 8 14 11 7 2 3 4 6 1 3 7 16 16 15 13 15 20 19 15 13 10 9 21 27 23 21 25 34 31 30 38 38 40 33 37 39 40 40 41 42 41 39
5 3 6 6 7 7 4 4 2 5 5 1 7 10 6 6 7 9 16 16 13 15 17 16 11 23 28 28 26 23 23 25 36 36 35 31 32 27 33 36 39 42 42 43
4 1 6 6 2 3 2 3 2 2 4 4 5 6 6 8 10 7 8 8 12 13 13 13 11 14 26 29 25 23 23 23 24 36 35 37 33 22 31 41 42 43 43 44
4 5 6 4 4 4 4 5 4 2 3 4 2 2 8 4 6 5 4 5 8 10 9 10 8 13 21 21 21 22 21 21 24 28 40 39 31 32 37 37 41 43 40 39
3 3 3 5 4 4 7 5 6 4 3 2 4 4 6 3 4 1 4 9 9 9 8 8 5 4 7 8 6 1 12 20 22 24 34 42 34 31 33 35 38 38 38 37
2 2 2 4 6 3 5 6 2 4 3 6 1 3 9 9 11 4 8 11 10 4 4 4 5 4 2 2 4 5 7 12 14 21 28 36 38 43 43 43 41 40 39 39
4 2 6 2 4 6 3 5 4 5 2 4 2 5 6 6 8 5 3 6 5 6 4 6 3 4 3 1 6 9 12 17 20 23 26 32 39 43 41 43 43 42 40 40
4 2 2 5 3 6 3 2 3 3 3 3 4 7 9 3 4 5 8 10 10 9 4 4 5 5 3 4 8 10 13 18 22 26 27 30 36 38 42 42 40 39 38 37
5 3 2 2 5 2 4 6 3 3 1 4 5 5 6 4 4 5 7 8 7 7 7 7 8 10 8 7 10 14 15 18 23 24 26 30 35 39 42 43 39 36 35 34
0 4 2 4 3 6 4 2 2 3 3 3 4 6 6 4 2 7 7 7 7 7 9 12 10 18 14 9 9 14 19 20 21 20 24 28 33 36 35 37 35 34 34 33
1 4 3 7 2 3 4 5 5 4 3 2 2 8 7 4 2 7 17 15 20 18 16 17 13 14 15 7 10 15 20 21 18 22 26 28 30 29 29 29 30 30 31 30
4 2 2 3 5 3 3 5 4 4 2 6 1 6 1 9 20 19 17 18 17 14 14 17 7 9 8 5 7 11 12 9 14 21 23 26 28 29 26 25 27 28 29 29
6 3 4 5 5 3 3 5 6 8 3 3 9 17 22 17 21 20 19 16 11 9 11 12 5 3 7 5 5 5 2 4 12 19 23 25 25 25 25 27 30 30 30 30
4 3 3 5 6 2 5 5 6 8 17 6 14 16 25 22 22 18 15 9 11 9 12 11 5 4 2 5 8 10 9 8 11 14 22 26 27 29 28 29 30 31 32 31
1 1 2 4 4 7 7 10 11 12 15 17 21 23 23 20 11 11 10 12 12 13 9 7 5 4 3 4 10 13 13 15 16 18 20 26 29 29 28 30 32 32 32 29
4 3 2 4 2 4 5 10 12 6 6 8 7 10 9 13 13 5 9 11 13 14 12 8 1 3 5 7 10 16 19 18 21 21 23 24 27 31 29 33 34 34 32 28
5 4 3 3 3 1 4 0 6 11 9 11 10 11 12 8 5 3 6 8 12 15 5 5 4 9 12 14 16 21 21 23 25 24 21 24 27 31 32 33 31 28 26 22
4 3 1 1 2 5 5 3 3 5 8 5 7 9 8 5 2 2 8 8 9 10 9 9 13 17 19 18 19 24 23 23 24 22 23 26 32 32 29 30 26 24 24 19
3 3 2 2 2 2 3 0 3 4 4 3 5 7 6 5 4 2 6 8 8 11 12 13 14 16 19 17 21 24 21 21 20 20 25 27 26 28 27 26 25 20 19 15
3 3 5 4 2 6 9 4 4 3 3 3 3 5 2 2 0 1 2 5 8 10 11 13 15 15 13 14 17 17 18 18 19 20 22 21 22 25 24 22 20 19 16 15
6 6 4 3 3 7 4 3 2 3 4 3 3 2 3 4 4 2 1 3 5 6 10 12 14 15 14 15 18 18 20 19 21 20 23 23 23 22 20 20 19 17 15 13
4 5 3 6 5 4 4 4 2 1 3 3 3 3 6 7 4 5 3 3 4 7 8 11 13 14 14 14 18 19 19 20 22 22 18 22 19 18 18 18 16 14 11 9
3 3 3 0 3 8 12 5 2 2 3 4 4 4 7 6 7 6 5 5 4 8 10 11 12 12 13 13 16 22 21 22 20 18 19 20 19 17 15 13 11 11 9 8
4 3 3 5 9 5 3 4 4 3 2 3 3 6 7 8 6 6 5 5 4 7 11 12 13 14 14 17 18 18 19 17 18 20 21 19 17 16 15 13 10 9 8 6
3 4 3 5 5 3 7 3 2 3 3 3 3 3 5 6 8 5 5 7 10 9 13 15 14 16 16 17 17 17 17 19 22 22 19 18 16 14 12 12 12 9 6 5

GFSCGP_925_spd_045.txt.gz
Wind_Speed
6 4 9 13 8 3 5 4 3 3 2 3 6 5 12 10 6 9 12 14 15 16 15 18 24 25 22 23 26 27 26 29 35 34 30 29 34 40 38 39 38 38 37 34
4 4 4 4 2 3 0 2 2 4 0 2 6 12 16 16 11 14 17 17 17 14 9 9 19 24 24 24 24 22 26 27 36 39 39 31 34 37 43 43 42 40 40 38
6 4 14 10 6 5 4 4 3 4 4 2 7 8 5 4 4 5 10 12 14 14 15 14 10 22 30 30 29 28 21 21 31 38 36 27 26 24 34 36 40 41 42 40
4 4 12 9 7 6 4 1 3 3 4 3 5 6 6 6 11 6 10 9 8 9 9 11 11 13 20 25 27 27 24 23 21 33 31 32 31 25 30 40 44 43 41 39
2 4 6 5 3 4 4 5 5 3 3 3 2 1 8 5 6 5 4 5 6 8 8 10 8 13 15 16 17 18 20 19 17 21 34 37 30 27 31 36 41 43 41 40
3 2 3 3 4 2 8 5 6 4 2 2 2 3 6 3 1 7 6 11 9 11 9 8 7 2 2 2 3 8 13 17 18 18 22 35 34 30 29 33 35 41 40 39
4 3 2 5 7 6 5 5 2 4 3 4 3 2 9 8 7 4 9 10 10 9 9 8 8 7 4 1 2 3 4 7 7 10 17 25 35 32 35 38 38 35 41 42
4 1 3 1 4 5 1 5 4 4 1 4 1 5 6 3 5 2 3 3 6 10 8 8 8 12 15 12 8 8 7 10 12 15 17 18 26 35 38 38 39 41 44 39
4 2 1 2 3 5 4 1 2 5 3 3 3 6 9 4 7 7 8 9 9 7 6 7 8 13 17 20 19 14 12 13 15 18 20 22 22 30 36 39 41 39 37 42
3 4 2 2 4 5 3 7 3 3 2 3 3 5 4 2 3 4 7 8 9 7 9 8 8 14 22 24 23 20 13 13 16 20 24 25 26 28 35 37 38 37 36 35
4 3 1 5 3 6 3 1 4 4 3 3 3 6 6 3 1 6 8 9 7 9 8 9 8 17 25 29 29 21 16 15 17 19 22 21 21 25 30 33 33 33 30 31
1 4 3 2 1 1 3 5 5 4 3 2 1 7 3 5 2 7 15 13 14 15 11 11 11 22 22 21 18 14 19 18 17 18 17 16 17 20 23 24 23 25 26 25
4 2 3 5 4 3 2 3 4 4 3 5 3 5 1 6 17 15 16 17 15 13 9 10 13 14 9 6 7 10 14 16 15 11 9 11 13 16 18 19 21 22 24 24
6 3 4 5 4 3 2 4 6 6 3 3 7 9 17 17 16 19 16 11 10 11 12 11 11 7 5 9 20 16 15 13 9 4 2 7 11 14 16 18 22 25 26 28
4 3 3 4 5 3 4 4 7 7 10 5 2 6 18 18 18 15 6 10 11 12 12 12 9 7 8 14 12 12 13 10 7 10 13 14 14 18 21 23 24 28 29 31
2 1 2 4 3 6 4 7 8 8 9 12 18 22 23 20 12 8 6 10 12 12 13 14 9 6 8 9 10 12 12 13 13 18 18 20 21 23 26 27 28 29 31 34
3 4 2 4 3 4 5 10 11 5 5 9 12 14 12 8 10 6 5 9 11 12 13 14 6 4 4 8 10 14 15 17 20 22 20 21 21 22 24 29 30 31 33 33
5 4 2 3 3 1 5 3 7 12 10 13 11 12 12 7 5 3 3 6 9 11 12 11 7 7 9 10 10 12 13 15 18 21 24 22 22 21 21 27 32 31 31 30
3 3 1 1 2 6 2 2 4 5 6 6 11 11 7 5 1 2 4 5 6 7 7 9 10 10 10 11 10 13 13 14 18 15 19 20 21 22 25 24 29 29 29 26
4 4 2 0 2 3 1 3 2 4 3 2 5 6 5 4 3 0 3 4 6 7 7 6 7 9 10 9 10 14 13 14 15 14 18 18 17 21 24 25 26 25 24 21
3 2 4 5 3 6 6 4 4 2 3 3 3 5 4 3 2 3 4 5 6 6 5 7 9 9 10 11 15 16 17 16 17 20 21 20 21 23 25 24 22 21 21 18
6 4 3 3 3 6 4 2 1 3 2 3 4 3 4 3 2 2 4 5 4 4 5 5 8 11 10 10 15 15 16 14 16 19 21 21 21 20 20 21 18 16 17 16
4 6 4 7 5 4 2 4 3 3 3 3 3 4 4 5 4 3 4 5 4 6 5 5 8 10 10 10 16 17 15 19 21 23 22 21 20 18 17 16 15 14 12 11
3 5 3 1 3 3 8 5 4 2 3 4 5 5 5 5 5 5 5 5 5 6 6 6 7 10 9 10 13 17 17 18 20 20 18 18 18 17 15 14 12 11 10 10
4 3 3 5 6 7 2 2 5 3 2 4 5 4 6 6 5 5 5 5 7 7 8 8 8 10 11 14 14 16 16 16 18 18 18 17 16 16 15 14 11 10 9 6
3 2 2 4 5 4 7 6 3 3 3 4 4 3 2 6 7 5 5 9 10 10 10 12 10 12 13 15 16 14 13 16 20 19 16 15 14 13 12 13 14 11 9 8

GFSCGP_925_spd_048.txt.gz
Wind_Speed
13 8 13 17 7 5 5 4 4 2 2 3 6 5 12 12 6 9 10 11 13 14 10 19 25 27 24 21 21 23 26 30 32 28 28 29 30 33 35 40 40 37 35 36
1 6 4 11 7 6 5 5 2 2 1 2 6 10 15 14 8 11 13 13 13 9 11 10 18 21 24 25 24 23 23 26 34 35 34 28 32 29 38 39 39 40 39 37
5 5 12 5 6 8 3 3 3 3 3 2 7 6 5 4 3 5 7 6 6 8 13 13 9 17 19 21 25 27 25 24 27 34 34 29 23 26 23 29 36 41 41 40
4 4 12 12 6 3 3 4 3 4 3 3 4 5 7 5 9 4 6 7 7 8 9 7 8 14 17 20 18 19 23 24 23 29 32 29 27 26 27 32 42 42 42 42
1 8 10 4 6 9 3 5 5 3 4 2 3 3 8 4 5 6 8 10 8 7 7 9 9 16 17 18 18 14 15 20 21 24 33 34 29 27 27 29 31 35 40 42
4 3 2 3 5 2 10 5 6 4 2 2 2 3 6 2 2 5 5 7 9 9 9 8 15 19 18 17 17 13 10 13 17 19 23 33 31 29 29 31 33 35 39 40
4 3 2 4 7 5 3 4 2 4 3 3 1 1 7 4 4 1 3 6 8 8 9 9 10 12 21 21 19 16 13 11 7 9 16 22 32 32 33 36 35 31 35 38
4 1 1 1 3 6 3 4 4 4 1 2 1 5 4 4 4 4 2 4 6 8 7 8 9 15 22 24 25 20 18 17 12 11 12 13 17 27 33 34 34 37 38 39
4 2 1 3 2 3 3 2 2 6 2 2 3 6 5 4 2 2 7 7 9 9 8 9 9 18 24 24 28 30 24 22 21 17 15 15 15 18 27 32 36 37 37 37
2 4 1 2 3 7 3 7 3 3 1 2 4 5 3 3 4 8 13 14 10 6 8 7 7 15 22 26 29 27 28 24 21 22 22 21 20 20 21 27 33 35 35 32
3 3 1 4 1 6 2 1 5 4 2 2 2 4 5 5 3 6 9 9 9 8 8 8 9 19 22 25 24 25 21 14 16 20 21 21 20 17 18 23 26 27 26 24
2 3 3 1 1 1 2 5 4 4 3 2 1 6 2 4 2 4 8 8 7 8 7 7 8 15 21 18 12 9 9 11 14 16 17 17 15 12 12 16 16 16 16 18
5 1 3 2 0 3 3 4 4 4 3 4 4 5 1 6 8 9 8 7 6 7 7 7 8 9 14 18 17 15 13 20 23 22 19 12 9 6 6 7 9 10 15 18
6 3 4 5 4 3 2 4 5 5 3 3 5 7 12 12 10 13 9 4 7 9 9 10 10 6 10 12 12 14 21 17 12 8 6 8 5 2 6 9 12 16 17 22
3 2 2 3 3 3 3 4 8 7 6 6 4 7 12 14 14 14 8 6 9 10 10 11 10 7 7 11 14 18 15 14 11 11 12 11 10 11 12 15 17 21 21 22
1 3 2 3 2 6 4 7 8 9 5 9 13 19 20 17 9 7 4 7 10 10 11 12 12 4 8 12 13 14 14 13 10 11 15 13 15 16 18 19 21 22 24 25
3 4 2 3 3 4 5 9 12 6 6 8 7 12 8 8 9 6 4 6 8 9 10 11 8 7 10 10 10 12 12 10 10 8 11 13 16 21 22 23 22 22 25 28
5 4 2 2 3 1 5 3 7 12 6 11 10 12 12 8 7 2 3 3 6 7 8 7 8 7 9 9 9 10 10 10 10 10 9 11 17 21 21 24 26 25 25 26
3 4 2 1 1 6 3 4 6 6 3 6 10 11 8 5 2 0 2 3 4 5 5 7 8 9 9 11 11 12 14 13 12 10 11 13 16 23 23 26 24 23 24 25
4 5 3 2 2 3 2 1 3 3 0 0 5 7 5 4 3 2 1 1 3 4 6 7 7 7 9 10 9 14 14 14 14 15 17 16 20 23 25 23 23 23 23 23
3 2 4 4 3 7 7 4 2 3 2 2 2 5 3 2 3 3 4 2 3 4 6 7 8 7 7 7 9 14 15 14 12 14 15 17 19 22 23 23 21 21 20 20
6 6 3 3 3 6 4 3 1 3 2 2 3 2 3 3 5 4 3 3 3 4 7 7 8 8 7 7 9 12 13 11 12 15 18 19 20 19 20 20 18 16 16 17
4 5 4 6 5 4 2 3 6 4 4 3 2 3 3 3 5 6 4 4 3 5 7 7 7 7 8 8 10 13 10 13 17 19 18 19 20 17 14 14 14 14 12 13
3 4 2 1 2 4 7 6 4 4 4 3 4 4 2 4 6 6 5 5 4 5 7 8 7 6 8 8 12 14 14 14 16 18 18 17 17 16 14 13 12 11 10 10
3 2 3 4 5 7 2 2 4 4 3 4 4 3 4 5 5 6 5 5 7 6 9 9 9 8 8 10 11 12 13 15 18 18 16 15 15 14 15 14 11 10 10 7
4 4 3 4 1 3 6 8 7 7 5 5 4 3 2 5 6 6 6 8 9 9 10 12 11 11 10 11 13 10 12 14 17 16 14 13 14 13 13 14 15 11 10 9

GFSCGP_925_spd_051.txt.gz
Wind_Speed
11 6 16 17 5 4 8 5 4 3 1 2 4 4 10 10 6 10 12 13 14 12 7 13 19 22 21 22 22 22 26 30 28 25 25 27 30 33 32 39 39 37 36 36
7 12 9 12 8 6 6 6 4 1 2 1 4 9 15 9 5 6 8 10 8 7 8 10 14 17 18 21 22 25 26 27 32 28 29 28 30 29 32 29 32 38 38 39
1 1 15 13 9 9 2 5 3 2 1 2 6 5 4 3 3 6 9 4 3 4 8 11 14 12 11 14 16 19 24 26 28 31 29 25 23 25 23 28 31 38 41 41
3 3 8 13 15 8 5 3 3 4 2 1 4 4 4 3 5 7 10 10 8 8 6 7 11 14 15 14 11 11 15 21 26 26 25 27 27 25 27 28 33 30 35 41
1 9 16 9 2 8 2 4 4 3 4 1 2 2 4 1 4 5 6 7 7 6 5 9 9 16 18 18 17 16 11 12 16 22 25 24 26 27 28 28 28 30 34 38
4 1 4 3 5 5 9 5 5 3 2 1 1 2 2 1 2 1 3 5 6 7 7 7 11 17 23 22 20 19 16 13 10 11 16 25 25 24 23 28 28 30 34 35
4 4 4 9 8 4 1 3 1 2 2 2 2 1 5 3 2 5 1 5 6 6 7 8 10 14 21 25 21 20 20 18 15 11 10 16 25 26 25 28 28 21 24 28
3 4 4 1 4 7 1 1 3 3 3 1 2 5 2 4 4 3 3 6 5 4 4 7 9 12 16 24 24 23 23 21 17 15 13 12 14 19 25 30 30 27 29 34
5 3 1 5 3 1 3 2 1 6 2 1 2 5 6 2 3 3 7 5 9 6 6 7 8 12 17 21 23 23 22 19 18 14 13 13 13 16 20 24 27 30 31 33
1 5 3 2 3 8 3 6 2 2 3 3 3 4 3 4 5 4 8 7 7 7 8 9 10 14 20 20 18 18 15 14 14 11 11 13 13 13 15 18 24 26 28 29
3 3 2 3 1 5 2 1 4 4 1 2 2 3 4 6 5 4 9 7 6 5 7 8 10 13 16 18 18 17 15 12 11 11 13 14 16 15 14 14 17 21 22 23
1 4 3 1 1 1 2 4 3 3 3 1 1 5 2 5 4 4 9 7 6 6 8 9 11 13 14 13 15 16 16 13 14 14 15 14 15 17 16 14 12 12 12 13
5 2 3 1 1 2 2 4 4 4 3 4 4 3 1 2 6 6 6 6 5 8 8 10 10 12 11 10 13 15 15 16 17 17 15 15 15 12 11 9 7 5 6 9
6 3 4 5 4 3 3 3 4 5 3 4 5 5 8 7 6 10 8 3 5 6 8 9 8 8 7 11 11 11 15 18 18 20 20 19 15 11 7 2 2 5 7 11
3 3 2 2 1 3 3 4 8 6 5 5 2 6 8 10 8 10 6 4 6 7 7 9 10 6 9 7 9 14 15 17 17 16 14 13 10 8 6 7 10 13 13 15
2 3 2 3 0 5 4 7 9 8 3 8 7 17 14 13 6 5 3 5 6 7 8 9 8 9 10 10 11 11 14 14 13 14 15 12 10 9 11 11 14 17 19 19
4 5 2 3 2 2 5 9 12 5 5 9 7 10 3 7 6 5 3 2 5 5 6 7 7 7 8 8 9 10 10 10 15 15 12 11 11 12 13 14 18 21 24 24
5 4 2 1 2 1 4 3 8 14 3 11 7 9 10 6 4 3 2 1 3 4 5 4 5 6 6 8 8 8 10 12 17 16 12 11 13 14 16 20 22 22 26 26
3 4 3 0 2 5 0 3 6 6 4 9 11 11 6 4 2 2 2 1 1 2 2 2 3 3 6 8 6 8 11 14 15 13 12 11 12 16 19 22 24 24 26 25
4 4 3 2 2 3 3 1 3 2 2 4 5 6 4 3 1 3 4 3 3 2 2 2 3 5 6 7 7 9 11 13 14 14 13 14 15 17 19 21 24 25 28 27
2 1 4 3 3 6 6 4 0 2 2 0 3 3 2 3 3 3 5 5 4 2 4 4 6 7 6 7 8 11 13 14 13 14 15 15 17 19 20 22 22 22 23 22
6 5 3 3 3 6 3 3 1 2 3 3 3 3 3 3 4 4 4 5 5 3 6 6 6 7 8 8 11 12 13 10 12 15 18 18 18 18 19 20 18 18 19 20
4 5 4 6 5 4 2 2 3 2 3 3 2 3 3 4 5 7 6 6 6 5 7 8 9 9 10 11 11 12 9 12 15 17 18 18 17 16 15 16 15 15 13 14
3 5 3 0 2 4 6 3 0 3 3 6 3 2 2 3 5 6 6 6 6 7 8 10 9 9 10 11 12 15 14 14 15 17 16 16 16 15 14 13 12 11 10 10
4 5 4 4 5 5 1 4 4 9 7 5 4 3 4 3 4 6 7 7 9 10 9 11 12 10 10 11 11 12 11 14 17 16 15 15 15 14 14 14 11 10 9 6
4 6 4 5 4 2 5 3 3 6 5 6 4 5 3 3 6 6 7 11 13 13 13 12 12 13 13 12 12 11 12 13 16 15 13 13 13 13 13 14 15 11 10 8

GFSCGP_925_spd_054.txt.gz
Wind_Speed
19 6 18 24 19 3 10 16 9 8 5 6 11 10 11 12 13 14 15 15 14 12 9 11 11 11 13 14 15 17 18 20 23 23 22 24 25 32 29 28 25 25 24 25
8 13 15 16 13 7 14 14 10 6 5 5 4 8 13 13 12 9 11 11 10 7 4 4 7 7 7 11 14 16 18 19 21 24 24 26 25 24 27 26 30 31 27 28
5 7 15 18 16 13 9 12 11 4 6 2 5 6 5 4 6 4 3 2 3 4 6 7 9 8 6 5 5 10 13 16 18 20 22 23 24 21 19 25 30 32 36 32
1 3 18 19 18 16 12 5 8 7 5 3 3 3 3 9 9 9 9 9 9 8 8 8 9 11 10 9 8 6 5 9 14 16 20 25 26 26 26 27 25 26 27 34
4 6 15 20 20 15 6 9 8 5 3 2 4 4 7 10 8 7 8 7 7 6 7 8 8 8 9 9 8 8 7 5 5 10 16 21 24 25 24 24 26 26 25 29
7 4 4 2 7 6 15 10 8 4 1 3 3 4 7 9 10 7 7 6 5 6 8 8 9 9 10 11 10 9 9 8 7 4 7 15 22 22 22 21 23 24 24 24
5 4 5 4 9 3 8 12 4 3 4 2 2 4 3 9 10 8 5 5 4 6 8 9 10 13 14 15 15 13 11 11 8 6 5 6 11 16 21 22 22 23 22 22
2 4 2 3 2 9 10 3 2 4 4 3 2 5 3 9 7 4 2 2 2 4 7 8 10 12 13 15 16 15 13 13 10 9 7 6 6 9 12 17 20 22 21 22
4 4 2 3 4 6 4 4 2 4 2 1 3 3 4 5 9 5 3 1 4 4 6 6 8 10 13 15 15 14 13 12 10 9 8 8 8 8 10 13 14 17 18 21
3 6 3 4 1 10 1 8 2 0 4 4 4 3 3 14 13 3 4 5 5 4 7 7 7 9 10 10 12 11 11 10 10 8 7 7 7 8 9 10 12 14 16 17
5 3 3 2 1 7 4 3 2 2 1 2 1 3 0 15 12 2 6 6 7 6 7 8 7 8 8 8 10 11 11 11 11 11 10 9 9 9 10 10 11 12 13 12
1 4 4 2 2 2 1 2 4 2 4 0 3 3 3 7 4 4 7 5 4 5 6 6 7 7 7 9 10 10 11 12 13 13 11 10 10 9 9 10 11 11 10 9
6 4 5 5 3 1 4 4 2 5 2 5 3 4 3 5 3 5 7 7 5 5 6 6 6 5 6 7 9 11 12 12 13 12 12 11 12 12 12 11 10 9 8 7
3 2 1 2 3 3 4 8 9 4 3 4 4 0 6 4 5 7 7 6 6 6 6 7 6 4 6 7 7 8 12 12 11 12 12 14 14 12 11 11 9 7 6 5
1 3 2 1 3 2 1 5 11 7 4 5 2 6 5 10 8 8 9 4 4 5 5 6 6 4 5 6 8 11 12 10 12 11 12 12 13 14 14 13 11 10 9 8
2 3 2 1 1 4 5 8 10 14 14 13 12 17 13 4 4 7 4 4 3 5 5 4 3 3 4 6 7 7 7 9 10 10 11 12 12 13 13 12 12 12 13 12
3 5 2 1 0 3 7 15 16 9 9 13 10 8 4 9 7 6 3 1 3 3 3 2 3 4 5 5 5 7 7 8 9 8 9 11 10 12 13 14 17 20 20 20
6 5 1 0 2 4 3 2 5 17 10 13 8 11 11 9 7 2 2 2 1 2 1 2 3 3 4 4 5 7 6 7 7 7 8 10 11 13 14 17 19 21 21 21
2 4 2 2 3 5 2 4 6 8 7 16 14 12 8 5 3 5 6 1 1 1 1 1 2 2 2 4 5 6 8 7 9 9 10 11 15 15 16 18 19 20 22 23
4 3 2 2 3 3 3 3 3 3 3 3 8 7 5 3 3 2 6 3 2 2 2 1 2 2 2 4 4 7 9 8 10 9 11 13 15 16 16 17 19 21 23 24
4 2 7 6 4 5 5 4 1 2 3 1 4 4 4 4 2 5 7 4 3 2 3 4 4 3 3 4 6 10 11 11 10 11 14 16 16 18 18 18 18 18 18 18
8 5 4 4 4 6 3 4 3 3 3 5 2 3 5 6 2 4 6 7 6 5 5 6 5 5 4 6 8 10 12 9 11 14 16 15 15 16 15 14 13 11 10 11
4 4 2 5 3 2 1 2 3 2 1 3 3 2 3 6 4 7 8 8 8 9 7 8 9 7 6 7 8 10 10 13 13 15 14 13 11 10 9 9 9 8 7 7
5 6 3 2 5 9 6 2 3 2 4 7 5 4 4 5 4 7 8 8 8 10 10 11 12 11 9 9 10 11 13 14 13 12 10 9 9 8 7 7 6 6 5 5
2 8 8 8 8 6 1 5 2 5 4 4 4 4 4 4 5 6 8 9 11 12 12 12 12 13 12 11 11 11 13 12 12 11 10 9 8 7 7 7 6 5 5 4
5 8 6 5 4 3 4 3 3 3 4 5 5 7 4 4 5 7 9 12 14 14 14 13 13 13 14 13 12 11 12 12 12 11 9 8 7 6 6 7 8 9 8 6

GFSCGP_925_spd_057.txt.gz
Wind_Speed
12 7 15 27 25 18 15 19 14 13 8 10 16 14 17 11 13 14 13 13 13 14 12 7 9 11 12 14 14 16 17 19 20 20 20 17 23 28 26 24 23 22 23 23
9 7 17 21 19 14 9 16 14 5 10 8 12 12 9 13 15 15 12 12 12 10 8 6 8 9 10 10 12 15 17 17 19 20 21 21 19 23 26 25 28 25 25 27
12 8 10 11 17 14 12 14 14 8 8 8 3 12 13 3 4 4 7 9 4 3 3 2 3 3 2 3 4 8 12 14 17 19 19 20 20 22 20 22 24 25 27 28
1 6 18 13 17 15 13 10 9 7 12 5 8 3 10 10 7 6 6 7 7 7 6 4 4 5 5 5 5 5 4 8 13 15 17 19 20 20 21 22 20 21 22 26
4 12 13 19 15 16 6 9 10 7 6 1 8 5 9 12 10 8 8 8 6 5 4 4 4 4 5 6 6 6 5 4 4 8 13 17 20 21 21 20 21 23 21 23
5 4 4 2 7 4 14 14 8 4 1 5 9 8 10 11 11 9 8 8 5 4 3 4 4 4 5 6 7 8 7 6 5 5 5 10 15 18 19 19 19 19 19 20
2 3 3 5 9 3 10 13 4 4 4 3 4 5 6 10 14 10 8 7 4 2 2 4 5 7 8 9 10 9 9 9 8 8 7 7 9 12 16 19 19 20 20 20
3 5 1 1 3 6 13 13 3 6 6 6 4 6 2 12 13 8 4 2 1 1 2 3 5 7 9 10 11 11 10 10 9 9 9 8 8 8 9 11 15 18 19 20
2 5 4 1 4 2 5 5 2 1 3 2 6 4 3 8 11 5 4 3 1 0 2 4 6 7 8 8 9 10 10 9 9 8 8 8 8 8 9 10 11 13 14 16
4 5 5 8 10 5 4 7 2 1 5 5 5 5 3 16 16 8 5 2 0 1 2 4 5 6 7 7 7 8 9 9 9 9 8 7 7 8 8 8 9 10 11 12
7 2 3 2 3 4 3 3 1 3 2 3 4 3 5 15 16 7 1 1 1 1 2 4 4 5 4 5 6 8 10 10 11 11 10 9 10 10 10 10 11 11 11 11
2 5 5 2 2 5 5 4 8 3 4 1 4 4 3 15 15 4 1 0 1 0 2 4 4 4 3 4 6 8 9 9 11 12 11 10 10 11 11 12 12 13 12 10
5 5 4 2 2 2 5 7 4 2 3 4 3 5 5 10 6 4 2 2 1 1 3 3 3 2 2 4 5 7 8 10 11 12 12 11 11 11 11 12 12 11 11 9
1 2 2 0 3 3 4 8 8 4 2 3 5 8 11 10 5 3 2 2 2 2 2 4 3 2 1 3 5 7 8 9 10 9 10 10 11 11 11 11 11 12 10 9
1 2 3 3 4 3 3 7 11 6 8 3 3 6 13 0 4 3 4 1 3 3 3 4 3 2 1 2 4 6 7 7 7 9 10 11 12 12 11 12 13 11 12 11
1 2 2 1 1 5 6 9 11 14 15 13 11 9 8 1 2 3 3 1 2 3 3 1 1 1 1 2 4 5 6 6 8 8 11 10 11 12 11 12 13 15 15 18
5 5 4 3 3 5 9 16 16 11 9 16 11 8 4 4 4 4 2 2 2 2 2 2 1 0 2 4 4 4 4 6 7 8 9 9 11 10 10 11 16 19 20 22
5 5 2 1 3 4 3 3 2 16 8 11 8 7 5 6 5 3 3 3 2 1 1 2 1 1 2 2 2 3 5 6 6 7 9 8 11 11 13 15 17 19 21 22
4 4 2 3 4 7 5 3 4 8 9 13 14 9 6 3 4 7 6 2 1 1 2 2 1 3 2 2 2 3 6 5 6 9 9 9 11 13 14 17 19 20 22 22
1 3 3 2 3 3 5 3 3 4 3 5 10 6 3 2 3 5 8 5 4 2 2 4 5 3 2 2 2 4 4 5 7 9 10 11 12 13 16 16 18 18 20 20
5 4 7 6 3 5 5 5 2 3 3 4 2 1 2 3 4 2 5 5 5 4 3 5 5 4 3 3 3 6 7 7 8 13 13 14 14 15 15 15 13 15 14 14
7 5 4 5 4 6 4 4 3 2 0 3 2 2 2 4 5 3 5 6 6 6 6 6 7 6 6 5 7 8 9 9 10 13 14 13 11 10 10 11 9 8 8 8
4 4 2 5 2 4 2 5 6 4 4 3 2 1 2 4 4 4 6 7 6 7 6 6 8 9 7 7 8 9 9 11 12 9 10 9 9 8 7 6 6 5 5 4
5 4 4 1 3 8 7 3 3 3 0 2 3 3 3 6 5 5 7 7 7 9 9 9 9 9 10 9 9 10 11 10 10 9 8 8 8 7 6 5 4 4 3 3
2 8 7 10 10 4 5 6 5 2 0 1 2 3 4 5 6 6 7 9 11 12 12 12 11 10 11 11 11 11 11 10 8 8 7 6 6 5 6 5 4 3 3 3
8 8 7 5 5 6 4 7 3 2 1 2 4 5 4 5 7 6 7 11 13 14 14 13 12 13 12 12 12 11 11 10 10 8 7 6 6 5 5 5 5 6 5 4

GFSCGP_925_spd_060.txt.gz
Wind_Speed
16 8 17 27 18 9 8 11 14 13 8 14 15 12 12 7 6 6 7 7 7 7 7 11 4 3 6 8 8 10 11 12 13 19 16 22 26 28 25 27 29 21 25 26
9 14 11 14 14 15 8 11 18 4 10 7 7 11 9 9 8 8 8 8 7 5 2 10 10 6 5 8 8 7 12 13 15 15 19 16 19 26 29 27 28 30 25 23
12 8 12 16 16 17 9 8 10 7 5 2 3 7 10 5 1 3 4 5 6 5 5 7 9 7 6 8 6 8 11 12 11 11 14 17 15 19 18 22 25 28 30 30
5 4 13 9 13 15 10 6 3 11 7 3 8 4 13 9 5 5 7 6 6 5 7 6 8 8 8 6 5 5 6 7 10 15 16 14 15 15 17 22 20 20 20 23
3 12 16 5 9 9 7 7 8 7 6 2 8 2 3 10 7 7 6 6 6 6 7 7 6 2 7 4 6 6 6 6 6 7 9 13 16 18 20 20 16 19 19 20
6 3 4 6 8 9 7 9 9 3 1 2 7 6 5 8 11 8 7 8 7 6 6 6 6 4 7 7 8 8 8 9 8 6 6 8 12 16 18 17 16 18 18 17
3 4 4 3 9 5 10 8 4 3 2 3 1 4 6 11 11 8 8 9 7 6 6 4 6 5 7 8 11 11 11 10 9 9 8 9 8 9 11 14 16 16 16 17
3 2 1 3 2 5 6 7 4 5 4 4 2 4 4 11 10 9 8 7 6 4 5 5 4 5 6 7 9 10 11 10 9 9 9 8 10 8 7 9 10 12 13 15
4 2 1 2 3 3 3 1 2 2 2 4 5 3 5 10 9 7 8 8 7 6 5 5 3 6 5 6 7 8 9 10 10 10 10 10 11 10 10 10 10 10 9 10
3 5 2 2 3 8 3 2 1 1 3 3 4 6 4 10 10 8 8 8 7 6 6 4 3 5 4 4 5 7 8 10 10 11 11 11 11 10 10 10 11 12 12 13
8 2 4 5 3 4 2 2 2 0 2 1 4 4 1 15 10 8 7 6 5 5 5 4 4 4 2 4 5 7 8 10 11 11 11 10 11 11 9 9 9 10 10 10
4 5 3 4 5 6 6 3 3 1 3 1 2 3 4 10 8 7 6 6 6 6 6 3 2 1 4 5 6 7 8 10 10 10 10 11 10 9 10 11 11 9 8 8
4 2 3 2 3 1 1 3 1 6 2 3 1 2 3 9 9 7 6 5 6 6 6 2 1 1 6 7 6 7 8 9 10 11 11 11 11 11 11 11 12 11 9 9
3 2 3 3 3 4 3 5 5 4 2 3 3 5 4 7 6 7 7 6 6 6 5 3 2 2 8 5 4 6 8 8 10 10 11 12 11 11 11 10 11 12 10 10
2 3 3 4 6 4 2 5 7 5 6 4 4 8 8 8 5 6 5 7 5 6 5 4 2 2 4 6 6 6 8 9 8 9 9 9 8 9 10 10 11 12 14 15
2 2 2 1 4 5 3 6 8 9 10 8 6 4 2 5 6 4 3 6 4 4 5 5 3 2 4 7 5 6 7 7 7 9 10 8 8 9 9 11 12 13 17 18
4 4 2 1 1 4 6 12 12 7 7 10 8 6 3 3 3 3 4 5 4 4 4 5 4 4 6 5 4 7 6 6 7 8 8 8 8 10 11 13 16 18 20 19
4 3 2 1 1 1 3 3 2 11 9 7 5 5 3 0 3 3 4 5 6 5 4 5 5 6 5 4 6 5 5 6 6 7 7 6 9 13 14 15 18 17 18 18
3 4 2 2 3 6 6 3 2 6 8 8 6 4 4 4 1 4 7 6 6 6 6 7 9 6 4 5 5 6 7 6 7 8 7 8 11 15 16 16 16 16 17 17
2 2 2 1 2 3 3 4 0 2 1 8 7 7 4 3 0 2 6 6 5 7 6 7 8 6 5 5 6 8 7 6 8 8 8 9 13 15 14 15 14 15 15 16
2 2 4 4 2 5 6 5 3 2 3 5 5 5 5 2 3 4 6 5 6 6 7 5 7 6 5 6 9 9 7 8 9 10 10 11 12 14 13 12 12 12 15 13
5 5 3 3 3 6 4 4 2 3 3 5 6 5 4 3 3 5 6 7 6 6 7 7 8 8 7 8 10 11 10 10 11 12 12 11 10 8 11 10 10 8 7 8
3 3 3 6 3 2 2 7 4 3 6 3 4 3 2 1 0 3 5 7 7 9 8 9 11 10 7 8 10 13 12 13 13 11 11 10 9 8 7 6 5 4 3 4
3 1 1 3 1 7 6 5 6 4 3 3 2 1 1 2 1 2 5 6 7 12 12 12 15 11 9 10 12 13 15 14 12 11 9 9 9 7 5 4 3 3 3 2
1 5 4 5 5 3 5 7 7 6 4 4 3 1 1 2 3 4 3 6 11 15 14 15 14 14 12 13 15 15 15 15 13 12 11 10 9 7 6 5 2 1 1 2
4 5 3 3 4 1 4 7 6 4 3 4 3 3 3 3 5 4 4 6 15 16 17 15 14 16 17 16 16 17 17 16 13 13 12 11 10 8 6 4 4 2 3 2

GFSCGP_925_spd_063.txt.gz
Wind_Speed
13 8 19 26 11 6 7 3 6 7 7 6 11 6 12 7 4 7 7 7 6 6 5 1 10 8 7 3 1 2 4 1 6 21 25 25 27 28 26 29 30 27 26 19
8 15 10 9 8 6 9 9 8 2 6 13 11 11 10 10 7 8 8 7 6 4 5 7 9 9 10 7 2 3 4 8 8 7 5 13 23 27 32 28 28 27 27 28
12 8 12 12 10 11 6 6 5 4 3 4 4 5 7 8 6 6 4 4 2 1 7 5 12 14 11 9 8 6 6 9 11 11 11 10 5 9 13 23 25 25 25 24
6 3 11 12 13 7 6 6 3 13 5 4 5 4 7 12 7 6 6 4 5 7 6 6 9 11 9 7 5 5 6 6 7 8 11 11 10 10 10 10 17 23 21 21
2 5 10 10 3 3 5 1 7 5 6 4 1 1 6 8 6 7 6 5 6 6 7 7 8 9 7 5 5 6 5 5 6 7 7 7 9 11 12 14 13 11 15 20
5 5 4 3 3 3 5 8 7 5 2 1 5 5 4 6 14 6 5 8 8 7 7 7 9 10 7 6 6 7 8 7 7 7 5 6 8 9 10 11 13 14 11 10
4 3 4 2 3 6 2 5 2 2 1 5 3 7 9 7 6 9 9 8 7 7 7 6 6 6 5 6 7 7 8 8 7 7 6 7 7 6 6 8 9 9 8 7
4 4 2 2 4 3 9 4 5 6 4 4 2 7 5 7 8 12 11 9 8 7 6 7 7 7 6 6 7 7 8 9 10 10 10 10 9 8 8 8 8 8 7 7
4 3 1 2 2 2 6 4 3 3 2 3 4 3 4 5 8 9 10 8 8 7 7 7 8 7 7 6 6 6 7 9 10 11 11 11 9 8 8 7 6 7 8 10
6 5 3 5 1 2 3 0 1 3 3 4 4 3 4 7 8 7 8 8 7 7 7 5 7 7 7 7 6 7 8 9 8 10 10 9 8 7 6 6 7 9 10 10
2 4 4 6 4 6 2 1 2 2 4 4 4 5 3 16 13 10 8 8 8 7 7 6 7 6 7 8 8 8 8 8 8 8 7 6 7 7 7 6 7 8 8 9
5 3 3 1 4 7 2 4 4 4 4 2 2 4 4 9 9 7 8 8 7 8 7 6 6 6 8 10 9 9 7 7 7 5 5 7 7 7 8 8 8 8 8 8
3 2 3 2 2 4 4 5 5 3 2 4 4 4 2 7 8 7 8 7 7 7 7 5 4 5 10 10 9 8 7 6 6 6 7 8 9 9 10 9 9 9 8 7
2 2 3 6 4 4 5 12 5 5 3 2 4 3 4 7 8 6 7 7 8 7 7 5 4 6 10 10 8 7 6 6 5 6 7 9 9 10 10 11 11 10 11 11
3 3 2 2 4 3 2 4 8 5 4 5 2 5 10 9 8 7 7 7 7 7 6 6 5 5 8 10 9 8 6 6 5 7 7 8 8 10 10 10 10 11 12 14
2 1 2 3 4 4 3 6 7 6 5 3 3 5 6 5 5 6 7 7 7 6 6 6 6 7 9 9 9 9 8 8 9 9 9 7 9 9 10 10 11 12 13 15
3 4 3 2 1 3 6 10 10 6 5 9 8 7 5 5 6 6 7 7 7 6 6 6 6 9 10 9 10 9 9 7 6 7 7 8 8 10 10 10 12 14 15 16
4 4 2 2 3 1 6 2 8 14 10 8 4 6 7 6 5 5 5 7 7 7 6 6 9 11 9 10 11 10 8 7 6 7 8 8 9 11 11 12 12 12 14 16
3 3 2 3 3 5 1 3 4 7 8 9 8 6 5 6 4 1 3 4 5 6 6 9 12 12 10 10 11 9 8 8 8 8 10 10 11 12 11 12 11 12 14 15
3 2 4 2 1 3 2 2 1 4 4 6 11 7 4 5 2 3 5 5 6 10 12 13 11 9 9 8 11 11 9 9 9 9 11 13 13 12 11 10 10 12 13 17
2 1 4 4 2 5 3 3 2 2 2 2 7 5 6 4 3 4 6 5 9 10 10 13 11 9 10 11 13 11 8 8 10 12 13 13 12 12 11 11 10 14 12 10
5 5 3 3 3 6 4 3 2 3 2 5 5 4 6 5 5 5 6 7 8 10 12 12 14 12 10 11 11 9 10 11 12 14 14 14 14 12 10 9 10 8 7 6
3 5 4 7 5 4 3 4 1 4 4 2 4 3 5 5 4 6 6 7 8 12 10 12 15 14 11 10 11 15 14 14 14 15 14 13 12 11 9 8 5 4 4 4
2 3 2 1 2 6 6 3 4 3 3 3 2 3 4 3 3 3 5 6 7 14 14 13 17 15 13 11 12 14 16 17 16 15 14 13 12 10 8 7 5 6 5 4
5 4 4 3 5 1 4 5 7 6 5 5 3 2 2 2 2 3 3 6 11 16 17 18 19 15 15 16 16 17 19 20 17 16 14 13 12 11 10 7 5 6 4 4
4 6 4 4 3 3 3 5 6 6 4 4 3 1 2 1 3 3 4 6 13 16 18 19 17 17 18 19 20 20 21 20 20 16 16 15 14 13 10 8 5 4 4 3

GFSCGP_925_spd_066.txt.gz
Wind_Speed
9 9 20 21 9 2 10 6 8 3 6 5 7 3 10 6 1 6 7 6 6 4 4 3 7 9 11 11 10 9 8 8 15 21 21 22 24 26 28 31 30 27 25 23
6 16 9 9 9 3 12 6 6 1 4 7 6 13 8 8 5 6 8 7 7 3 4 7 9 10 9 7 5 4 4 3 5 8 15 17 19 25 28 27 27 28 28 28
10 8 10 9 7 6 3 10 4 4 2 2 4 7 6 7 4 6 6 5 5 7 8 5 9 10 9 7 5 3 2 2 1 5 8 8 9 11 13 15 19 21 23 25
1 9 12 8 7 4 2 6 6 6 5 5 4 4 6 9 9 8 8 7 7 6 6 5 8 8 8 7 5 4 4 4 2 4 2 5 8 9 9 8 9 11 14 19
3 14 15 12 8 5 4 4 8 5 6 4 1 0 6 3 9 11 9 9 7 7 8 8 8 10 8 6 5 4 3 4 5 3 4 4 3 4 7 9 11 12 11 11
6 4 5 2 3 3 2 5 7 5 3 1 5 6 4 6 7 10 4 7 9 8 8 8 12 11 8 6 5 5 4 5 5 4 3 3 4 3 4 5 6 5 5 4
6 4 2 2 5 2 1 6 2 2 2 5 3 4 11 5 5 8 9 9 9 9 8 8 8 9 7 6 6 5 6 7 7 6 5 4 4 4 4 5 5 5 5 4
4 5 2 3 3 3 4 4 5 5 3 3 1 7 7 5 9 7 12 12 9 8 7 7 8 9 8 6 5 5 6 7 7 7 8 7 5 5 5 4 3 4 5 6
5 1 0 2 2 1 3 2 2 5 3 3 5 6 7 3 3 9 10 8 9 8 7 7 9 9 9 7 6 6 6 7 7 7 6 6 5 5 5 4 4 5 6 6
4 5 2 4 2 3 3 2 2 2 3 4 4 5 5 3 8 8 9 9 7 6 7 6 9 10 9 9 9 8 6 6 6 5 5 6 6 5 5 4 5 6 6 7
5 4 3 6 7 6 5 4 2 3 4 4 2 6 5 12 13 14 12 9 8 8 7 6 8 9 11 11 10 8 5 4 4 4 4 5 5 5 5 6 6 6 7 8
3 4 4 4 3 7 1 5 4 4 4 1 3 5 4 7 7 8 8 8 6 6 7 6 10 11 12 11 10 7 5 4 4 4 4 6 6 6 6 7 7 7 7 7
5 2 3 2 2 2 4 4 3 3 3 5 5 5 5 4 7 6 8 7 7 7 7 6 6 9 12 11 9 8 6 5 4 3 5 6 8 8 9 8 8 7 7 8
4 3 4 5 4 5 5 8 7 5 3 3 5 3 3 4 9 7 7 8 8 8 7 6 5 8 12 11 10 8 6 4 4 3 5 6 7 8 8 8 8 8 9 10
3 3 3 2 3 3 3 6 9 8 11 7 5 6 7 11 10 10 8 6 8 7 7 7 6 7 11 10 10 8 6 4 4 4 4 6 7 6 6 7 8 9 10 12
2 2 2 3 1 2 2 6 9 9 5 5 3 5 6 6 2 5 7 8 8 7 7 6 6 9 11 13 11 9 7 7 6 5 5 5 5 5 7 8 10 12 13 14
2 4 3 3 1 2 6 10 11 8 6 8 9 7 2 5 7 8 8 8 8 7 7 7 7 10 13 12 13 11 9 8 6 5 3 3 4 7 8 9 11 13 13 13
4 4 2 2 2 1 5 1 6 12 5 8 3 5 5 6 6 6 6 8 8 7 7 6 9 11 12 12 11 10 9 7 6 5 5 5 7 9 10 11 11 11 12 13
3 4 2 3 3 5 2 4 5 7 7 11 9 6 5 4 4 1 1 4 6 6 6 10 12 14 12 14 13 12 10 8 7 7 8 8 10 12 12 11 11 10 11 13
4 5 3 1 1 4 2 1 3 4 5 5 12 8 6 6 4 4 4 4 6 9 11 13 14 12 14 14 14 13 12 10 9 10 10 11 12 13 12 11 11 12 14 15
3 2 4 3 3 6 5 2 4 3 4 3 9 7 7 5 4 2 7 4 8 10 12 13 14 15 15 15 16 14 13 13 12 11 13 14 13 13 11 11 10 13 11 10
5 5 3 3 3 6 3 2 3 3 2 1 4 4 5 5 6 5 6 6 8 10 12 15 14 14 15 17 19 16 14 13 14 13 14 13 14 12 11 12 13 10 8 7
3 5 4 7 5 4 5 4 2 2 3 1 4 3 6 6 4 6 5 7 8 13 15 17 17 15 15 17 18 16 15 15 15 16 15 15 14 11 11 11 10 8 7 5
2 3 2 1 2 5 4 2 3 3 3 3 3 3 5 5 5 5 4 5 7 14 15 17 18 16 17 16 14 15 18 18 19 18 16 16 14 13 12 9 8 8 8 8
5 3 3 3 4 1 3 5 4 4 5 4 4 2 2 2 2 2 3 5 10 14 16 19 20 19 19 17 16 15 19 20 20 18 17 16 14 13 12 11 9 9 8 8
4 6 4 5 5 3 5 3 6 5 4 4 4 2 2 2 1 2 3 4 7 14 16 19 20 19 19 20 19 19 21 23 22 19 18 17 17 16 15 13 8 8 7 6

GFSCGP_925_spd_069.txt.gz
Wind_Speed
8 4 21 22 8 1 7 6 12 1 8 12 11 6 6 6 5 7 9 8 8 7 1 2 7 11 11 9 9 9 12 18 20 20 19 20 25 26 25 25 25 24 22 22
6 12 13 8 8 4 10 5 8 2 4 11 4 7 7 7 6 6 8 8 9 5 5 6 8 10 8 9 8 7 6 5 6 12 19 19 17 20 25 24 23 23 24 26
2 10 10 10 5 6 2 6 5 6 4 3 4 5 6 9 3 4 6 6 6 9 8 6 8 9 9 9 7 5 3 3 5 6 7 9 12 14 16 17 16 17 18 20
1 12 12 12 5 4 4 3 5 7 5 4 4 4 7 7 11 7 10 8 8 8 5 5 8 9 8 7 5 5 5 3 2 3 6 9 11 11 11 9 10 10 10 12
4 18 14 10 6 5 3 2 5 3 3 3 2 1 6 1 8 18 13 8 8 8 9 9 10 12 9 7 5 4 3 4 4 1 1 2 4 6 8 9 11 14 14 12
6 4 4 3 4 3 4 5 6 5 3 2 5 5 5 6 7 4 8 9 9 9 8 8 11 11 10 7 5 4 3 4 3 2 2 1 1 2 2 2 2 3 4 6
12 4 2 3 7 2 3 5 2 2 1 5 2 5 12 6 6 6 8 7 8 7 8 8 8 10 8 6 5 5 5 7 5 4 3 3 3 2 2 1 2 3 3 3
4 5 2 4 3 5 3 4 4 5 4 3 3 8 5 6 5 7 7 7 9 9 8 8 10 12 10 8 6 6 6 6 5 5 5 5 4 3 3 2 2 3 4 5
4 3 2 4 1 2 4 3 3 6 3 3 5 7 8 4 5 2 6 8 9 9 8 8 11 12 11 8 7 6 6 6 5 5 4 4 3 2 2 2 3 4 4 5
3 5 1 1 2 2 2 2 1 3 3 4 4 5 6 4 7 6 9 9 8 7 7 7 10 12 11 9 8 7 5 4 4 3 3 3 3 3 2 2 2 3 3 4
4 3 3 6 6 7 2 2 2 3 4 4 2 5 6 6 7 10 11 11 10 9 8 7 9 11 12 11 10 8 6 4 3 2 1 1 2 3 3 3 3 3 3 4
2 4 5 2 3 3 4 4 6 4 4 1 2 5 2 6 7 8 6 8 8 7 8 7 11 13 13 12 10 8 5 4 3 2 1 3 3 4 4 4 4 4 4 5
5 2 4 1 2 2 6 6 4 3 3 6 4 5 2 4 4 6 8 7 7 6 7 6 8 11 14 14 12 9 7 6 4 3 2 3 4 5 5 5 5 5 6 7
5 3 5 7 5 4 6 9 7 6 4 4 6 5 4 2 6 5 6 7 7 8 8 6 6 9 14 14 12 10 9 7 5 4 3 3 4 5 5 5 5 6 7 8
3 4 3 2 1 3 3 9 17 9 14 9 7 8 6 6 9 9 8 6 7 7 7 7 6 7 13 14 13 10 9 8 7 5 3 3 4 3 2 4 6 9 11 10
2 1 2 2 2 4 4 7 12 16 8 8 11 7 6 2 4 5 8 8 7 8 7 7 6 9 13 15 15 12 10 9 8 6 4 3 2 3 4 6 8 10 11 12
3 5 3 4 3 3 6 8 11 6 6 11 11 15 4 6 7 9 8 8 10 8 8 8 8 12 16 17 16 14 12 10 8 6 3 2 3 5 6 7 9 10 11 12
4 4 2 2 2 1 5 1 4 11 4 11 6 5 6 6 10 6 6 8 8 8 8 7 10 11 13 14 14 13 12 10 9 7 5 4 6 7 8 9 10 11 11 12
3 4 2 3 3 6 3 2 4 5 6 13 14 11 5 3 3 1 4 4 6 7 6 10 14 14 15 16 15 14 12 11 10 8 7 7 8 9 9 9 9 10 11 11
4 5 4 1 1 4 3 2 3 3 5 4 8 8 7 6 5 4 5 4 5 8 10 13 14 14 14 15 15 15 13 10 9 8 8 8 10 11 11 11 11 12 13 13
2 1 4 3 2 6 6 3 4 4 5 4 4 6 6 5 4 2 6 4 7 9 11 12 15 14 14 15 15 13 11 11 10 10 11 11 12 11 11 10 11 14 11 11
5 5 3 3 2 6 3 2 4 5 3 3 1 5 6 4 4 5 6 6 7 8 10 11 12 11 12 14 15 13 12 10 11 13 14 14 13 12 11 10 12 11 9 8
2 6 4 7 5 4 5 5 2 3 1 2 2 2 5 6 4 5 5 5 6 9 9 11 12 10 12 14 16 15 13 13 14 15 16 15 15 13 12 13 12 10 9 8
3 3 3 1 2 5 5 3 2 2 1 2 4 5 2 4 5 4 5 4 4 6 9 12 12 12 14 15 16 16 15 16 17 18 18 18 18 15 13 14 12 11 11 11
4 4 4 4 5 5 4 5 3 3 4 4 4 3 4 4 3 2 1 3 6 12 13 14 17 17 18 17 18 17 17 19 20 19 19 20 20 16 16 15 13 12 11 11
4 6 4 5 6 4 5 1 5 7 5 5 4 4 3 4 3 2 1 2 4 9 13 16 19 19 20 20 20 19 19 23 22 21 22 22 21 20 18 16 13 11 10 10

GFSCGP_925_spd_072.txt.gz
Wind_Speed
11 2 19 18 4 1 8 6 7 3 10 15 15 9 4 12 9 21 20 8 8 9 2 5 7 11 11 9 9 9 14 19 17 15 17 20 22 22 21 22 22 20 20 19
5 3 10 8 5 4 9 6 4 2 10 8 8 4 9 6 10 15 20 15 10 4 3 3 7 10 11 9 9 8 8 9 10 14 17 16 14 17 21 22 22 21 22 23
5 2 10 7 4 5 3 8 5 5 4 3 8 5 8 15 21 12 10 8 6 9 8 5 8 10 10 9 8 6 5 5 5 6 7 9 11 14 15 14 13 12 13 15
2 5 14 11 5 4 4 5 6 8 5 4 5 4 13 19 19 15 20 10 10 8 6 5 10 12 12 10 7 5 4 4 3 4 6 7 9 9 8 7 8 8 8 9
3 15 9 12 8 3 3 5 5 3 4 2 1 2 4 5 15 24 23 10 9 9 8 9 11 13 12 11 8 6 5 3 2 2 3 3 4 5 7 8 9 9 9 9
3 5 1 4 3 3 6 6 7 5 3 1 5 5 5 7 7 4 8 9 10 9 8 7 11 14 13 10 9 8 6 5 3 2 1 1 2 3 4 3 3 3 3 5
7 4 2 3 7 4 5 6 2 2 0 4 2 6 11 3 6 6 8 7 8 7 9 9 9 13 13 10 8 7 6 7 5 4 3 2 2 1 1 0 1 2 2 4
4 6 2 3 4 6 3 3 4 5 4 3 3 6 5 5 6 6 5 5 6 9 8 10 12 16 14 11 9 8 7 6 5 4 5 5 4 3 2 2 2 3 4 5
4 4 2 5 2 2 4 3 3 6 3 3 4 6 8 7 8 6 7 6 9 9 10 8 11 15 15 12 10 9 7 6 5 4 3 3 2 1 1 2 3 4 5 5
1 6 3 3 2 5 3 5 2 3 3 4 4 5 5 5 6 6 6 7 6 7 7 7 10 15 14 12 11 10 8 6 5 4 2 2 1 2 2 3 3 4 4 5
2 3 3 3 3 5 2 2 2 3 4 4 2 5 5 5 7 8 7 6 7 10 8 7 10 14 15 13 12 11 8 6 5 3 2 1 0 1 2 2 3 3 4 4
2 4 3 2 3 3 3 5 5 4 4 1 2 6 2 6 8 6 5 6 6 5 7 7 11 15 15 14 13 11 9 7 5 4 2 1 1 2 2 2 2 2 2 2
6 2 4 1 1 2 4 4 3 4 3 6 4 5 2 6 1 1 6 7 7 7 7 6 8 12 15 15 13 11 9 7 6 4 3 3 3 3 3 3 3 4 4 5
5 3 5 7 5 3 6 8 10 6 6 4 9 6 6 5 3 3 5 6 7 7 8 7 6 9 13 14 14 11 9 8 7 6 4 3 2 3 3 2 3 5 6 7
3 3 3 3 2 3 3 10 14 20 19 10 6 15 13 8 6 7 7 7 8 8 8 8 7 8 14 14 14 13 11 10 9 7 6 5 3 0 1 2 4 5 5 9
2 2 3 2 3 5 5 8 13 18 17 17 21 21 6 4 3 4 8 8 7 7 8 8 7 11 15 19 18 15 14 12 10 9 6 5 5 3 3 4 6 8 9 11
2 4 3 3 3 3 6 9 13 10 13 16 15 25 4 6 7 9 9 10 10 8 8 9 9 13 17 20 19 18 15 12 11 9 8 5 5 6 6 6 8 10 11 13
4 3 2 2 2 1 5 2 4 11 6 14 11 5 7 8 6 6 5 8 8 7 8 7 11 14 13 14 15 14 14 13 12 10 8 6 7 8 9 9 10 11 12 12
2 4 2 2 3 7 1 1 5 5 5 8 15 13 6 3 2 4 6 7 7 8 7 11 14 14 12 14 16 16 15 13 12 11 9 9 10 11 11 11 11 11 11 11
4 4 3 1 1 4 4 3 3 3 4 3 5 9 7 6 4 4 5 5 4 7 10 13 14 13 14 15 17 17 16 14 13 11 11 10 11 12 12 12 12 12 11 12
2 2 4 3 3 7 6 5 3 3 4 4 3 6 6 5 4 1 6 4 6 8 10 12 13 13 14 15 17 15 14 14 12 11 12 12 13 13 13 12 12 14 13 11
6 5 3 3 3 6 4 2 3 5 3 3 4 2 5 3 3 4 5 5 6 8 9 10 12 10 11 14 16 16 15 12 12 12 13 13 14 13 13 12 14 13 11 10
3 6 4 7 5 5 4 6 3 3 3 3 2 1 4 4 3 5 5 5 4 7 7 8 9 9 11 14 17 17 14 13 13 13 14 14 14 13 13 14 15 13 11 10
4 4 3 1 4 7 7 5 5 4 3 0 2 3 5 4 5 5 5 4 4 8 9 10 11 12 13 15 17 16 13 14 14 15 15 15 15 15 14 14 15 13 12 11
3 4 3 5 6 6 7 7 3 3 4 3 2 2 2 7 4 3 4 4 7 9 11 12 13 16 16 15 16 16 16 16 16 16 16 18 18 17 16 16 16 15 13 12
5 6 4 5 6 3 5 3 4 6 5 6 5 3 3 4 4 2 2 1 2 3 4 8 13 14 14 16 17 17 17 18 18 19 19 20 21 21 18 18 17 15 13 12

GFSCGP_925_spd_075.txt.gz
Wind_Speed
9 4 11 10 4 3 7 5 9 5 9 6 12 5 7 6 6 11 10 9 11 13 10 11 5 10 12 12 12 15 15 16 17 16 16 17 19 19 21 21 21 21 20 18
5 2 10 7 5 6 11 8 4 2 7 8 8 12 9 10 5 9 13 11 11 9 6 10 8 8 11 10 11 11 12 15 16 16 15 13 12 15 20 19 19 20 21 20
7 2 12 7 5 8 2 9 5 5 5 3 7 7 7 7 8 6 12 13 15 12 13 7 10 10 9 10 10 11 11 10 10 11 13 13 13 12 12 11 10 10 12 15
3 9 17 10 6 6 4 5 6 9 9 4 5 4 11 14 12 13 14 19 16 11 7 5 11 12 12 11 10 9 9 8 7 6 7 7 8 7 7 6 6 7 8 8
2 11 12 8 8 5 4 5 6 3 4 3 3 2 4 7 16 19 21 20 14 10 7 9 11 12 11 11 11 10 8 6 4 4 3 3 4 4 6 6 7 7 8 8
3 5 2 2 3 1 9 7 7 4 3 3 4 6 4 4 14 14 17 16 18 14 12 9 13 12 11 11 11 11 9 7 4 3 3 3 3 3 3 2 1 1 1 2
7 3 1 1 7 1 4 6 2 1 2 4 2 3 11 6 5 7 12 13 15 7 10 11 13 16 16 13 13 12 10 9 7 5 3 3 2 2 2 1 1 1 2 3
3 3 6 1 2 5 3 4 4 6 4 3 3 5 6 4 4 4 5 5 4 7 10 13 16 18 20 16 14 13 11 11 9 7 5 4 3 3 2 1 2 3 4 5
4 2 3 3 1 2 3 3 3 6 2 2 1 4 10 3 6 4 5 4 6 5 8 11 14 17 18 17 14 13 12 11 9 7 6 5 3 2 2 1 2 3 3 4
2 5 4 2 2 6 2 5 2 3 3 3 3 4 4 3 6 6 6 7 5 5 8 9 11 17 18 16 14 12 10 8 7 6 5 4 3 2 1 1 2 2 3 3
2 2 2 3 1 5 1 2 4 3 2 3 1 4 5 5 4 7 9 5 6 7 9 10 13 14 16 15 14 13 11 9 8 6 5 3 2 1 1 1 1 2 2 3
4 3 3 2 1 2 1 3 3 3 3 1 2 6 4 5 5 4 9 3 3 6 7 7 10 14 15 15 14 12 11 10 8 6 5 4 2 2 1 1 1 1 1 1
6 2 4 2 0 2 3 4 3 4 3 6 4 4 3 4 2 1 4 3 6 7 8 8 11 13 15 15 15 13 11 10 8 7 6 5 4 2 2 1 1 1 2 2
4 3 5 6 5 4 5 6 7 5 4 3 9 4 10 6 4 5 3 4 6 7 10 9 8 11 15 17 16 15 13 11 10 8 7 6 4 2 1 1 0 1 3 3
2 2 3 3 3 4 5 6 12 15 12 12 4 15 18 13 9 5 6 4 6 8 8 10 9 11 15 16 17 15 14 13 11 10 8 6 5 4 3 2 3 3 3 4
2 2 2 2 3 4 3 7 9 15 15 17 17 27 11 7 4 5 6 6 9 10 11 10 8 11 15 20 20 18 16 15 13 11 9 8 6 5 5 4 6 7 7 9
3 4 2 3 2 1 5 10 13 7 7 13 15 25 4 8 8 13 11 9 13 14 13 11 12 15 18 21 21 21 18 15 14 11 10 9 7 6 7 7 8 9 11 11
5 4 2 2 2 1 4 2 4 13 11 13 13 14 6 7 9 8 7 8 10 9 10 9 13 17 19 18 19 18 18 16 15 13 11 10 8 8 8 9 10 12 12 12
2 4 2 2 2 6 1 1 5 5 4 7 13 15 14 8 4 7 5 7 9 9 8 13 18 19 18 18 19 20 18 17 15 14 13 11 10 11 12 12 13 13 13 12
4 4 3 2 1 4 4 2 3 3 4 4 5 8 8 3 5 6 2 3 3 6 10 12 15 16 17 16 18 19 18 17 17 16 14 11 12 14 14 14 15 14 13 12
1 1 4 4 3 7 6 5 4 3 4 2 3 6 4 5 5 2 2 4 4 6 9 13 14 16 15 17 19 19 18 19 16 13 12 13 14 15 15 15 15 15 15 16
6 5 3 2 4 7 5 3 4 5 2 3 3 2 3 4 1 2 4 4 5 8 11 12 13 11 12 14 16 16 17 14 13 14 14 14 14 14 15 15 16 18 18 16
3 6 4 7 6 4 5 5 3 4 4 3 2 2 3 4 2 4 4 5 5 8 9 9 10 10 10 13 15 16 15 14 15 14 15 15 15 16 16 16 17 18 17 16
4 4 3 1 4 7 8 6 6 4 5 3 2 3 5 4 6 4 5 4 4 9 9 9 9 9 11 13 14 15 13 15 16 16 16 17 18 18 17 16 18 19 17 17
3 5 4 5 6 6 8 7 5 4 3 3 1 1 2 4 5 4 3 3 3 4 4 9 10 11 11 12 14 15 16 17 18 17 18 19 19 19 19 18 19 21 18 16
5 6 5 5 4 2 4 3 1 5 4 5 4 2 3 3 4 3 3 3 2 3 5 8 11 12 12 12 16 17 18 19 20 19 20 21 21 22 21 20 18 19 18 15

GFSCGP_925_spd_078.txt.gz
Wind_Speed
6 1 8 16 15 5 14 10 11 9 8 12 12 13 13 7 9 15 17 14 14 8 5 5 4 4 9 10 11 14 13 15 14 12 12 12 13 13 13 12 12 12 12 12
3 2 9 10 10 11 14 13 13 8 12 12 10 14 13 13 14 13 15 18 17 12 7 6 8 6 9 9 10 10 13 14 15 13 12 9 8 9 9 8 9 10 11 12
7 3 12 13 13 13 14 16 12 10 10 11 5 12 16 17 16 14 14 18 18 18 10 9 11 11 9 9 9 9 10 11 12 11 10 10 10 9 6 5 5 7 10 13
5 8 12 11 15 14 13 10 13 11 12 5 11 4 10 18 17 19 19 18 21 17 10 9 9 11 10 9 7 8 9 10 10 10 8 7 7 7 4 4 6 8 9 10
3 10 12 16 15 10 5 12 10 9 10 4 7 5 3 6 20 20 18 19 18 17 14 12 10 10 8 7 7 7 8 8 8 7 6 5 4 3 5 4 4 6 7 8
5 11 4 9 5 3 13 13 9 5 2 6 11 11 4 5 11 12 17 19 16 14 12 14 11 11 11 9 8 8 8 7 6 6 5 4 4 3 3 2 3 2 3 4
5 6 1 4 10 10 9 17 5 4 5 5 1 9 11 10 9 7 10 18 19 15 19 13 13 17 16 15 13 11 9 7 6 5 4 3 3 3 3 3 2 2 2 2
3 4 5 3 5 7 15 10 3 6 5 5 3 6 2 2 2 2 7 7 9 16 17 14 15 19 19 18 16 13 11 9 7 5 4 4 3 3 2 2 2 2 2 3
3 3 2 6 2 2 4 6 2 4 1 2 3 4 9 5 3 4 5 5 10 10 8 8 14 17 17 18 15 13 12 10 8 7 5 3 3 3 2 3 3 4 4 4
2 5 1 4 1 4 2 9 3 0 5 4 3 4 3 5 7 6 3 6 7 7 7 8 13 17 16 16 14 12 11 11 9 7 5 4 3 3 3 3 3 4 5 5
2 2 4 8 3 8 4 4 1 1 2 2 2 3 5 4 4 7 7 5 4 5 7 9 14 15 14 13 13 13 12 11 9 7 6 5 4 4 3 3 3 4 4 4
3 4 4 2 1 1 1 3 11 6 5 0 3 4 6 3 2 4 6 4 2 3 7 11 16 16 13 12 12 12 11 10 8 7 6 5 4 3 3 2 2 2 2 2
5 3 6 4 3 2 5 8 4 3 2 7 6 3 2 2 3 1 4 3 4 6 8 11 14 16 17 16 14 12 11 10 9 8 6 5 4 3 2 1 0 0 1 0
2 3 3 6 2 4 7 14 14 10 5 11 15 13 7 9 10 6 11 5 5 9 12 11 11 14 15 16 15 14 12 11 10 9 8 6 5 4 3 2 1 1 0 0
3 1 1 1 2 2 3 9 16 14 18 15 12 19 18 18 18 15 8 6 7 10 12 13 12 13 15 15 14 13 12 12 11 10 9 8 6 4 3 2 2 2 3 2
1 2 1 2 2 4 7 11 13 18 20 21 24 27 19 16 12 12 15 9 7 12 14 15 14 16 17 17 16 15 15 13 11 9 9 8 7 6 5 4 4 4 4 4
2 4 3 1 1 3 9 18 17 11 12 14 18 20 14 13 14 12 14 14 15 15 15 17 17 19 19 19 17 17 15 13 12 10 9 9 9 8 7 6 7 7 7 6
5 4 2 1 3 5 1 1 2 13 13 14 18 18 17 16 15 13 14 13 14 14 14 16 18 18 18 17 16 15 16 15 13 12 12 11 10 9 9 10 9 10 9 10
2 4 3 3 5 8 4 2 3 5 4 4 13 13 12 11 10 16 16 12 13 9 10 15 17 15 16 17 16 16 15 13 13 14 14 13 11 10 11 12 13 13 12 11
1 1 4 3 3 4 2 2 3 2 4 3 4 8 9 5 6 5 7 5 6 6 6 9 10 12 14 14 15 15 14 14 15 14 13 12 11 11 12 14 15 15 14 12
4 3 8 7 5 6 5 5 3 4 3 2 4 7 7 4 5 6 6 3 2 2 5 9 10 11 12 13 14 13 14 16 14 13 12 12 11 12 14 15 15 16 14 12
6 5 4 5 5 7 7 5 5 2 0 3 5 5 6 6 5 3 1 2 3 7 8 8 10 9 9 11 13 13 14 12 12 12 12 11 12 14 15 15 15 15 14 11
4 4 2 6 4 2 8 6 6 2 4 3 4 4 5 4 3 2 2 3 4 5 7 7 8 9 8 10 11 12 12 12 12 11 11 11 13 15 15 16 16 15 14 13
5 5 3 1 6 12 12 10 10 6 10 7 6 4 4 4 4 3 4 3 3 4 5 6 9 9 9 10 11 10 12 12 12 12 12 12 14 15 15 14 15 15 15 15
0 6 4 8 9 12 12 11 9 7 7 6 4 3 2 3 4 4 4 3 3 4 3 5 5 6 7 9 11 12 13 14 14 13 12 13 16 17 16 15 17 16 16 17
6 8 7 8 5 5 4 3 3 5 7 7 7 5 1 3 4 2 4 4 3 3 3 4 5 7 8 9 11 13 15 16 15 14 14 14 18 18 16 14 15 19 18 20

GFSCGP_925_spd_081.txt.gz
Wind_Speed
3 2 4 22 21 16 17 17 20 16 11 14 14 13 15 12 12 20 22 18 14 10 5 3 3 3 8 11 13 14 15 15 15 15 13 13 13 11 11 10 10 10 10 10
3 2 8 10 14 7 16 14 9 6 7 10 14 16 16 16 18 18 22 23 20 14 10 5 4 3 7 10 12 13 14 14 15 13 12 11 9 10 9 9 8 9 9 10
6 2 5 10 12 17 13 15 15 13 10 12 7 14 15 18 18 17 18 19 22 21 15 10 7 5 7 9 9 9 10 11 11 11 10 10 6 5 5 6 7 8 8 13
2 6 6 10 11 12 14 11 15 13 12 6 15 6 18 19 19 19 18 16 19 22 17 11 8 5 9 8 7 6 7 8 8 11 9 10 10 9 5 4 7 6 6 7
3 2 7 12 12 8 11 5 10 9 11 5 13 6 12 4 15 17 16 18 18 16 18 15 13 9 9 8 7 8 7 7 7 7 7 7 6 4 4 4 4 4 6 7
9 6 1 3 4 2 8 11 5 5 6 7 14 10 9 7 5 9 14 18 17 17 15 17 17 13 11 11 11 10 9 8 8 7 6 5 5 4 4 3 3 3 3 4
4 2 3 3 7 4 14 15 5 4 4 5 3 9 13 5 5 6 7 9 15 16 16 16 13 16 16 16 15 14 13 10 8 8 6 5 5 3 3 2 2 3 3 2
2 2 6 7 6 6 14 14 4 5 6 9 4 6 4 2 2 1 4 8 7 12 13 15 16 14 15 15 15 15 14 11 9 8 7 5 4 3 3 2 1 1 2 2
3 3 4 4 2 4 10 10 3 3 3 1 6 8 8 2 6 5 4 5 7 6 8 3 9 15 14 14 14 14 14 12 10 8 7 6 4 4 2 1 1 1 2 4
4 4 3 4 3 1 4 8 3 2 4 4 4 6 3 6 6 4 1 3 5 6 6 5 7 12 14 14 14 12 12 12 10 8 7 5 4 3 2 1 0 1 2 4
1 3 3 6 3 8 4 4 4 3 3 3 1 3 7 9 6 7 7 4 1 4 5 4 7 13 17 17 16 14 12 11 10 7 6 5 3 2 2 2 2 3 3 4
2 4 3 4 4 6 8 10 13 4 5 3 5 1 8 7 5 4 7 5 3 1 4 5 8 13 15 17 18 16 15 13 11 9 7 6 4 3 2 1 2 2 2 3
2 3 4 4 5 5 7 10 8 9 3 6 6 3 3 3 5 3 3 6 2 2 6 8 10 13 15 16 17 18 16 14 12 10 9 7 6 5 4 3 1 1 1 1
3 3 4 3 3 1 7 13 14 9 4 11 15 15 5 5 8 8 8 7 6 5 7 9 10 13 16 16 15 14 14 13 11 9 8 8 7 6 5 4 3 3 2 2
3 2 1 3 1 3 4 9 15 15 17 13 14 18 15 15 14 13 9 5 6 6 8 10 11 12 16 16 16 15 14 13 12 10 9 8 7 6 5 4 4 3 2 2
3 2 1 3 5 5 8 12 14 16 20 21 22 23 19 19 19 17 13 13 15 9 11 13 13 15 18 18 17 16 14 13 12 11 10 9 8 7 6 5 5 4 4 3
3 2 2 2 2 5 10 18 18 17 15 14 17 17 16 15 15 12 12 12 13 13 13 13 15 17 19 20 19 18 16 14 13 12 12 11 10 9 8 6 5 5 5 6
4 5 2 3 3 4 2 2 2 6 13 15 14 16 15 14 14 14 14 15 12 11 11 13 14 18 20 18 18 16 16 15 14 14 13 11 11 9 8 7 7 7 7 7
3 5 3 3 6 12 15 2 2 3 7 5 8 6 7 7 9 13 8 13 16 14 9 11 16 19 19 18 17 16 15 14 13 12 11 11 10 9 9 9 9 11 10 9
2 5 5 2 4 4 6 4 1 0 6 6 2 3 5 6 6 3 9 9 9 9 8 7 8 11 15 16 16 16 14 13 13 12 11 11 11 10 10 10 12 12 11 11
4 6 10 9 6 7 2 7 3 4 3 1 2 4 6 6 6 9 10 7 6 5 1 3 7 11 13 15 16 15 14 14 12 11 11 11 10 10 9 10 12 13 13 11
7 5 6 7 6 8 8 6 5 3 2 2 4 5 6 7 6 5 4 2 2 2 4 6 9 10 10 11 12 12 11 11 10 11 11 10 10 11 13 14 14 13 14 12
4 8 5 5 3 4 7 8 6 6 7 5 6 6 5 6 4 2 1 1 2 3 5 5 9 10 8 8 8 9 10 11 12 12 12 11 11 11 13 15 14 15 15 12
5 7 4 3 6 9 11 11 12 11 11 10 8 8 5 5 4 1 2 2 3 4 4 3 4 5 6 7 7 6 9 11 12 12 11 10 11 12 13 14 16 17 17 15
6 4 6 12 14 15 16 13 11 11 7 8 7 7 6 5 4 3 3 3 2 3 3 1 1 2 3 5 6 7 9 12 14 13 11 10 11 14 16 16 18 18 16 18
8 10 10 11 10 9 11 7 6 7 7 9 9 7 4 4 5 5 4 3 2 1 1 1 2 2 4 5 7 10 11 14 15 16 14 13 13 13 17 17 14 16 16 16

GFSCGP_925_spd_084.txt.gz
Wind_Speed
5 2 6 16 18 12 12 10 13 10 10 11 8 9 7 7 5 7 7 8 6 6 10 11 8 5 7 11 13 17 19 19 20 20 19 18 18 16 13 11 11 9 9 8
4 2 3 3 11 16 14 16 7 7 4 9 10 11 12 12 12 12 13 16 14 11 9 13 14 11 9 10 14 17 18 19 18 20 18 16 15 15 14 14 12 9 11 13
3 3 3 4 3 12 17 15 13 10 13 6 5 10 11 8 8 12 11 11 13 18 8 9 14 13 11 10 12 12 14 15 17 16 17 16 16 14 13 11 11 10 11 12
5 1 5 7 13 8 9 12 12 14 7 4 7 4 12 14 10 10 9 9 9 13 15 10 14 16 16 12 10 10 10 10 15 17 13 14 10 6 5 9 11 12 12 12
5 7 4 11 6 8 3 8 8 11 9 5 5 2 6 11 11 12 11 9 9 9 8 10 14 19 18 17 15 12 12 12 14 13 10 10 8 9 10 8 8 6 6 7
5 4 6 9 6 6 8 11 4 5 0 1 7 6 5 6 6 6 9 11 10 9 9 7 21 25 24 20 15 15 14 13 11 11 12 12 12 10 8 7 6 5 4 5
5 6 8 5 3 5 2 6 3 2 2 3 1 5 8 6 6 5 1 4 7 10 9 7 10 14 18 23 23 18 16 15 12 11 10 10 10 10 9 8 8 6 5 3
3 1 3 2 3 2 5 5 3 4 4 4 2 3 4 3 8 7 5 4 5 7 7 9 12 20 19 16 17 21 18 16 14 15 12 10 9 9 10 9 7 7 6 5
3 3 3 2 5 5 5 3 1 3 2 4 4 6 1 5 4 6 7 5 4 3 4 6 12 23 25 20 18 17 18 18 15 14 13 11 10 8 8 7 6 5 4 5
2 5 2 3 5 3 3 1 1 2 2 1 3 3 3 7 6 4 4 3 4 1 2 5 4 16 23 23 20 18 19 18 16 14 13 12 12 9 6 7 5 4 3 4
4 4 2 2 2 3 2 0 1 2 3 1 1 3 8 10 7 7 7 5 3 0 4 4 4 11 23 23 25 23 20 20 17 15 15 13 9 9 8 5 4 4 4 4
2 3 3 1 5 3 4 4 4 3 3 1 1 4 8 9 6 7 6 5 4 3 2 3 7 13 17 18 21 28 27 24 23 18 10 9 10 8 6 4 3 2 3 4
3 2 3 1 2 5 5 6 6 2 4 3 2 4 3 7 6 5 5 4 6 5 3 4 5 9 16 19 17 18 19 18 18 18 17 12 9 8 6 5 3 2 2 2
3 2 2 2 1 1 5 7 7 5 2 4 7 7 3 4 5 7 7 2 4 7 7 5 6 8 14 17 18 20 21 21 19 17 15 12 10 8 7 6 4 4 3 1
2 2 3 2 3 2 2 4 8 7 9 5 7 12 10 7 4 6 7 5 4 1 7 7 6 6 16 20 21 19 18 19 18 16 14 12 10 9 8 5 4 5 4 6
3 2 3 3 7 6 6 7 9 10 13 12 16 17 15 14 13 9 7 4 5 6 5 9 9 10 15 20 22 22 23 20 17 17 16 15 14 12 9 8 7 6 4 3
3 3 1 2 2 5 6 14 14 9 8 8 14 13 10 8 6 5 6 6 7 7 7 7 10 12 18 23 23 24 24 22 21 19 16 15 13 12 12 10 8 7 5 5
2 2 1 2 1 3 6 2 4 2 6 11 11 8 6 6 4 6 6 6 7 7 6 6 8 19 23 23 25 24 23 23 20 18 17 16 14 13 12 10 9 9 7 7
1 3 1 1 3 8 6 4 1 2 5 6 5 3 3 4 5 5 6 6 6 7 6 5 8 11 26 25 27 26 24 23 20 19 18 16 16 15 13 11 10 11 10 10
2 2 2 3 1 3 2 3 3 2 4 5 3 0 2 3 2 2 5 6 7 11 6 5 10 13 23 24 28 26 24 22 20 19 18 17 16 16 13 13 13 12 12 12
2 2 5 5 3 7 1 6 1 2 2 2 2 3 3 3 4 3 5 5 6 8 9 7 4 7 18 22 24 22 20 20 18 17 16 16 16 15 13 13 13 12 14 13
5 4 4 4 4 6 3 4 3 2 1 2 4 5 4 5 6 3 2 2 3 5 6 5 11 14 14 16 17 16 17 15 16 16 16 16 15 12 13 14 13 13 14 13
1 3 2 2 1 3 6 6 5 5 3 5 4 5 4 5 5 2 0 1 3 3 3 6 9 9 8 9 11 13 14 16 15 15 15 15 14 12 12 13 13 13 14 15
5 4 1 6 4 6 6 6 6 6 6 7 6 6 5 5 6 2 4 3 4 5 5 6 7 7 8 8 9 11 13 13 14 14 14 14 13 13 10 12 13 15 16 16
3 5 5 6 7 9 8 8 7 7 7 7 6 5 6 6 5 3 3 4 5 6 6 6 6 6 7 7 8 9 11 13 14 14 13 14 13 13 12 14 16 17 18 19
2 5 3 3 12 5 9 8 9 6 7 7 7 5 4 2 5 5 6 6 5 4 2 3 5 3 3 4 6 7 9 12 14 15 15 17 14 14 15 16 16 15 15 15

GFSCGP_925_spd_087.txt.gz
Wind_Speed
3 3 6 8 5 10 7 13 16 5 11 11 10 6 7 6 4 5 5 5 4 6 7 15 12 9 11 23 24 26 26 23 19 27 22 22 24 20 18 16 16 15 14 15
4 2 4 5 11 9 13 9 8 6 15 8 8 7 11 8 6 8 10 9 8 5 6 10 15 14 14 13 23 26 27 23 22 24 23 23 24 20 16 11 12 15 14 12
3 4 4 8 5 7 2 8 5 9 6 6 11 8 16 7 8 8 8 7 8 9 10 7 15 20 17 15 20 24 25 24 22 24 21 18 19 18 16 14 14 13 13 15
3 5 6 6 3 5 6 9 11 8 7 2 5 3 12 14 11 8 10 8 9 9 8 8 13 18 22 21 17 17 18 23 24 25 27 25 24 19 17 18 18 15 13 13
6 9 8 9 2 6 2 15 17 11 5 7 8 2 6 10 9 11 11 11 10 10 8 10 14 26 27 25 23 20 17 19 23 24 26 21 19 16 16 17 16 14 13 12
7 4 4 2 4 6 5 5 9 4 2 2 5 5 5 5 16 7 5 9 10 10 10 9 26 27 28 28 26 23 17 14 15 16 17 17 18 18 17 15 13 11 9 8
1 3 4 1 4 9 3 4 2 3 3 4 3 4 7 3 5 8 8 9 8 8 9 8 9 13 17 22 24 24 23 17 14 14 13 16 17 17 16 15 14 13 11 9
5 6 8 8 4 4 7 2 4 5 3 3 1 5 5 6 5 5 5 7 5 2 7 7 10 18 25 24 21 19 21 22 18 18 18 17 16 16 17 16 15 13 12 9
4 3 5 3 3 3 4 3 4 4 3 4 3 5 6 3 4 3 2 3 3 4 3 7 9 22 27 25 24 22 20 19 19 19 19 17 17 16 16 15 14 13 11 10
3 4 4 4 4 2 2 3 4 3 2 3 3 3 4 5 5 4 4 3 5 3 5 4 6 15 24 25 23 22 23 24 21 18 16 16 12 12 12 11 11 11 10 9
2 4 2 2 2 2 4 3 2 2 4 3 1 5 5 8 7 7 5 4 4 6 3 2 3 10 18 21 23 23 25 26 24 22 19 17 13 11 10 7 8 8 9 6
2 4 3 1 2 1 0 1 1 3 3 1 3 4 2 7 7 7 5 4 2 2 2 1 2 11 17 19 21 24 28 26 27 27 21 19 18 15 12 11 7 7 5 4
2 1 3 3 5 3 3 4 3 2 3 2 4 4 2 4 6 6 7 7 5 5 4 3 4 6 13 19 22 22 24 22 22 22 26 24 16 15 15 12 11 7 4 5
2 2 5 5 4 4 4 5 5 4 3 4 5 4 3 5 6 6 6 3 6 7 7 6 5 8 13 17 19 19 19 20 22 19 17 18 18 16 15 12 7 6 7 7
3 2 4 2 3 3 2 3 6 6 7 5 8 10 13 6 1 2 5 7 7 7 7 8 8 7 16 18 19 19 21 21 22 20 19 17 17 16 13 10 9 9 8 7
2 3 4 4 4 4 3 6 7 7 6 8 10 12 9 7 10 5 6 5 7 6 8 9 11 12 18 25 24 23 24 25 23 22 20 18 18 17 13 11 10 8 7 6
3 3 2 4 3 4 6 7 9 4 6 6 9 16 2 6 8 5 5 4 5 7 8 8 9 14 21 27 30 30 29 26 24 23 21 20 19 17 15 12 11 9 7 5
3 5 4 3 2 0 6 0 1 7 7 8 8 9 6 3 1 1 4 4 6 7 7 8 7 17 24 29 31 32 30 30 27 24 22 21 19 18 16 14 12 8 7 7
2 2 1 2 2 6 2 2 1 2 5 4 2 3 4 2 1 3 3 3 4 5 8 14 12 8 24 28 34 34 32 32 28 25 24 22 20 19 18 15 12 10 9 9
1 5 3 2 1 3 2 3 1 2 4 4 4 5 4 4 4 4 5 4 6 10 11 14 16 10 10 27 35 34 31 31 29 26 23 21 20 19 18 14 10 10 10 10
1 1 4 2 2 6 5 2 2 1 5 3 0 2 3 3 5 5 4 5 6 8 11 12 8 4 8 22 33 28 29 28 27 21 21 21 19 17 16 13 11 11 11 12
5 4 3 2 1 5 3 2 1 4 3 4 4 3 4 5 6 5 5 3 4 6 7 7 9 12 8 17 29 26 25 21 19 19 19 19 17 17 15 14 11 11 13 14
0 5 3 6 4 4 4 6 3 3 6 6 5 7 7 7 5 6 4 3 2 2 2 4 6 7 9 9 13 16 16 17 19 19 20 19 18 17 15 15 14 13 14 15
5 3 1 3 2 4 3 3 4 5 6 8 5 6 6 8 7 7 5 5 4 4 2 3 6 7 6 5 6 9 14 15 17 18 17 17 17 15 14 13 15 17 17 17
4 4 4 4 5 9 5 9 5 8 12 13 15 7 8 9 8 7 6 6 8 9 6 5 5 5 5 4 4 6 10 12 14 15 16 17 17 16 15 14 16 19 18 18
1 1 1 3 4 5 10 6 7 7 6 9 10 14 10 7 8 6 5 5 8 7 7 9 9 7 6 5 5 6 7 11 13 14 16 18 19 17 15 15 15 16 15 15

GFSCGP_925_spd_090.txt.gz
Wind_Speed
2 3 5 7 8 1 11 13 10 11 10 5 8 4 8 5 6 8 8 5 6 7 4 10 20 20 19 23 22 22 27 25 25 25 27 27 24 19 16 17 21 22 21 18
3 2 8 5 8 4 8 14 7 11 15 5 8 6 6 3 8 11 11 8 8 5 6 8 12 20 25 27 26 27 28 27 27 27 33 28 27 24 22 19 20 17 21 19
1 3 10 5 4 4 5 13 11 9 7 6 7 4 9 7 16 18 9 8 7 10 8 7 10 18 20 22 27 27 29 29 26 25 29 25 24 22 20 17 14 17 19 17
4 4 9 9 2 4 6 7 13 15 7 2 1 2 8 13 12 12 15 8 9 9 6 7 11 15 18 23 24 27 29 28 27 26 29 30 26 20 23 23 20 16 13 16
1 9 9 4 4 3 4 10 11 17 9 5 2 2 6 4 15 14 12 13 10 10 9 10 12 24 24 22 23 27 28 29 29 29 30 30 27 25 23 23 22 22 20 17
7 2 4 4 4 4 7 10 11 9 3 1 7 6 4 5 11 15 6 9 10 10 9 9 23 28 27 23 21 23 23 25 27 28 30 30 28 25 24 23 24 21 17 13
6 6 6 5 6 10 12 6 3 2 2 3 7 8 9 8 6 9 10 10 11 9 8 8 8 13 22 23 22 21 21 21 20 18 18 19 20 22 22 22 23 21 18 13
3 4 6 7 4 4 4 4 3 4 4 3 5 5 5 4 4 3 3 3 5 7 8 9 9 17 24 30 28 24 22 19 17 17 14 14 15 16 17 17 16 16 14 10
4 5 4 3 3 2 3 4 3 6 4 4 3 5 5 3 4 4 5 5 2 3 4 6 9 17 23 28 29 28 25 22 19 18 19 18 15 19 13 14 13 10 8 8
3 4 2 3 0 1 2 2 3 4 3 2 3 4 3 2 5 1 2 2 3 3 4 6 2 11 20 25 29 22 20 20 19 18 19 19 19 11 15 11 9 11 9 7
3 4 4 4 4 2 4 3 4 3 3 4 3 5 5 8 7 8 5 3 1 3 1 3 3 6 14 20 18 19 20 21 21 21 20 22 17 22 13 12 11 11 10 8
3 3 3 1 3 1 1 2 3 4 3 1 2 5 5 4 6 6 5 3 1 2 4 2 0 4 10 14 16 18 20 22 23 22 21 20 26 21 20 18 17 14 10 10
1 2 3 7 5 4 2 1 3 4 3 2 3 4 4 3 2 5 3 3 4 4 2 1 1 4 9 11 14 16 18 21 21 21 21 20 20 21 24 21 17 13 12 10
3 3 5 5 5 2 2 2 3 4 3 3 5 3 3 4 5 5 2 5 5 6 5 4 4 6 9 12 14 17 19 22 21 22 20 20 18 17 15 14 14 14 11 11
3 3 2 3 3 4 3 3 3 5 5 4 2 6 7 6 6 5 6 5 7 8 7 8 8 7 15 16 18 20 22 23 23 23 23 22 20 17 17 15 13 11 11 10
2 1 2 3 3 4 3 5 6 6 3 7 9 13 9 8 5 6 7 5 5 7 7 7 7 8 12 20 24 24 24 24 24 25 24 21 20 20 17 15 13 11 10 8
2 3 2 3 4 5 5 5 4 2 3 4 7 9 6 6 7 7 5 4 6 6 7 7 7 11 20 25 26 27 26 25 26 25 23 22 21 20 20 15 12 10 9 10
4 3 2 1 4 2 5 4 3 5 6 5 8 10 7 6 3 1 1 2 4 5 6 7 9 15 18 24 26 27 26 27 28 27 26 24 24 22 18 15 13 12 10 10
2 4 2 2 2 5 1 2 1 1 5 1 3 4 2 3 3 4 4 3 5 5 7 12 15 16 16 19 27 29 28 30 29 28 26 25 24 22 20 18 16 13 10 11
4 5 3 2 2 4 5 3 2 2 4 4 2 3 3 3 4 4 4 4 6 8 11 14 16 17 15 16 24 29 29 29 31 32 29 25 24 22 21 20 17 14 12 12
2 2 4 2 2 6 5 4 2 1 5 2 2 4 4 4 5 5 5 6 6 8 11 11 11 12 14 15 21 27 27 30 33 29 25 24 24 22 21 19 17 13 12 11
5 5 3 2 2 5 1 1 3 3 5 5 6 7 8 8 8 7 8 8 7 7 7 6 6 7 8 8 19 22 27 30 26 23 22 23 23 21 20 18 15 12 11 11
1 4 3 6 4 1 3 1 1 3 3 5 6 9 8 9 7 8 7 8 7 9 7 6 5 3 6 3 13 16 16 17 19 20 21 21 20 20 19 19 18 15 14 14
2 2 1 2 1 3 6 4 4 4 7 7 6 8 8 11 12 9 8 7 6 9 8 6 5 4 1 4 6 10 14 17 19 20 20 20 20 19 18 18 17 17 17 17
4 2 1 4 5 7 2 6 6 7 9 11 11 11 11 10 14 17 12 7 8 11 10 9 8 6 7 7 7 9 12 14 16 17 18 19 20 20 19 18 18 19 18 19
2 3 3 4 2 3 6 5 7 12 14 14 16 15 15 13 11 15 16 9 11 11 9 9 9 9 9 9 11 10 10 12 14 14 16 18 19 19 18 16 16 15 15 15

GFSCGP_925_spd_093.txt.gz
Wind_Speed
3 3 6 5 4 3 13 5 10 4 11 10 7 14 3 5 5 4 4 4 7 6 3 8 14 16 19 27 32 36 34 35 36 37 38 28 31 30 26 23 24 26 22 19
3 2 7 7 2 3 12 9 12 14 16 6 5 7 4 5 3 2 3 5 6 5 5 4 6 13 21 23 28 31 36 39 41 38 34 31 31 26 25 23 22 25 27 23
3 6 9 5 3 8 4 13 8 14 7 5 7 4 5 5 7 7 5 7 5 8 7 6 6 10 15 20 23 27 29 32 34 36 34 28 25 25 27 24 22 24 23 23
3 7 9 5 7 8 4 4 17 19 4 3 4 1 7 7 9 10 9 7 9 9 6 6 7 12 17 22 24 27 26 28 29 32 30 29 27 22 30 31 25 24 23 22
2 8 6 6 3 1 3 14 14 13 7 3 3 2 4 3 14 11 9 10 10 10 9 9 10 19 22 22 21 21 24 24 25 28 28 29 28 27 24 28 30 25 21 19
5 1 4 4 3 7 9 18 13 6 3 1 5 2 3 5 7 6 15 9 9 9 9 8 16 20 22 21 19 18 19 22 23 25 27 27 28 26 24 23 21 19 15 12
7 6 5 4 8 11 14 5 3 2 1 3 6 4 8 7 8 7 9 10 10 8 6 7 8 12 20 23 23 20 19 21 22 24 26 27 26 24 20 18 19 18 14 12
5 5 9 9 3 4 3 1 3 4 4 2 3 4 5 3 7 5 4 2 4 6 4 6 7 14 19 23 25 22 20 19 19 17 17 18 21 23 19 16 15 13 8 6
3 4 5 7 4 3 3 5 0 5 2 4 3 6 8 4 5 5 7 7 7 7 4 5 7 12 22 21 25 26 22 16 14 13 12 12 13 16 21 17 16 15 9 10
2 5 4 4 3 5 2 3 1 2 3 1 4 4 4 2 2 3 4 6 6 5 6 5 6 7 8 13 16 21 19 16 14 12 12 12 14 16 16 17 16 15 14 10
3 4 3 2 4 3 4 3 5 4 3 3 2 5 3 6 3 2 1 3 3 4 4 5 6 5 1 5 8 13 13 12 13 13 13 13 16 19 20 21 19 15 11 8
1 4 3 1 3 1 0 3 3 4 2 2 3 4 3 4 2 2 3 5 6 5 4 5 6 7 4 1 5 9 10 12 13 14 15 18 19 19 19 21 22 18 18 14
1 2 3 6 5 5 3 2 4 4 3 2 4 4 3 5 5 2 2 4 4 5 7 6 6 7 5 3 5 9 11 13 15 17 17 17 17 18 18 15 13 11 11 12
3 3 4 5 3 3 2 0 1 4 3 2 4 4 4 3 2 4 4 4 6 6 6 5 6 7 7 6 9 12 15 18 20 21 21 20 20 18 14 11 8 8 9 9
3 3 3 2 1 2 1 2 4 4 4 4 2 5 5 6 5 6 6 6 7 8 8 7 6 5 8 10 12 15 18 19 21 23 22 21 18 16 16 13 10 9 9 10
3 1 2 4 6 1 2 4 4 4 4 6 5 9 7 9 4 5 8 7 7 7 6 6 6 7 11 15 18 18 20 23 23 24 23 21 20 20 17 14 12 11 11 11
3 3 2 2 4 4 3 2 3 2 2 3 4 7 3 6 7 7 7 7 6 6 7 7 7 7 12 16 21 23 25 22 24 24 23 22 22 20 17 16 15 14 12 10
3 3 2 1 4 2 5 3 4 5 4 5 6 6 7 6 6 7 4 3 5 5 6 7 8 13 18 17 18 21 24 24 26 25 25 24 23 21 20 18 17 15 13 11
2 3 3 2 1 5 1 1 1 2 5 3 3 5 4 5 5 6 5 5 6 6 7 13 16 19 21 21 20 18 21 26 27 28 27 25 24 23 22 21 18 16 13 11
4 5 3 1 2 3 4 2 2 2 4 3 3 5 6 5 4 4 4 4 8 13 14 15 15 16 18 22 16 16 23 26 29 32 31 27 26 26 25 23 20 16 13 9
2 3 3 2 2 6 4 4 0 1 4 7 5 6 7 5 5 7 9 7 9 14 15 13 14 15 16 17 14 17 21 26 34 30 28 27 27 26 24 21 19 16 12 9
5 5 3 2 2 6 3 2 0 3 4 4 6 5 7 8 11 10 12 13 11 10 16 14 13 13 14 14 12 18 23 26 25 26 27 27 26 25 23 21 19 16 13 11
1 4 4 6 4 2 2 3 3 2 4 5 7 7 7 11 10 10 9 12 13 20 16 15 13 13 12 11 9 13 17 16 18 21 25 25 24 24 22 22 20 17 15 12
1 2 2 1 3 3 4 0 4 5 4 7 9 11 12 15 14 14 13 13 12 20 20 19 13 11 11 8 5 7 10 15 20 23 21 22 23 22 20 21 20 19 18 16
4 3 3 3 3 5 1 2 4 4 5 10 11 10 15 17 18 16 15 14 15 18 24 20 15 12 10 5 3 7 11 16 19 18 18 18 18 20 20 20 21 20 19 18
4 5 4 4 3 3 5 5 6 7 11 9 13 15 17 18 19 18 18 19 18 19 24 18 15 11 10 5 3 5 9 12 15 15 16 17 18 18 19 19 16 16 16 15

GFSCGP_925_spd_096.txt.gz
Wind_Speed
3 3 6 15 12 9 5 4 7 3 12 6 9 8 14 13 4 5 3 3 3 3 1 6 19 28 30 30 40 36 34 30 32 29 23 32 33 35 32 31 27 26 26 24
4 6 7 8 9 11 11 9 10 14 13 5 6 6 12 11 5 4 3 2 2 1 2 4 6 15 26 34 32 33 39 37 36 34 31 23 21 29 32 27 26 28 30 27
6 2 11 7 7 10 5 13 9 9 10 4 5 4 4 5 5 4 5 4 2 0 2 1 8 13 17 24 30 32 36 35 33 32 27 28 33 31 26 27 27 26 27 28
5 4 6 7 5 9 6 9 13 18 9 4 2 2 4 4 11 6 7 5 6 5 2 3 4 7 14 19 21 27 29 31 34 33 33 33 26 24 29 33 31 26 24 25
1 5 6 2 3 8 3 13 12 10 5 5 4 2 4 3 8 9 6 7 8 8 6 7 7 13 12 10 12 15 17 23 23 26 30 32 33 34 32 33 27 21 19 15
4 2 3 3 3 8 12 15 7 3 2 3 4 2 5 2 6 2 4 8 7 7 7 7 13 13 17 14 14 14 14 17 18 21 22 25 25 22 22 16 16 13 11 9
7 14 3 5 10 7 7 5 3 3 3 2 1 1 6 3 7 3 8 9 7 6 6 7 7 10 15 15 17 15 15 17 16 17 18 20 21 19 19 17 17 19 16 10
5 5 10 12 5 4 4 3 3 4 3 2 5 3 4 2 6 4 1 3 3 6 4 5 7 12 15 18 17 17 17 17 14 13 12 15 18 18 16 17 17 21 19 13
4 5 4 5 2 2 4 4 2 6 4 4 1 5 6 4 6 6 7 8 8 7 5 4 1 5 12 16 17 14 15 15 12 11 10 8 9 10 13 15 17 21 17 16
2 5 4 5 3 4 3 1 2 3 4 2 1 3 3 8 7 6 8 8 7 6 6 5 5 8 8 8 10 11 11 12 10 9 8 9 8 8 10 16 21 22 20 18
2 3 2 2 4 3 5 3 4 5 4 3 2 3 3 7 6 3 6 6 6 7 6 6 7 10 7 3 3 5 9 12 11 9 9 9 9 10 14 17 18 18 18 17
4 4 4 2 4 2 2 2 3 4 1 2 2 3 2 4 2 4 4 4 3 3 4 4 5 7 7 3 1 5 9 12 13 14 14 14 14 15 18 20 21 20 20 16
1 3 3 6 5 4 4 3 3 5 4 1 3 4 3 3 5 4 4 5 5 6 6 3 2 2 2 2 3 8 11 12 13 14 14 16 18 19 20 19 18 16 12 12
4 3 3 5 3 2 2 3 3 4 3 3 4 3 4 7 6 7 6 5 6 7 8 7 7 6 8 6 4 4 6 9 14 17 17 17 18 19 19 19 19 14 11 9
4 4 3 3 1 3 2 3 2 2 2 4 3 5 6 7 6 7 6 6 8 9 8 7 6 6 10 11 10 7 7 9 11 14 17 18 17 16 17 16 14 15 13 11
3 1 2 5 7 5 1 1 2 3 3 4 4 7 5 5 5 6 8 8 8 8 7 6 7 8 11 12 14 12 13 13 14 16 19 18 17 18 19 18 17 15 13 12
3 3 3 3 4 3 3 1 0 2 1 1 2 5 5 7 7 6 7 6 7 7 7 8 7 8 13 16 16 17 18 17 17 20 20 20 20 21 22 21 18 15 14 12
3 3 2 1 4 3 5 3 4 4 4 3 4 6 6 5 7 7 6 5 7 7 7 8 9 15 20 20 21 21 18 17 20 23 23 22 23 24 22 20 18 17 15 12
4 3 3 2 1 4 1 2 2 3 3 7 5 8 6 8 7 6 8 7 6 7 9 15 22 23 24 24 25 23 22 19 19 27 28 28 27 26 24 23 21 19 16 13
4 6 4 1 2 2 4 1 0 2 1 6 6 7 7 8 5 4 7 10 11 18 19 21 26 24 24 28 21 19 22 20 23 30 33 31 29 29 29 27 25 21 17 14
2 3 3 2 2 6 3 5 1 2 3 5 4 4 5 2 5 9 12 10 12 16 21 26 24 23 27 24 21 22 22 22 28 25 28 28 29 30 30 27 26 22 18 15
5 4 2 2 1 5 2 1 1 1 3 5 4 5 6 9 11 11 12 14 12 13 16 23 22 24 27 21 17 23 22 25 22 21 25 28 30 29 27 26 23 21 19 17
2 5 4 7 4 2 1 5 4 2 3 3 4 6 8 12 13 14 14 16 14 20 21 21 19 25 26 22 17 20 24 17 17 20 24 28 28 28 28 28 26 24 21 18
2 2 2 1 2 4 1 4 3 1 1 4 5 8 8 12 17 19 18 18 17 25 25 22 21 19 23 22 16 17 16 11 16 21 23 25 27 27 25 25 26 25 23 19
4 4 4 3 4 2 2 3 1 1 3 6 7 7 12 14 15 16 16 16 19 25 24 21 22 21 20 17 12 12 8 9 14 17 20 22 24 23 22 22 23 22 19 19
5 6 5 5 5 4 2 2 2 4 5 7 10 12 12 15 16 16 15 22 24 24 23 22 26 20 19 12 10 9 8 10 14 15 18 20 22 21 20 19 16 16 15 14

GFSCGP_925_spd_099.txt.gz
Wind_Speed
5 4 6 11 11 2 2 9 11 4 11 8 7 1 5 12 11 15 9 8 2 11 9 16 10 18 26 19 21 14 17 29 32 24 21 18 22 25 21 25 23 22 23 23
4 8 8 11 10 9 2 10 6 9 11 4 6 2 5 7 12 13 10 6 3 4 7 15 20 23 32 36 38 25 29 31 33 26 22 23 20 17 18 20 21 25 24 25
10 4 10 8 9 10 7 12 7 13 10 8 5 6 7 8 10 8 11 7 3 4 10 8 11 16 25 31 34 41 36 35 34 26 24 21 19 23 23 19 21 27 24 23
6 5 8 10 7 10 9 7 14 16 6 5 2 1 5 3 5 9 8 4 2 1 2 4 6 7 11 21 34 39 34 37 36 30 25 24 24 16 22 25 26 18 20 20
5 5 3 5 7 13 3 9 16 8 9 10 1 2 4 2 1 8 6 1 3 3 3 4 4 6 5 4 14 24 29 34 33 37 36 37 29 26 34 32 27 19 19 18
3 2 1 2 1 4 10 7 5 3 0 4 1 2 2 2 1 6 5 4 5 4 5 4 2 5 6 6 9 11 15 21 21 23 25 26 26 28 25 29 27 26 21 20
3 3 3 2 7 3 5 4 2 4 4 2 4 1 3 2 2 4 7 7 7 5 5 3 4 5 7 6 8 12 14 16 14 15 18 18 19 16 18 23 22 23 22 21
5 5 8 7 3 3 3 2 3 5 4 3 3 4 2 3 6 5 6 6 5 3 1 2 4 8 11 9 8 9 13 14 12 11 13 13 13 12 14 17 19 22 25 24
2 5 3 5 4 3 6 4 1 6 2 3 2 2 1 4 9 7 7 5 5 5 6 6 5 5 7 9 10 10 10 12 12 11 10 9 9 10 12 14 16 21 22 23
2 4 3 3 2 5 1 0 1 3 4 4 3 2 2 7 7 5 6 6 6 5 5 5 5 6 6 6 6 6 8 9 11 12 11 10 9 8 8 12 16 19 22 24
2 3 2 2 4 2 3 2 5 4 2 4 3 2 2 5 4 3 4 4 5 5 4 4 4 10 9 6 4 3 3 6 9 9 10 9 8 9 10 12 16 22 24 22
3 3 4 1 4 3 2 3 3 3 3 4 3 1 2 2 1 3 4 5 4 5 6 5 7 10 11 11 7 3 3 5 7 9 9 10 11 12 15 18 20 21 22 20
1 3 3 6 3 2 5 4 4 4 2 2 4 2 2 3 4 5 5 4 3 4 6 5 6 7 10 11 8 5 1 4 7 9 9 11 12 14 15 16 18 20 21 20
4 4 3 4 2 1 4 4 3 3 3 2 1 0 1 6 6 7 6 6 7 7 5 4 4 6 8 9 11 10 7 5 6 8 10 12 13 14 16 18 20 21 20 20
4 4 3 4 3 3 3 4 3 4 2 3 1 2 4 6 6 6 5 5 5 6 7 7 6 5 8 8 8 9 11 11 10 11 13 15 15 16 18 20 21 21 19 16
4 1 2 4 5 5 2 2 3 3 2 0 1 2 2 5 4 6 6 6 6 8 7 7 7 10 11 13 11 9 8 12 14 17 19 18 18 18 19 20 21 21 19 18
3 3 3 2 4 3 4 2 1 1 2 2 2 2 4 5 7 8 10 9 8 8 6 8 7 9 14 18 18 17 16 12 13 21 24 25 25 24 24 24 23 22 22 20
3 3 2 1 3 3 4 3 2 4 5 6 4 5 4 4 6 2 3 7 9 10 11 11 13 17 19 22 21 18 18 17 16 18 25 27 30 31 30 29 29 26 24 23
4 3 3 3 1 3 1 2 1 2 1 4 3 4 4 9 6 3 2 6 7 9 13 16 20 22 24 26 25 17 18 18 18 20 23 29 31 33 32 32 30 28 25 23
4 5 4 1 2 2 4 2 1 2 3 0 1 3 5 6 6 5 7 13 14 22 23 22 25 25 26 30 25 21 22 18 20 24 25 26 31 33 34 33 32 29 26 23
2 3 3 2 1 5 4 3 1 2 2 1 2 3 4 3 4 9 13 15 22 23 25 27 26 26 27 32 30 25 23 22 24 20 20 22 27 32 33 33 31 28 24 21
5 5 3 2 2 5 4 1 5 2 1 1 2 3 5 7 11 12 13 14 16 19 24 25 26 27 29 31 28 25 24 30 22 19 18 22 26 31 33 31 29 26 25 22
2 5 4 7 5 2 1 3 4 3 2 1 2 5 6 9 10 13 12 15 17 23 24 26 26 28 30 28 28 25 34 30 23 16 19 22 25 29 30 30 30 29 27 24
3 2 2 1 3 5 5 4 4 3 3 2 3 5 7 9 12 15 16 15 17 22 24 26 28 26 25 25 30 30 32 28 23 17 18 20 24 27 29 30 32 31 27 23
4 5 5 3 3 1 2 5 4 4 2 2 4 3 9 11 13 14 14 14 20 24 26 27 25 25 30 28 30 32 24 20 18 14 16 19 20 24 25 24 30 29 29 29
5 7 5 5 6 4 3 7 6 4 2 3 4 6 7 10 12 14 14 21 23 24 28 28 27 29 30 30 27 25 14 13 15 13 16 18 19 20 23 24 19 20 21 20

GFSCGP_925_spd_102.txt.gz
Wind_Speed
5 5 10 11 16 6 2 12 14 15 19 17 12 8 9 5 2 9 13 12 12 8 14 23 16 11 21 23 23 30 22 12 14 16 14 11 14 12 15 16 12 13 13 15
5 10 13 13 14 13 2 13 15 9 19 11 10 10 6 8 4 7 13 10 10 2 4 9 11 9 11 18 17 18 18 18 14 8 8 7 11 12 13 14 14 16 16 18
11 5 9 8 7 8 8 12 12 11 14 5 11 5 4 3 2 7 8 9 7 4 8 8 11 18 18 17 17 14 12 12 21 9 4 6 9 12 11 13 12 12 16 19
7 5 6 8 11 9 9 15 10 16 15 5 7 4 9 13 7 4 6 5 5 4 8 3 13 22 16 23 21 27 28 24 27 26 16 19 20 14 21 16 11 11 12 18
2 3 6 5 7 13 3 14 16 19 10 7 9 4 6 10 4 6 5 8 6 7 8 10 9 6 18 28 34 34 33 26 31 31 31 28 27 30 23 20 17 21 19 19
2 2 3 3 7 15 7 8 3 1 3 5 4 6 2 6 5 0 1 10 8 9 7 7 10 14 13 15 25 29 31 31 33 31 40 37 36 33 31 27 25 24 20 19
2 2 2 2 6 8 7 11 3 3 3 4 2 2 4 5 6 4 10 9 2 7 8 8 6 6 9 12 16 17 16 19 22 26 28 34 36 31 28 30 31 27 23 21
3 3 3 1 2 3 4 2 2 5 4 4 3 5 5 9 8 9 5 5 3 6 4 6 5 4 2 2 5 9 11 13 15 16 16 19 18 19 18 17 22 24 24 23
2 4 6 7 4 2 1 3 2 5 3 5 3 5 5 6 11 10 9 10 12 10 9 9 8 8 6 2 3 7 8 10 12 12 12 13 13 14 16 14 15 16 17 21
3 4 6 6 5 3 5 1 1 1 4 5 5 8 6 7 9 9 13 13 13 12 11 9 7 8 7 5 2 2 6 8 10 11 10 9 8 9 9 13 16 17 17 23
3 3 4 3 7 8 4 2 4 1 3 4 5 5 6 3 5 10 10 9 8 9 7 6 6 7 8 7 6 3 1 5 8 9 8 9 9 10 10 11 14 17 20 25
4 3 4 4 2 4 3 5 3 2 4 4 8 5 5 5 7 8 8 6 7 9 10 8 8 8 8 9 7 5 2 3 6 8 10 10 9 10 11 11 14 18 22 25
3 3 2 4 4 2 5 6 4 2 1 3 3 6 4 7 6 10 9 8 7 9 10 10 11 13 13 11 11 10 7 4 2 4 7 8 10 11 10 11 15 18 22 20
1 4 5 3 4 2 2 7 9 5 3 7 10 15 5 8 8 8 8 9 10 11 10 10 9 10 12 12 11 9 10 9 7 5 6 7 9 11 12 14 17 18 19 20
2 4 4 7 6 3 6 7 8 5 3 5 7 8 9 9 9 10 10 11 12 13 13 12 11 9 12 13 13 12 10 8 6 8 9 10 10 10 11 13 15 16 17 20
2 4 2 3 5 4 6 4 3 5 3 5 4 9 6 5 8 10 10 10 11 11 11 10 11 14 15 13 12 13 13 11 9 10 12 11 11 12 14 15 17 17 18 20
2 2 1 2 5 1 5 5 5 3 5 3 3 5 7 8 8 5 7 8 8 10 12 13 13 14 15 17 19 18 14 13 13 13 13 12 13 15 16 16 17 20 20 19
3 3 2 2 1 1 3 3 1 6 5 5 6 4 4 5 9 5 1 9 12 13 14 14 16 19 20 20 18 18 19 19 17 16 16 16 17 18 18 19 20 20 20 22
5 2 3 1 1 1 1 2 3 2 3 3 3 1 3 8 8 5 3 11 14 15 18 21 23 24 25 24 24 21 20 19 19 19 21 20 19 20 20 21 23 24 22 21
2 5 0 1 1 3 3 3 0 1 3 4 1 1 5 8 7 7 10 15 15 19 19 21 23 25 26 27 26 25 23 23 23 22 21 20 21 23 26 25 24 23 22 25
0 1 1 2 2 3 4 4 3 3 3 6 3 2 3 4 6 13 15 17 22 22 25 26 26 25 26 25 27 29 27 26 25 24 21 20 23 28 27 26 25 23 24 20
3 3 3 2 3 3 7 5 5 4 5 4 4 3 6 8 10 12 14 15 17 21 24 25 26 28 30 29 26 28 28 27 26 25 22 20 21 23 26 27 27 24 23 22
3 2 2 5 1 2 6 1 5 5 4 3 3 4 6 9 10 12 14 15 16 22 22 21 23 27 27 29 28 28 31 30 27 24 24 21 20 22 24 28 27 25 24 22
4 4 3 2 4 6 6 5 5 4 3 2 3 5 6 8 11 13 13 14 17 22 23 25 26 25 26 26 34 36 35 31 29 26 24 21 19 22 24 27 28 28 27 25
0 7 5 5 5 2 8 10 8 6 4 3 4 5 6 8 11 12 13 14 19 22 23 24 26 25 30 34 35 37 34 29 26 23 21 17 17 22 22 25 28 30 32 34
8 7 7 5 6 3 2 13 10 7 5 4 4 5 6 8 10 12 13 18 20 21 24 24 25 27 31 32 38 36 31 24 20 18 15 15 16 19 20 21 18 21 24 27

GFSCGP_925_spd_105.txt.gz
Wind_Speed
9 6 12 15 16 20 16 16 14 16 19 21 20 17 15 12 10 13 10 9 9 12 9 17 6 12 17 19 20 29 23 20 15 21 18 16 16 15 14 15 15 15 16 14
5 15 15 11 15 15 16 13 17 17 14 18 18 15 12 12 13 14 11 10 11 9 6 14 14 13 11 0 20 20 22 25 7 11 13 13 13 15 13 12 14 15 15 17
11 6 3 7 12 12 14 18 17 6 20 19 14 11 10 7 7 9 10 12 9 5 9 12 7 6 5 7 23 21 19 19 10 8 10 8 7 8 9 11 13 17 18 18
7 5 8 11 13 13 14 14 9 17 18 9 16 6 5 5 6 10 10 8 5 4 9 12 9 6 5 8 14 19 15 10 14 12 9 6 6 5 9 8 13 15 17 17
3 2 5 8 10 10 8 14 10 15 8 14 6 3 5 6 2 4 2 5 6 8 9 12 11 9 7 10 2 15 18 17 20 24 19 15 16 17 16 14 10 16 16 17
3 2 3 6 7 10 9 4 7 3 5 5 5 3 10 7 6 1 8 6 9 9 10 9 9 13 14 15 16 20 24 27 24 24 22 25 23 18 17 18 12 15 21 21
2 1 4 6 2 6 3 5 2 1 3 4 8 6 6 11 10 3 5 4 7 9 10 9 8 9 11 14 18 27 27 26 31 27 24 27 32 27 28 23 21 26 22 28
4 3 5 3 4 3 6 5 3 3 2 5 11 8 5 10 7 5 5 3 8 7 10 6 5 8 9 9 11 14 18 21 27 34 34 37 38 37 32 34 35 42 31 32
1 3 5 1 7 6 4 2 4 1 11 5 3 1 3 9 10 10 3 13 12 10 9 8 7 6 6 6 9 11 13 15 16 18 17 19 24 25 22 24 25 29 26 27
3 2 4 7 6 3 2 2 3 1 2 6 5 5 5 11 14 13 13 15 13 10 9 8 6 6 6 4 1 2 6 9 11 13 14 14 14 14 14 15 18 19 19 20
1 3 5 3 7 9 8 6 4 4 3 3 5 6 6 9 12 14 15 13 11 10 10 9 7 11 13 12 10 8 5 2 4 6 8 9 9 10 11 12 15 16 17 20
5 3 3 2 4 2 5 7 6 4 3 4 8 6 6 9 11 10 11 11 10 11 11 11 12 15 15 14 14 11 9 7 4 2 4 5 6 8 9 10 11 14 19 21
6 3 1 3 4 4 4 10 9 3 4 5 1 7 7 8 11 12 12 12 11 12 13 12 11 12 15 15 14 13 11 10 8 7 5 5 6 7 8 9 11 14 19 22
5 5 5 5 5 5 7 12 13 5 5 12 12 15 10 10 10 10 11 11 11 12 13 13 11 11 14 13 11 11 11 9 6 6 6 6 6 7 8 8 8 12 18 21
3 4 5 8 6 5 7 10 13 11 6 9 13 12 9 9 9 9 9 10 12 13 14 12 12 11 14 14 13 13 12 10 10 8 6 7 8 8 8 9 9 9 13 19
1 3 1 4 6 4 7 10 7 10 9 8 10 8 5 6 7 8 9 10 11 12 12 14 15 16 17 19 18 17 15 14 12 12 13 11 10 11 12 12 12 12 15 16
4 2 0 2 3 1 1 8 7 5 8 5 1 4 3 4 5 3 5 5 6 7 9 9 10 14 18 21 22 23 23 22 19 16 15 15 14 15 16 17 17 17 18 18
2 2 2 2 3 2 4 3 2 4 3 4 6 3 2 3 6 5 3 5 9 9 7 6 8 13 17 20 22 24 25 24 23 23 21 19 18 18 19 19 20 21 22 23
5 1 1 2 3 3 1 3 3 2 1 2 3 1 2 7 9 2 2 10 14 16 16 18 19 20 19 18 19 20 23 25 26 25 24 22 22 21 21 23 24 25 25 25
2 2 3 1 2 2 5 7 3 1 4 8 4 2 3 7 6 3 10 13 13 17 18 20 24 25 25 25 25 24 23 23 24 25 26 25 24 23 24 25 25 25 26 27
1 2 4 2 2 0 8 9 5 4 3 10 6 2 2 4 5 12 13 14 17 18 20 22 22 23 24 26 26 26 29 26 26 26 27 29 30 27 24 25 25 25 25 22
3 2 3 1 2 2 10 6 4 5 8 7 4 0 4 7 9 11 12 13 14 16 19 19 21 22 24 26 26 27 26 29 28 30 33 31 31 27 26 24 24 26 26 25
3 2 3 4 1 2 12 2 5 4 6 4 3 1 4 7 9 10 11 12 13 16 17 18 19 22 23 24 26 25 31 35 36 34 33 32 31 28 27 25 23 25 26 25
4 4 3 3 3 7 8 6 6 5 4 5 3 3 4 8 9 11 11 11 12 15 17 19 21 21 22 22 24 29 31 34 34 31 31 30 28 26 26 24 23 27 27 26
3 6 5 9 9 3 9 11 10 8 6 5 3 3 6 8 10 11 10 11 14 16 17 19 21 21 23 25 26 27 29 33 30 26 27 28 26 26 23 23 24 29 31 33
7 9 6 4 1 5 2 12 11 10 8 5 4 5 6 7 10 10 10 14 15 17 19 19 20 22 26 26 26 28 27 30 28 25 22 22 21 21 22 19 21 29 29 30

GFSCGP_925_spd_108.txt.gz
Wind_Speed
11 4 9 12 14 16 16 17 18 20 12 11 15 13 27 15 7 7 9 7 5 8 5 15 7 5 9 14 13 15 18 20 19 21 20 20 19 19 19 19 21 23 23 21
4 12 13 13 10 14 16 15 16 19 8 10 6 14 21 14 9 9 10 9 8 5 6 6 16 11 14 8 14 17 18 26 26 23 23 24 21 19 19 19 19 19 22 21
8 4 4 7 11 16 13 15 13 9 11 9 14 16 19 16 7 7 8 4 3 3 3 6 11 11 7 6 6 10 27 26 19 18 16 16 20 18 18 17 18 18 21 22
7 8 9 9 13 13 13 7 9 9 7 7 12 5 12 8 6 7 7 8 6 6 9 8 8 7 8 1 5 18 21 24 16 8 7 5 5 14 12 9 12 16 18 20
2 3 3 6 8 8 8 6 14 12 6 11 13 1 4 4 7 5 2 2 6 5 10 9 8 10 7 2 9 18 24 18 16 10 6 4 2 7 6 5 3 11 10 15
6 3 3 4 12 8 6 6 1 3 5 4 2 2 2 4 5 3 7 6 7 7 9 9 10 10 10 4 4 20 19 14 14 16 11 13 17 17 16 13 12 14 14 15
3 3 3 7 7 1 4 2 3 0 2 2 6 6 1 9 8 4 3 4 6 7 4 7 5 4 8 10 9 12 11 10 12 14 24 18 22 22 21 25 22 22 19 20
4 3 4 3 3 3 4 3 3 3 2 2 6 5 5 8 5 3 3 2 4 6 5 3 4 7 7 8 12 18 18 19 18 16 22 26 24 25 23 26 26 25 25 24
3 4 4 10 9 5 4 3 2 3 5 3 4 1 10 13 16 11 9 9 9 10 5 5 7 13 12 8 3 6 12 15 17 28 32 32 36 35 29 37 36 31 33 31
5 4 4 6 3 4 6 6 1 2 3 4 3 5 4 10 11 12 13 12 10 3 6 7 6 12 13 11 9 8 3 1 2 5 12 18 20 21 26 29 29 29 32 30
3 3 3 3 5 5 5 5 4 1 2 1 3 4 7 14 10 11 13 11 10 9 8 8 6 15 17 17 17 16 13 10 8 5 4 6 9 9 11 14 16 19 20 23
3 4 2 2 3 2 5 6 5 3 7 5 5 5 6 10 10 12 11 10 10 8 7 7 8 15 16 16 16 16 13 9 6 3 3 4 4 5 9 8 8 11 15 19
5 4 3 3 2 2 5 9 6 2 2 6 4 3 7 9 9 8 11 11 10 10 10 8 7 9 14 17 16 17 14 12 9 6 3 4 5 8 8 9 10 10 13 17
3 5 4 2 2 3 5 10 10 4 5 10 7 9 7 8 8 8 8 7 8 8 9 8 8 9 17 18 17 16 14 12 11 11 11 12 10 9 10 11 14 14 15 17
4 3 4 3 4 1 5 7 12 11 7 7 9 11 6 6 7 7 7 7 9 9 8 7 7 6 15 19 18 20 19 17 16 16 15 14 13 12 12 12 15 15 14 18
3 1 1 1 6 3 6 8 8 9 11 12 11 7 6 5 5 6 6 7 7 8 9 8 7 10 14 21 23 22 20 22 24 20 19 19 19 17 18 17 18 17 18 19
4 1 2 2 4 6 1 4 6 5 5 1 5 5 6 5 4 5 6 7 8 9 10 11 10 13 14 14 17 17 19 20 21 21 21 21 20 20 20 22 22 21 23 23
4 2 1 3 4 2 3 2 1 6 5 6 7 6 5 4 2 4 4 5 7 8 9 9 13 19 25 29 29 30 29 27 25 24 23 22 21 22 21 21 23 25 24 27
4 2 1 2 1 2 4 4 4 1 4 4 7 6 4 1 4 6 8 7 4 6 9 13 18 22 24 21 24 29 31 28 27 27 27 28 27 26 25 24 23 24 27 28
5 3 1 1 1 2 2 4 3 2 0 6 5 5 3 4 3 3 4 2 4 2 1 4 9 12 12 14 17 20 23 24 27 31 32 30 28 29 27 27 28 28 29 33
1 2 3 4 3 2 5 6 2 2 5 6 5 6 3 1 2 4 6 4 5 5 4 5 4 6 8 11 15 16 17 20 21 25 31 36 37 34 31 31 30 29 31 34
2 1 4 1 2 4 6 3 4 4 4 6 4 4 2 2 4 4 4 5 6 7 10 13 13 15 18 17 18 17 18 20 24 25 27 33 37 38 36 32 31 30 28 31
2 3 2 2 4 1 7 3 4 4 5 4 5 4 1 3 4 5 5 6 6 10 13 14 16 18 20 20 21 24 25 29 27 27 30 31 33 33 33 33 31 27 25 27
4 3 2 3 2 5 7 5 5 2 4 6 4 2 0 4 5 6 6 6 6 11 13 16 17 18 20 22 23 23 25 27 25 28 28 30 30 29 28 27 25 25 23 21
3 5 6 5 6 2 6 7 8 6 6 6 4 3 4 4 5 5 5 5 8 11 14 15 16 18 21 24 25 26 26 27 27 28 28 26 27 26 25 26 27 26 27 26
6 7 5 5 6 6 1 8 10 9 8 7 7 6 6 5 5 4 4 8 10 12 16 14 14 18 20 22 25 26 26 25 28 29 29 29 29 27 27 25 22 26 30 28

GFSCGP_925_spd_111.txt.gz
Wind_Speed
1 1 7 9 8 7 9 13 17 18 20 17 15 14 18 15 6 11 17 16 10 6 4 7 12 8 12 12 15 11 11 11 12 27 29 26 31 37 37 34 33 29 27 28
3 9 10 9 10 13 12 16 18 16 15 11 12 16 9 10 5 13 13 9 8 3 3 1 6 4 8 4 8 7 15 15 7 19 26 27 31 33 35 32 33 33 31 29
7 3 8 5 11 12 12 13 14 12 12 8 2 7 11 5 12 19 18 7 7 8 6 5 3 6 6 5 9 1 14 21 24 13 10 14 20 25 25 24 23 30 31 29
6 6 9 8 11 12 11 9 7 8 5 3 5 5 3 4 11 14 13 6 7 7 4 5 6 6 5 1 4 7 10 20 23 20 12 22 21 15 17 24 21 21 22 25
2 3 6 6 7 8 9 7 3 14 6 4 6 4 5 8 5 4 6 9 7 7 10 7 7 7 11 3 8 7 18 24 21 20 14 13 19 12 12 6 14 17 16 18
7 3 3 5 8 11 9 4 8 1 2 4 4 9 2 3 5 6 6 3 8 8 10 8 5 14 6 1 4 20 27 22 30 21 15 9 8 7 5 2 2 1 12 16
5 5 4 5 6 2 3 2 3 3 4 3 8 5 0 9 7 7 6 7 4 5 9 6 4 4 5 3 11 19 8 17 20 14 11 5 4 3 10 10 11 11 15 15
5 6 3 4 5 4 2 3 2 4 3 2 3 4 6 13 9 4 4 6 9 14 11 11 6 4 3 1 3 1 5 7 17 8 11 16 20 18 19 22 22 24 18 23
4 4 3 7 5 3 2 2 2 2 1 3 4 2 2 16 14 11 11 9 13 13 11 6 5 8 13 10 6 2 5 6 10 10 9 11 14 15 17 24 25 26 31 27
3 4 5 3 4 6 5 2 3 2 3 4 3 3 5 10 9 10 11 17 18 11 9 8 6 14 15 17 14 11 5 6 1 2 7 15 20 22 26 30 36 31 36 35
3 2 6 2 3 4 5 4 3 1 4 1 1 4 1 5 12 17 18 9 9 6 8 5 8 15 20 22 22 20 17 14 11 7 4 2 8 11 12 13 17 22 28 34
1 2 3 2 4 3 3 5 2 3 5 3 3 4 4 10 6 9 11 12 10 8 6 8 9 16 20 23 22 21 20 18 16 13 11 9 7 6 9 12 14 15 17 19
4 3 3 8 6 6 4 11 3 3 3 4 4 3 4 9 9 8 10 9 8 9 9 8 9 13 19 22 25 26 24 22 20 19 17 13 10 11 12 11 11 13 15 17
0 3 3 5 5 5 6 12 8 5 4 3 4 6 4 5 6 6 6 7 7 8 9 8 8 10 16 18 21 21 20 20 20 19 17 16 17 16 15 14 15 16 17 18
3 2 3 2 3 2 4 5 10 6 5 5 7 5 3 3 4 4 5 6 7 9 9 8 9 6 12 18 20 20 19 19 20 20 21 22 21 19 17 17 18 17 20 22
4 1 2 2 3 2 3 7 7 8 11 7 8 4 5 4 5 5 5 6 6 6 6 5 8 13 13 20 24 23 21 19 20 20 21 22 22 23 24 24 22 20 20 22
2 3 2 3 2 2 4 2 2 2 3 6 4 5 6 4 5 3 3 4 4 2 0 4 4 6 15 18 18 18 17 18 20 20 21 22 24 26 28 25 26 25 24 24
1 2 2 3 3 2 5 1 2 4 2 3 5 4 4 3 0 4 4 4 1 0 1 2 1 7 11 15 17 19 18 18 18 17 18 18 20 22 25 28 29 28 27 27
2 3 1 2 2 3 0 3 5 5 5 5 7 4 2 4 3 3 4 5 6 8 11 15 20 22 23 27 27 27 25 23 20 20 22 22 23 24 25 26 28 30 32 32
1 3 3 1 1 4 4 4 3 3 4 8 6 6 5 3 1 4 5 6 7 10 11 14 18 19 19 20 24 27 29 32 34 36 35 35 31 25 25 25 28 27 30 32
2 2 3 1 2 6 4 6 4 3 5 6 8 6 7 5 5 2 3 2 3 6 8 8 9 11 13 18 18 21 21 20 24 29 37 39 39 37 35 32 26 25 26 30
5 4 4 2 2 6 7 4 7 4 2 6 5 6 5 4 2 3 4 3 2 2 3 5 6 8 10 13 12 14 16 20 22 26 27 31 34 35 36 39 37 29 24 28
3 6 3 7 5 4 8 5 5 6 6 6 8 6 7 6 5 4 3 2 3 4 6 7 8 8 8 8 10 13 16 18 19 22 22 26 30 32 33 35 35 32 27 26
4 4 3 2 3 6 10 4 6 6 7 6 6 7 7 5 5 3 2 2 3 6 8 8 7 7 8 8 11 13 17 18 19 20 21 24 26 27 29 30 32 30 27 24
5 5 4 5 6 1 7 8 9 7 7 6 6 6 6 5 3 3 3 3 6 8 9 9 8 7 11 12 16 18 21 21 21 21 23 23 24 26 27 27 29 30 32 29
6 8 6 6 7 4 4 9 9 10 9 8 8 5 4 4 4 3 3 5 7 9 12 13 10 11 15 17 22 23 26 21 23 24 24 25 27 27 27 27 31 31 33 35

GFSCGP_925_spd_114.txt.gz
Wind_Speed
2 3 5 8 8 3 2 7 14 17 18 15 18 23 20 19 10 10 12 11 9 9 13 22 10 8 12 16 17 21 21 22 22 24 26 32 31 33 33 36 42 42 36 41
3 7 8 7 8 7 8 15 19 15 13 7 13 20 22 19 11 13 12 10 8 8 9 9 3 5 7 15 20 20 20 21 21 21 28 29 35 32 36 34 39 39 41 40
6 5 5 4 9 12 14 14 15 14 13 13 13 11 7 3 5 6 6 7 6 9 8 5 4 6 8 9 13 21 18 20 17 9 14 27 30 25 27 32 35 39 39 38
6 5 8 7 10 9 13 8 14 14 7 3 3 5 5 6 6 6 8 7 7 8 7 4 5 7 12 16 12 11 13 14 4 7 4 27 22 18 17 27 35 38 36 33
3 3 6 5 6 6 10 4 9 7 10 4 2 2 5 8 8 8 8 8 8 8 7 7 7 7 8 9 11 14 17 17 12 15 6 13 13 6 10 17 22 31 34 33
8 5 4 4 7 12 11 7 9 2 2 2 5 4 1 5 9 13 7 9 7 8 6 7 5 1 6 5 10 16 16 18 17 13 14 14 16 13 15 11 9 9 8 18
1 3 3 5 7 4 4 2 3 2 1 3 3 3 3 12 17 7 7 10 10 5 5 5 4 3 12 21 18 11 8 17 22 20 18 18 18 13 8 7 4 6 4 2
5 7 3 5 5 3 4 2 2 4 3 3 2 3 3 10 7 6 8 11 11 14 10 11 10 12 12 13 20 19 20 15 22 15 6 4 5 2 2 4 8 8 11 14
4 5 4 8 6 7 2 2 2 3 2 3 3 3 4 14 16 14 17 13 6 11 13 14 8 9 10 11 11 14 14 12 4 2 3 7 10 11 9 7 13 19 21 22
2 4 6 5 2 6 6 3 1 2 4 3 4 3 5 12 10 10 10 5 10 13 12 9 9 13 18 22 23 22 18 15 9 5 4 5 8 11 12 13 15 20 29 28
1 2 6 2 1 3 3 4 2 3 2 3 3 3 5 6 5 5 7 9 10 10 9 9 11 18 20 25 28 28 26 25 22 17 14 12 8 2 8 13 15 21 27 29
2 2 4 7 3 3 3 4 2 3 1 2 3 1 8 9 4 2 7 12 13 13 12 11 13 16 19 21 25 26 29 29 26 22 20 17 13 11 9 10 12 14 16 15
1 2 4 8 6 6 4 6 4 2 3 1 3 1 4 4 3 6 9 10 10 11 10 9 10 14 18 22 24 27 26 25 24 23 23 22 21 19 18 16 16 14 15 16
1 2 3 4 5 3 7 13 7 3 4 2 1 5 2 3 6 6 6 7 8 7 8 8 10 12 17 22 23 23 24 25 25 23 22 21 20 19 19 18 18 17 16 17
2 1 2 4 5 3 2 6 10 6 3 3 6 6 5 5 5 3 4 5 6 6 7 6 6 7 13 16 17 20 20 21 23 24 24 24 22 22 21 21 21 20 19 20
3 1 2 3 5 4 3 4 6 6 5 6 4 1 4 4 5 4 4 4 5 5 2 2 3 2 9 16 15 18 20 22 21 20 19 20 21 24 25 26 28 27 24 22
2 3 2 3 5 5 6 4 2 1 2 6 4 6 5 5 5 4 4 3 3 4 4 5 3 8 12 14 16 17 17 16 15 13 14 16 17 21 26 28 29 29 29 30
1 2 1 2 3 3 5 2 3 5 4 5 2 5 6 4 2 3 4 2 2 1 2 3 3 5 4 9 12 11 11 13 14 13 16 18 19 20 21 21 23 28 32 31
2 3 1 1 2 5 3 4 5 5 6 8 7 5 4 4 5 3 2 2 3 4 7 6 5 11 15 13 15 16 17 17 14 15 16 18 19 20 21 21 22 23 25 29
3 4 3 2 1 5 4 2 3 3 6 10 9 9 7 5 2 3 3 3 5 5 8 16 19 22 26 29 30 32 31 31 29 29 28 28 27 25 25 25 25 24 25 28
1 2 3 1 2 7 5 5 3 4 6 5 8 7 7 4 3 2 1 6 12 12 12 12 16 19 21 25 26 24 24 23 29 33 36 33 31 30 29 32 29 28 28 27
5 4 4 2 3 7 6 4 7 6 2 5 5 6 6 4 4 2 3 2 3 5 10 14 16 20 22 22 20 22 22 27 28 29 32 34 34 33 33 32 32 31 30 31
3 6 3 7 5 3 8 4 6 4 4 5 6 5 8 7 5 5 3 3 3 4 6 7 9 11 13 14 16 15 19 19 21 22 24 26 28 32 33 33 33 32 28 27
4 3 4 2 3 8 8 7 4 6 6 5 5 6 7 5 6 5 3 2 4 7 9 11 11 13 16 15 16 15 19 20 23 21 22 24 26 29 29 29 29 28 28 28
6 5 5 6 7 6 9 10 7 6 5 5 4 6 7 7 6 6 5 6 9 8 8 8 10 13 15 15 15 15 19 18 18 19 21 22 23 25 29 29 29 30 32 32
7 8 6 7 9 5 6 5 9 9 9 9 8 6 5 6 7 5 5 8 7 7 7 8 9 12 16 14 14 16 16 14 16 18 17 19 22 23 26 27 33 32 32 36

GFSCGP_925_spd_117.txt.gz
Wind_Speed
3 4 4 4 4 3 3 4 12 15 13 11 13 17 23 18 12 15 12 15 11 11 11 24 23 23 20 19 18 19 21 23 24 27 23 25 27 33 35 39 37 40 37 40
3 6 7 7 6 5 5 12 15 17 13 5 14 21 24 20 16 15 12 13 10 7 7 13 20 18 18 16 14 15 21 23 25 28 28 24 24 34 39 36 35 42 47 45
4 5 3 4 8 9 9 11 14 13 8 12 11 9 4 5 5 2 6 8 6 10 11 10 10 16 16 13 12 11 18 25 28 28 27 27 32 27 26 31 32 34 41 44
6 4 4 6 10 7 9 7 13 15 8 4 2 6 5 7 6 7 7 7 9 9 9 7 6 12 11 9 11 12 12 19 24 23 23 19 26 23 21 25 27 35 38 40
5 3 5 9 7 7 8 4 7 13 8 5 3 3 6 7 10 17 14 11 9 5 7 7 8 10 2 3 10 15 16 20 19 18 16 9 13 21 22 24 23 25 31 39
9 4 5 6 4 10 10 11 10 5 1 3 3 5 4 8 12 14 9 9 8 7 3 4 5 8 10 11 13 22 22 20 19 15 13 4 6 23 22 15 13 16 21 29
4 5 4 4 4 4 5 2 3 3 3 4 4 4 2 14 17 10 6 7 10 11 10 10 11 10 15 15 20 24 17 17 17 8 14 9 12 19 19 17 13 14 12 9
3 6 6 6 6 3 2 1 2 3 2 4 2 6 4 12 16 9 7 10 8 12 9 13 11 14 16 22 22 25 16 17 18 12 16 15 14 15 12 9 5 3 6 2
2 6 4 6 4 3 2 1 1 3 2 3 3 2 3 14 15 15 14 15 12 12 11 11 12 23 20 21 23 26 36 32 22 13 9 4 3 8 6 5 3 6 8 10
3 6 3 5 4 4 3 1 2 3 4 3 4 3 5 12 13 11 13 12 13 15 14 12 13 15 18 20 24 31 29 28 26 22 19 12 5 3 1 3 6 8 13 20
3 1 6 2 1 2 3 3 3 3 1 2 3 3 4 6 8 9 8 5 6 8 9 11 12 17 18 21 24 28 30 31 30 27 25 25 23 18 12 5 6 9 16 22
1 1 5 7 2 2 3 3 2 2 3 2 2 3 3 5 6 3 4 7 8 9 9 9 11 15 19 20 23 24 27 28 26 24 23 23 20 18 17 15 12 10 11 13
0 2 5 9 5 4 4 3 3 1 3 1 3 3 1 3 5 3 5 6 6 6 8 8 8 11 14 16 19 20 24 25 26 26 25 24 24 22 20 18 16 15 15 14
2 2 3 4 6 3 5 5 3 1 2 3 4 2 1 3 5 3 3 4 5 6 6 5 7 10 17 21 26 27 27 26 26 24 22 22 22 22 22 22 21 20 18 18
2 2 1 5 7 5 4 4 6 2 3 2 4 5 6 6 6 4 3 3 5 6 6 6 7 8 17 20 21 23 22 21 22 22 22 23 22 22 24 25 24 23 22 23
3 2 3 4 4 6 5 7 4 2 1 4 5 5 6 5 4 4 3 3 4 4 6 6 6 9 10 13 16 17 17 19 21 21 21 23 24 26 28 28 28 28 27 27
2 1 3 4 6 8 7 6 5 3 4 6 5 5 5 5 6 5 5 3 3 1 1 3 5 7 9 9 12 15 15 16 16 13 15 16 19 22 23 23 25 27 29 31
0 2 1 3 5 3 5 2 2 5 7 8 4 4 7 5 2 2 1 5 4 2 1 2 2 5 8 9 11 11 10 14 12 13 15 17 18 18 19 19 21 22 23 26
2 3 0 0 2 7 2 4 5 5 7 10 8 4 6 5 3 4 5 4 4 2 3 4 4 3 4 9 14 11 10 11 12 15 19 22 23 22 23 23 24 25 24 24
4 3 3 1 1 5 4 3 4 3 5 5 9 9 7 4 1 4 5 4 4 5 5 6 2 3 9 17 20 18 15 16 20 21 22 22 24 24 25 25 27 26 26 27
1 1 3 3 4 8 4 4 4 2 6 2 7 6 8 6 5 4 5 3 5 6 3 3 6 12 19 22 25 25 23 23 27 29 30 29 26 25 23 25 26 26 27 28
4 4 4 1 3 7 5 3 6 5 1 3 6 6 7 5 6 5 7 7 6 4 6 13 15 15 16 18 22 25 24 26 29 28 32 32 32 33 31 31 31 31 28 27
3 6 3 8 6 5 7 6 5 2 2 4 6 6 8 8 7 6 4 0 3 6 7 9 13 16 19 19 17 20 22 19 23 22 27 23 25 26 26 27 27 27 26 25
5 4 4 0 4 8 11 8 6 5 6 4 4 6 7 6 6 4 2 1 2 4 6 8 11 12 15 15 13 15 18 17 20 21 19 21 21 24 25 24 24 26 26 26
6 6 5 7 12 9 12 11 11 10 7 4 5 7 8 7 5 5 4 4 4 2 4 5 8 11 15 16 14 15 16 17 17 17 19 20 21 24 28 28 28 30 30 30
8 8 7 8 8 5 7 2 4 9 10 10 8 5 5 7 8 6 5 5 4 4 5 6 9 11 14 14 14 14 14 15 14 17 18 20 22 25 27 28 35 30 33 35